GFSMW_925_rhum_000.txt.gz
RH
53 52 47 42 42 42 44 45 46 54 48 61 71 72 72 76 81 82 80 79 81 84 85 84 84 85 91 92 95 95 93 94 93 98 92 87 80 77 74 71 74 72 66
59 58 52 46 45 44 41 42 45 52 61 66 75 76 79 67 51 47 49 50 48 47 45 46 48 52 66 78 90 98 100 97 92 97 94 96 80 73 67 66 72 70 71
59 62 61 54 48 47 44 42 41 42 46 57 60 61 44 44 45 48 48 48 45 42 39 37 36 36 38 44 50 76 96 98 95 94 97 93 88 85 77 70 70 69 69
58 61 60 59 53 51 46 45 45 44 44 42 43 46 54 58 59 55 51 46 44 41 38 36 35 36 38 44 49 48 53 70 91 91 86 95 97 95 93 74 76 75 73
63 64 63 58 54 49 48 48 47 48 49 49 50 51 54 55 52 48 44 42 40 39 38 36 35 35 38 42 51 53 51 56 74 82 92 90 86 86 89 89 76 70 68
64 64 58 54 54 52 49 48 48 53 50 49 51 51 51 50 47 46 45 43 41 40 39 35 36 39 43 48 53 52 48 57 63 67 78 84 88 88 90 90 83 84 76
66 65 64 62 57 55 54 52 51 56 54 51 50 50 50 49 48 45 42 39 37 36 34 30 32 37 41 47 48 51 56 60 65 66 75 81 87 88 86 85 82 82 73
66 65 66 62 61 60 56 51 49 51 50 49 48 47 45 42 38 34 30 26 27 29 21 17 19 25 32 37 47 57 60 63 66 70 75 70 74 75 77 86 92 88 78
65 67 66 62 64 61 56 52 49 50 50 50 48 42 37 32 26 20 13 10 11 15 15 19 22 22 23 28 39 62 56 53 66 76 60 69 73 75 81 92 85 90 90
65 69 69 69 68 60 54 51 50 51 49 46 42 36 28 20 12 8 8 11 13 15 18 18 20 20 19 22 30 58 40 53 73 53 53 67 68 76 89 81 84 78 82
66 71 72 72 67 58 54 51 48 47 44 44 36 28 18 10 10 10 11 12 14 17 18 19 20 20 22 23 32 43 42 50 60 49 52 62 67 88 69 80 70 69 78
66 74 76 75 64 57 51 48 47 44 41 39 29 17 11 10 10 12 15 17 17 16 19 18 20 22 25 30 36 36 40 56 52 56 63 73 67 57 64 64 58 69 80
73 80 85 77 69 58 50 46 43 40 37 29 19 12 12 13 14 15 15 15 16 17 17 19 23 26 28 32 31 39 48 51 56 61 49 42 51 50 52 53 59 74 80
73 86 88 79 67 56 49 45 42 36 32 21 14 15 16 17 18 18 17 18 19 22 22 21 24 24 26 29 34 47 51 55 63 52 45 42 45 54 60 56 58 73 80
73 85 87 81 66 55 50 46 40 30 22 16 18 21 20 19 20 20 20 21 22 23 23 24 23 26 32 34 48 51 54 55 55 50 51 53 58 59 56 62 66 69 71
70 87 86 76 68 55 50 45 37 23 16 19 22 21 21 23 25 24 23 22 25 26 26 28 30 30 34 43 50 53 54 54 53 57 58 58 61 61 65 64 61 61 63
70 92 81 73 59 52 48 41 28 18 19 19 19 23 27 29 28 25 25 28 30 30 30 29 32 36 40 48 54 55 58 60 62 62 63 65 66 71 75 70 64 66 67
86 86 76 64 52 49 42 31 21 20 18 19 24 28 31 31 29 29 31 31 34 36 35 39 42 46 48 54 57 61 64 66 65 65 68 71 87 81 66 65 83 97 70
87 76 63 55 50 42 30 22 22 19 21 27 31 30 33 34 34 32 33 37 39 38 41 49 50 53 55 58 63 65 66 66 66 67 69 88 82 68 67 87 87 68 88
72 66 59 51 41 29 24 22 22 24 28 31 32 32 34 33 31 35 41 41 41 48 51 54 56 58 59 63 67 64 65 67 69 73 94 80 63 63 71 59 67 83 69
64 57 51 43 33 27 24 26 25 28 30 32 30 30 28 32 36 40 42 43 48 56 57 58 58 62 64 70 66 64 64 65 77 97 72 67 72 92 60 57 69 69 63
64 55 46 37 30 26 27 28 28 31 31 31 31 30 31 33 37 43 46 49 55 60 60 61 64 67 70 70 69 65 64 67 81 71 65 76 94 63 59 67 66 65 68
59 51 45 34 27 30 29 29 30 31 32 32 31 31 32 36 44 50 52 60 61 63 63 64 70 71 72 75 74 72 76 75 66 66 82 89 66 59 70 69 68 70 82
54 45 34 29 30 31 30 30 31 32 33 35 34 33 39 48 48 53 56 62 64 65 66 72 72 76 77 79 78 85 86 77 75 97 98 70 63 66 70 74 77 80 82
47 37 34 31 30 30 29 29 32 33 34 36 37 40 46 50 55 59 61 63 64 67 69 68 71 77 80 76 68 71 65 72 88 63 61 66 73 76 76 77 77 80 83
42 37 32 30 29 30 31 30 31 34 38 43 46 48 57 59 63 66 67 68 68 67 64 66 68 70 70 69 72 63 75 77 53 54 61 80 81 75 76 81 83 84 84

GFSMW_925_rhum_003.txt.gz
RH
54 58 51 46 44 44 48 55 58 61 60 64 72 85 86 66 55 50 46 45 42 40 40 41 41 42 65 71 75 84 84 82 87 100 93 83 80 81 79 77 80 76 67
52 57 58 52 49 48 46 45 52 66 72 74 83 67 62 55 51 49 47 44 41 38 36 35 34 34 39 48 61 66 65 63 65 82 84 82 66 62 79 80 80 79 80
54 56 57 60 55 52 48 45 44 43 53 57 44 46 49 52 54 51 47 44 40 37 35 34 34 35 42 59 64 67 69 67 62 67 69 76 72 77 56 67 72 84 84
57 58 59 60 62 56 50 47 45 45 46 44 46 51 63 63 62 49 43 39 36 34 30 29 29 30 39 53 61 60 69 70 68 68 58 71 75 75 74 47 58 61 73
58 61 62 65 59 53 51 50 48 49 48 47 47 47 51 50 43 38 35 33 30 26 19 19 23 40 51 58 63 63 67 74 75 73 75 75 75 70 78 80 62 65 60
60 61 64 62 61 57 52 49 48 52 48 44 44 41 41 40 37 33 31 32 31 28 10 6 12 24 38 47 52 58 66 69 70 75 80 80 82 78 78 79 71 68 63
61 61 61 64 66 61 58 54 50 50 45 42 42 40 36 31 28 25 24 18 20 20 7 4 7 18 26 33 37 42 60 56 63 77 85 80 69 63 66 70 73 74 67
62 60 63 67 68 62 57 54 52 51 46 42 37 32 27 21 14 9 8 14 14 18 10 9 12 11 12 12 25 40 59 44 59 78 67 60 48 52 60 74 85 84 67
63 63 65 69 70 63 57 52 51 51 48 40 33 26 18 12 7 5 4 6 10 15 10 11 10 10 12 19 32 37 45 42 40 59 51 53 54 70 76 86 88 77 86
63 64 65 74 73 60 56 53 49 48 44 36 28 19 12 6 4 5 7 8 10 12 13 13 15 19 21 25 30 37 39 37 43 48 51 57 62 69 74 64 67 69 68
63 64 71 78 67 57 53 52 47 46 41 31 21 13 8 7 7 8 10 12 14 16 17 18 18 20 22 25 33 34 33 40 49 52 54 60 55 48 51 59 57 56 53
63 67 77 72 61 55 50 49 45 42 35 24 15 11 8 8 9 12 14 16 16 18 18 17 18 24 30 31 35 36 40 46 49 52 58 53 46 45 45 50 55 59 61
69 73 78 65 59 54 48 45 40 38 28 18 12 10 10 10 14 17 18 17 17 18 18 19 22 24 22 31 36 39 46 48 49 49 54 49 47 49 53 58 61 64 65
72 77 76 68 60 53 48 44 37 33 22 15 12 11 12 16 21 20 18 19 20 20 19 18 19 21 27 39 37 48 51 51 51 51 52 51 54 53 60 62 63 64 65
77 80 77 67 60 54 49 43 34 27 19 14 14 16 21 24 20 20 21 21 22 23 22 20 22 28 35 31 50 53 54 54 54 56 55 56 58 62 61 62 67 67 72
76 81 75 67 62 55 49 43 33 22 16 17 19 24 25 24 23 23 23 23 25 24 23 27 29 28 35 45 55 59 60 59 60 60 61 58 61 63 66 69 66 64 75
71 82 75 69 61 53 48 41 26 18 18 21 25 25 27 28 26 24 24 26 29 29 33 30 25 39 42 50 59 62 65 64 62 61 61 64 64 69 84 78 65 91 71
69 85 75 68 55 52 44 30 20 20 21 24 23 28 32 29 26 25 27 29 36 40 37 40 42 45 45 57 62 68 65 64 60 60 61 64 73 81 66 68 99 63 57
79 82 71 58 54 46 33 23 22 22 22 24 28 31 31 30 28 27 31 35 41 41 45 46 48 48 52 58 68 69 65 61 61 62 63 80 75 62 66 98 67 64 66
80 74 62 54 44 32 25 23 23 22 25 29 32 30 29 29 30 32 36 37 39 47 49 50 53 54 56 65 71 66 64 64 66 71 81 70 58 63 94 64 62 69 71
68 62 53 44 34 28 25 25 24 25 28 30 29 27 27 29 31 34 35 38 43 55 56 55 54 57 63 69 68 64 64 69 80 94 74 61 66 98 74 59 62 69 67
64 54 46 38 32 28 26 26 25 28 28 28 29 28 27 29 32 37 39 48 56 58 58 55 57 63 69 68 68 65 66 70 83 73 66 78 98 64 59 60 63 64 66
63 53 46 37 30 30 29 26 28 29 30 31 28 27 27 30 35 44 54 56 57 62 59 61 65 69 68 72 71 72 77 74 67 72 98 63 50 54 63 63 62 67 78
61 52 42 33 34 33 29 28 30 32 31 30 30 29 32 44 43 48 56 63 64 65 65 67 66 71 72 75 75 82 78 69 89 94 57 52 52 67 66 66 68 74 78
57 46 36 34 33 30 29 31 32 31 31 32 31 33 38 46 56 60 64 65 66 69 66 65 68 74 76 70 67 66 60 78 86 55 56 58 74 72 69 68 70 74 78
47 42 38 32 30 32 31 31 32 33 34 34 41 43 57 60 61 65 66 70 70 68 66 68 70 72 69 70 64 61 72 72 59 59 62 76 77 75 72 73 76 79 81

GFSMW_925_rhum_006.txt.gz
RH
37 41 43 41 42 45 50 59 67 66 63 66 66 63 59 55 54 54 50 47 46 45 46 44 43 43 43 44 44 45 44 41 42 42 42 41 41 43 39 66 54 45 51
34 39 41 41 42 42 44 51 62 69 73 74 64 58 56 55 54 54 52 49 45 44 42 44 43 45 45 45 47 48 48 43 42 43 45 40 38 33 42 43 39 39 40
35 36 40 43 44 47 49 50 55 57 54 52 53 54 56 53 51 50 47 46 44 40 41 41 39 39 41 40 42 41 43 43 39 42 43 46 48 48 43 43 40 42 42
36 38 40 43 49 56 56 54 53 54 55 52 51 49 46 47 48 44 44 41 41 34 32 33 34 33 34 35 36 34 39 42 40 39 40 44 44 52 56 41 43 39 46
38 42 44 50 54 58 58 55 53 53 53 51 47 43 43 44 43 39 36 35 34 32 27 27 29 28 28 31 33 32 36 39 38 36 43 44 45 46 50 56 39 38 35
40 42 49 51 56 61 58 53 50 52 51 48 46 45 41 36 35 32 27 24 22 24 25 25 25 26 28 28 30 31 38 40 34 36 40 45 45 43 39 37 38 39 37
42 45 47 48 53 57 58 52 49 48 47 45 42 40 38 34 28 24 21 19 17 21 23 25 24 25 26 26 27 28 37 37 36 39 44 42 35 34 31 32 43 45 49
40 43 45 50 54 57 54 51 49 48 44 40 36 32 31 27 23 22 20 18 18 20 24 25 25 24 24 24 25 26 27 29 30 30 38 41 35 35 39 47 56 67 56
42 44 48 51 53 53 51 51 51 49 42 36 30 26 24 22 21 19 19 20 21 20 22 24 23 24 24 24 25 23 25 26 27 30 35 37 37 39 43 43 46 49 65
43 44 46 51 52 52 53 51 48 44 39 32 26 23 19 18 18 18 19 21 20 22 23 22 23 23 23 23 23 24 24 25 28 30 33 37 36 42 37 36 34 38 44
43 44 46 54 53 52 52 48 48 43 35 28 23 20 18 18 18 18 19 20 21 23 23 23 23 22 22 22 23 23 23 27 30 31 32 35 36 39 36 36 37 39 41
42 43 49 55 51 48 48 45 45 40 33 25 20 19 20 19 18 19 20 21 21 23 25 25 24 22 22 24 24 24 25 29 30 32 33 35 35 37 38 39 40 44 45
45 46 52 51 46 45 44 42 40 36 28 23 20 19 20 20 20 22 23 23 24 25 24 24 24 24 26 26 26 24 29 32 34 36 38 39 40 40 42 44 46 48 50
46 48 52 48 45 43 41 38 37 33 27 22 21 21 22 25 24 26 26 26 27 27 26 26 26 27 28 28 23 32 37 38 39 40 43 44 45 46 50 51 52 56 62
48 51 53 47 46 43 41 39 35 32 24 22 22 27 29 28 29 28 29 28 30 30 30 30 29 29 31 23 38 46 47 46 46 46 46 46 49 54 55 57 63 67 64
48 52 53 50 47 44 42 40 34 28 24 22 25 29 29 30 30 31 30 30 31 31 32 31 29 30 28 33 47 59 58 52 50 48 47 46 46 47 56 61 65 60 72
48 54 55 53 49 46 43 39 30 25 23 24 26 29 30 30 31 31 29 30 31 32 32 31 31 30 31 36 54 62 64 56 50 48 46 46 46 57 64 59 55 76 82
50 56 58 57 52 48 43 34 26 24 25 25 26 29 31 31 30 29 28 29 31 32 32 32 32 33 33 42 55 69 60 52 48 47 47 48 57 64 52 56 93 76 60
49 56 61 58 51 47 39 29 26 24 24 25 27 30 31 31 29 28 30 31 32 35 34 33 34 35 36 45 61 67 57 50 48 49 50 62 66 52 56 98 95 70 59
65 64 59 52 47 39 30 28 25 23 24 27 30 32 33 32 28 31 33 35 36 35 35 35 35 37 41 48 63 64 57 54 55 57 62 60 52 60 88 65 60 68 61
64 58 52 46 39 30 29 26 25 24 29 32 33 33 31 30 30 34 36 38 38 36 34 34 36 41 49 54 59 64 62 63 73 75 70 59 75 78 54 50 56 63 63
59 52 46 39 32 31 28 26 24 29 32 34 33 30 29 31 34 41 41 40 36 35 33 36 41 48 49 53 58 63 63 70 77 69 63 89 65 54 51 57 62 59 62
55 49 44 38 35 31 28 25 26 32 34 32 30 29 30 32 36 38 40 40 36 37 39 43 47 48 52 53 56 58 65 64 59 62 98 59 53 52 57 59 57 59 65
58 52 46 40 35 33 32 29 33 36 34 30 28 29 31 38 39 38 38 40 40 42 46 50 51 55 55 56 59 70 71 61 67 95 69 52 51 53 58 58 59 63 66
61 54 47 40 36 34 30 34 35 34 32 30 29 32 34 38 39 38 40 48 52 59 65 62 64 64 64 65 67 67 63 70 85 65 58 52 55 62 62 63 64 66 69
59 51 44 41 34 31 32 34 30 36 36 32 31 35 42 41 38 39 42 47 57 63 65 69 71 69 68 68 65 64 70 81 60 61 57 62 68 68 67 68 70 72 76

GFSMW_925_rhum_009.txt.gz
RH
30 34 34 35 38 44 49 53 52 54 56 59 58 55 53 52 50 47 44 42 41 39 41 40 39 41 41 41 40 38 40 38 37 36 38 38 34 30 37 35 34 38 38
29 32 33 32 34 38 47 52 59 61 56 55 54 52 51 49 49 48 42 39 36 37 36 38 36 36 36 36 36 34 36 33 33 36 37 41 34 31 35 36 37 36 40
29 31 32 35 37 41 46 50 50 51 53 54 54 52 50 46 43 41 41 39 34 30 30 31 29 29 30 30 31 29 33 36 32 32 31 40 40 40 38 34 34 33 32
27 30 32 37 43 48 48 47 48 48 47 45 44 42 40 39 39 38 37 35 34 28 25 24 27 26 26 28 29 26 31 34 32 30 27 31 32 44 43 30 34 29 26
31 33 36 42 47 51 50 47 47 47 45 42 39 37 37 37 36 34 30 27 27 26 25 23 25 25 27 28 30 29 31 35 33 28 32 31 34 34 35 37 32 28 27
33 35 40 45 52 54 50 46 43 42 41 40 39 38 35 33 33 29 25 22 20 22 23 24 23 24 26 27 27 27 29 34 33 32 33 30 32 34 32 33 34 36 38
35 38 41 43 49 51 48 43 41 40 40 38 37 37 35 31 28 24 22 19 18 19 22 24 23 22 23 24 25 26 27 26 30 31 31 30 33 33 32 32 39 44 44
35 38 39 43 48 48 44 42 40 38 36 34 32 31 30 27 23 22 20 18 18 18 20 23 22 21 22 23 23 24 24 24 26 29 30 32 34 32 34 36 43 52 45
36 37 40 44 48 47 44 43 41 38 35 32 28 25 24 23 22 20 19 20 18 17 19 21 21 21 21 22 22 22 24 24 24 26 29 30 31 34 34 39 41 43 51
36 37 39 43 44 45 46 45 42 38 34 28 26 23 20 18 18 18 18 19 19 19 21 20 20 20 20 21 21 22 22 23 23 26 29 30 31 32 35 36 38 39 42
36 38 38 43 44 46 47 44 41 36 31 27 24 22 19 18 18 18 18 18 19 19 20 20 20 20 20 21 22 23 23 23 25 27 29 31 33 34 36 38 40 41 43
35 36 38 45 45 46 44 42 41 35 30 25 21 21 21 20 19 19 19 19 19 20 20 21 22 22 22 24 25 24 24 24 27 30 32 34 35 38 42 42 43 45 46
36 36 39 44 43 43 42 41 39 34 27 23 21 21 22 22 21 21 21 21 21 22 22 23 24 24 26 26 27 25 24 31 34 36 38 39 40 43 44 46 50 51 54
37 37 42 42 41 41 40 38 36 31 27 23 22 23 24 24 24 24 24 24 24 24 26 26 27 28 28 29 28 27 37 41 44 44 43 44 44 44 47 51 55 58 67
38 39 43 42 40 40 38 36 34 30 26 23 23 26 27 26 26 27 26 26 26 28 29 29 30 30 31 28 31 41 48 53 53 49 46 43 44 45 47 48 58 64 72
37 39 43 42 41 40 38 37 33 30 25 23 24 26 26 26 26 28 27 26 28 29 29 30 30 31 30 30 37 45 56 59 57 51 46 44 43 42 45 54 54 58 63
36 41 44 44 43 41 40 38 32 27 24 24 24 25 26 26 26 26 26 26 27 27 29 30 30 30 30 32 39 48 61 62 54 48 45 45 44 48 60 62 58 70 72
41 43 44 47 46 43 41 35 28 26 26 25 24 25 25 25 25 25 25 26 27 28 30 31 30 30 31 33 41 52 62 56 52 47 47 48 54 62 59 61 95 96 80
39 45 49 50 48 44 39 30 29 27 25 24 24 24 24 25 25 25 25 28 29 32 33 31 31 30 30 35 44 59 60 58 52 52 53 57 61 57 77 85 87 56 54
53 55 54 50 47 42 34 31 29 25 22 25 26 26 26 27 25 26 27 31 34 34 31 31 30 28 32 39 50 56 61 60 59 62 68 62 55 71 75 67 55 61 68
55 53 51 48 42 35 32 31 26 23 26 29 27 26 26 25 25 29 34 38 36 35 32 29 29 31 38 44 48 55 59 61 66 77 63 59 62 80 60 52 56 65 68
55 50 46 41 33 32 32 28 25 27 28 28 27 26 26 25 28 35 39 38 36 33 30 30 32 38 42 45 50 54 58 60 71 65 60 72 86 54 51 53 55 58 62
50 47 42 36 34 32 30 27 26 28 28 27 26 25 24 27 30 36 36 36 33 32 33 35 40 46 50 54 54 57 59 64 60 64 72 83 53 52 54 55 56 58 64
50 47 43 40 36 33 31 26 28 29 29 26 25 24 27 32 34 34 34 34 34 38 42 49 56 60 64 62 63 67 76 65 73 87 83 57 52 54 57 60 62 64 66
55 51 47 43 38 35 30 29 30 30 29 26 24 26 30 34 37 35 34 36 39 45 56 62 65 69 67 66 64 66 64 71 85 67 62 58 60 65 66 64 65 67 70
58 54 49 43 39 34 28 29 32 32 30 28 29 31 35 37 36 35 38 38 42 45 49 54 58 62 63 64 66 62 65 76 61 61 61 65 70 70 70 70 72 75 81

GFSMW_925_rhum_012.txt.gz
RH
37 34 36 40 47 50 53 57 58 59 61 66 56 54 51 48 45 42 38 36 36 35 32 34 33 31 35 34 32 32 32 35 34 36 35 31 26 28 24 16 34 28 34
40 37 34 37 46 54 59 60 57 56 57 55 54 52 50 48 43 39 37 32 28 26 25 23 27 25 29 28 28 28 33 35 34 35 37 53 35 28 32 35 31 36 27
41 41 41 40 46 51 52 59 60 56 55 52 51 48 47 43 42 40 36 33 26 20 18 20 23 23 26 28 27 28 30 37 34 32 36 57 55 39 34 33 33 22 28
39 40 44 45 48 49 49 50 50 52 52 50 50 47 41 40 39 36 33 31 27 24 18 22 24 24 26 26 26 28 28 34 38 35 30 32 35 46 48 35 30 28 27
39 44 50 50 52 50 49 48 46 44 42 40 39 39 38 36 34 30 26 23 24 22 20 22 22 24 23 24 24 25 26 28 32 34 34 35 34 31 41 47 38 33 31
42 47 48 52 55 50 46 44 42 42 40 38 38 36 36 34 28 25 22 19 20 20 20 20 21 22 22 23 24 24 24 25 27 28 30 35 37 37 39 43 39 39 36
45 52 58 60 56 51 45 42 41 40 38 38 37 34 31 28 24 21 19 18 18 19 18 20 20 21 22 22 22 23 23 24 25 26 26 29 32 34 39 37 42 44 39
47 52 56 56 55 50 42 41 39 38 36 34 32 30 26 24 22 20 20 18 18 17 18 19 20 20 21 21 21 22 23 23 24 24 25 27 30 32 35 37 46 49 46
48 50 55 54 53 46 42 40 38 35 32 29 26 24 23 21 20 19 18 18 18 18 19 20 20 19 20 20 20 21 23 24 24 24 25 26 31 32 34 36 39 48 56
47 49 52 53 49 46 44 40 37 33 30 27 24 21 19 18 17 18 18 18 18 19 19 20 19 19 20 21 22 23 24 25 24 25 26 29 32 35 36 38 41 43 48
45 48 52 49 47 46 46 41 37 32 28 25 22 20 19 19 18 19 19 18 18 19 20 20 21 21 22 23 24 26 27 26 26 27 32 35 37 38 41 43 46 48 49
44 48 52 49 48 48 45 41 36 31 27 23 22 21 21 20 20 20 20 20 20 20 21 22 22 24 25 26 28 28 29 28 34 38 42 44 45 46 46 48 48 52 52
48 49 54 54 50 48 44 42 37 31 26 22 21 22 23 23 22 23 23 22 22 22 23 25 26 27 28 29 30 31 31 37 43 49 53 54 52 50 49 48 50 51 55
45 48 54 57 48 46 43 41 36 29 25 22 22 24 25 25 24 24 25 25 24 25 27 28 29 29 31 31 32 32 36 44 52 58 59 58 55 50 49 50 50 52 62
46 49 57 56 48 44 41 38 34 29 25 23 24 26 26 26 25 26 26 25 25 27 28 29 29 31 31 33 33 37 43 48 58 62 64 60 51 48 48 48 53 59 59
47 50 54 53 48 42 39 35 32 27 24 24 26 27 26 25 25 26 26 26 26 26 27 28 30 31 32 33 36 40 44 52 61 65 60 56 49 48 51 53 54 57 78
48 52 55 54 45 41 38 35 32 27 24 25 25 25 26 26 25 25 25 25 25 27 28 30 32 33 32 34 37 40 46 56 62 62 58 54 53 56 60 65 76 97 91
49 53 58 51 44 40 38 34 29 26 26 25 24 25 24 24 24 24 25 25 27 29 32 34 34 32 31 33 36 42 51 57 61 61 60 59 61 66 66 79 93 96 71
56 56 51 46 43 41 34 28 27 27 25 24 24 24 24 25 25 25 25 26 31 35 36 34 33 31 30 33 38 47 52 57 60 62 64 70 68 62 62 77 97 68 74
60 58 50 46 43 36 31 29 28 26 24 24 25 25 26 26 26 25 26 32 38 40 38 36 32 30 31 35 44 48 53 57 64 67 81 73 60 59 79 77 62 81 61
56 51 49 47 40 34 31 30 26 24 26 24 26 26 26 25 25 26 31 38 40 38 36 33 33 34 36 44 49 54 57 62 67 95 75 66 64 88 73 57 63 59 68
55 50 45 37 34 32 31 27 25 26 25 27 27 26 25 24 26 30 35 37 37 35 35 36 40 43 52 58 62 61 60 63 85 75 68 72 87 60 57 60 57 63 61
51 44 37 34 33 32 30 26 27 27 27 27 25 25 24 25 31 34 36 36 35 35 38 42 48 59 65 68 68 65 66 71 66 71 78 90 63 58 58 61 60 62 70
51 42 37 36 34 31 28 27 28 27 27 26 25 23 25 32 34 37 37 35 35 39 43 50 58 62 64 66 67 69 76 68 79 86 96 67 60 60 65 67 68 71 73
50 44 42 39 35 35 28 29 29 27 28 26 25 28 32 36 39 39 37 38 41 43 48 51 55 59 61 62 59 61 60 65 81 76 71 63 67 73 72 72 72 74 82
55 53 49 40 37 32 28 30 28 27 28 28 31 34 39 42 42 39 41 43 45 48 49 50 52 54 56 56 58 58 61 71 66 68 67 73 76 77 77 77 84 89 91

GFSMW_925_rhum_015.txt.gz
RH
45 38 40 47 51 55 56 59 63 65 64 64 59 54 46 45 42 39 35 32 30 24 22 21 20 22 26 23 25 20 22 25 32 34 26 24 24 25 17 21 33 22 34
48 48 46 54 59 62 62 62 64 67 65 63 58 54 45 41 36 32 29 25 21 19 18 18 18 19 20 19 25 25 27 33 34 40 44 55 34 26 23 33 17 36 25
49 52 56 57 57 64 60 61 63 61 58 56 51 47 41 39 36 34 30 25 23 18 17 16 16 18 20 18 22 25 27 37 30 29 37 55 59 40 34 24 33 20 30
47 51 58 59 55 56 59 58 54 54 53 52 47 44 44 42 39 35 30 26 23 21 17 18 19 20 19 19 21 22 24 23 31 27 31 34 34 58 52 37 31 34 34
45 53 61 59 56 53 52 54 54 52 49 47 46 42 39 38 34 29 26 23 22 21 18 19 21 21 20 21 21 21 21 21 27 29 28 32 31 36 49 47 43 37 36
50 59 62 58 56 50 47 44 43 44 47 46 40 36 35 32 27 24 22 21 21 20 17 16 17 20 21 21 21 21 20 21 23 24 27 30 34 41 40 40 40 43 37
58 65 68 67 59 49 45 42 40 40 39 38 37 36 32 27 24 21 19 19 19 17 18 18 18 19 19 19 19 19 20 22 23 24 25 24 25 32 34 42 43 42 40
60 66 69 68 58 50 44 41 39 39 37 34 32 29 27 24 22 20 19 19 18 18 18 17 18 17 17 18 20 20 21 23 24 24 24 26 28 30 35 40 46 54 44
61 66 68 65 57 48 44 40 37 35 34 31 28 25 23 21 20 19 19 19 18 18 17 17 17 16 18 20 22 23 24 26 26 26 27 29 30 34 38 41 45 50 65
60 63 65 66 55 46 42 38 35 32 28 26 24 22 20 19 19 21 20 18 17 18 17 17 18 19 21 23 25 26 27 28 29 31 33 36 39 44 45 46 47 50 54
57 62 64 61 52 47 41 37 34 30 27 24 21 20 19 20 21 22 21 19 18 17 18 19 20 22 24 26 28 29 30 31 33 35 41 47 50 53 54 55 54 55 57
55 60 62 60 57 50 42 38 32 28 26 22 22 21 20 22 22 23 21 19 18 19 19 21 23 26 27 29 31 32 32 33 37 43 50 55 59 62 62 59 58 57 55
58 62 62 60 58 54 44 37 32 28 24 22 22 22 23 24 24 23 21 20 20 20 20 24 26 28 29 31 32 33 33 38 43 48 56 60 64 67 64 62 58 56 56
55 61 61 60 59 53 45 39 32 27 23 22 23 24 25 26 24 22 22 21 20 20 24 26 28 28 30 32 33 36 39 42 46 51 57 61 67 66 62 57 55 58 61
56 61 61 61 59 53 47 40 31 26 22 23 24 26 27 26 24 23 22 19 21 24 26 27 28 31 32 34 38 40 42 44 47 53 59 63 64 60 55 56 58 60 66
53 59 59 58 58 53 47 35 28 26 24 25 27 28 26 24 24 22 22 22 23 25 27 30 33 34 34 38 39 42 42 44 51 56 59 63 63 60 59 60 61 65 70
56 60 58 57 55 49 41 33 28 24 24 26 27 26 26 24 23 22 23 24 24 27 32 35 36 34 33 38 40 42 44 48 51 55 59 64 64 67 74 72 68 85 92
56 59 59 57 50 43 37 31 27 25 25 26 26 26 24 22 22 23 24 24 28 34 38 36 36 35 32 39 40 45 50 53 55 58 62 68 73 82 65 64 77 98 87
67 69 58 52 45 39 34 30 27 26 27 25 25 24 23 22 23 24 24 27 34 38 36 35 36 34 36 42 47 52 58 59 60 65 70 80 77 67 57 76 98 95 88
59 55 51 45 39 34 31 28 27 27 26 25 24 23 24 24 24 25 27 32 36 35 36 36 35 37 41 49 58 64 66 66 66 76 90 78 62 57 82 82 78 79 64
58 52 46 40 33 31 30 29 28 26 26 23 24 24 24 25 24 27 32 35 36 36 36 36 37 42 47 59 64 66 66 67 82 93 78 72 68 95 64 61 62 64 75
58 49 45 39 33 32 30 27 26 27 24 26 24 25 25 24 27 33 34 36 37 36 37 40 43 48 56 61 65 64 65 72 77 77 73 81 95 61 60 62 63 64 67
50 43 39 36 35 32 28 28 28 26 26 25 25 24 23 28 34 35 38 38 38 41 44 47 51 58 60 61 64 66 69 67 62 78 84 87 66 62 67 68 66 69 77
46 39 37 37 35 30 29 31 28 26 24 25 24 24 30 38 36 39 39 40 44 46 51 55 58 60 60 61 61 61 63 64 84 94 82 68 62 68 70 72 73 79 89
44 39 39 36 31 28 29 29 27 25 26 25 27 31 36 39 41 41 43 48 49 51 55 56 57 59 60 59 57 59 61 70 80 69 70 66 74 78 76 75 77 83 89
47 45 41 36 36 30 30 29 27 26 26 27 31 36 41 43 44 46 48 48 53 54 54 56 56 58 59 59 60 60 70 70 65 72 70 78 82 82 80 82 89 89 89

GFSMW_925_rhum_018.txt.gz
RH
45 40 40 43 50 53 53 50 46 73 70 64 60 57 49 47 50 42 34 31 28 22 21 19 18 18 17 18 19 15 15 26 23 31 25 20 20 26 18 22 20 25 26
53 53 57 58 60 62 66 69 69 68 65 62 57 55 49 42 36 30 28 23 21 20 19 18 16 17 16 15 18 19 20 27 28 35 51 56 39 28 16 32 17 31 16
55 61 75 69 68 68 70 75 68 66 62 60 56 48 39 32 29 26 23 22 21 20 19 18 17 16 16 16 19 20 21 27 26 35 33 50 57 42 30 21 32 23 32
52 61 75 76 70 68 68 71 67 64 62 60 54 45 38 36 32 28 26 23 22 20 18 18 18 18 18 18 20 21 21 22 31 30 26 32 35 52 55 37 34 32 32
53 65 70 70 66 64 66 65 62 61 57 56 51 39 35 36 35 29 25 23 22 20 18 16 17 19 20 21 21 20 21 22 25 27 32 33 33 31 63 50 41 32 35
55 67 68 68 66 62 59 58 57 55 53 48 40 37 36 36 33 28 24 22 21 19 18 17 18 19 19 19 20 20 21 22 24 25 27 29 37 36 46 42 37 39 38
62 72 73 70 64 58 57 57 54 54 50 45 41 37 36 30 25 23 21 21 20 19 19 18 17 17 18 19 20 21 22 24 25 26 27 27 30 36 38 39 41 44 42
63 69 68 66 61 54 49 49 50 50 46 41 37 33 29 25 22 21 20 20 20 19 18 18 18 17 17 19 21 22 24 26 26 28 29 32 32 34 38 43 50 58 49
68 71 70 64 60 53 47 43 42 40 38 35 31 27 25 24 22 21 21 21 19 19 17 17 16 17 18 22 24 26 28 29 30 32 32 34 37 44 49 50 55 60 72
70 73 67 64 58 51 45 41 39 35 32 29 27 25 23 22 21 22 22 19 19 18 17 16 16 18 22 25 28 29 30 31 33 33 37 42 48 53 57 59 62 63 65
73 72 68 64 59 49 42 38 35 32 28 26 24 22 20 21 23 23 22 20 18 17 16 16 19 23 25 27 30 31 33 35 34 37 44 49 53 59 62 66 68 69 66
68 71 69 66 60 51 43 37 32 28 25 23 21 20 21 22 24 24 22 20 18 17 17 20 23 25 28 30 32 33 34 37 40 43 48 51 57 60 65 69 71 70 68
71 72 71 66 59 54 44 37 31 27 24 22 21 22 23 24 26 24 21 19 17 18 21 24 26 28 30 32 32 35 40 41 43 46 50 54 57 63 68 70 72 69 65
68 72 70 66 60 53 44 35 31 26 24 23 23 24 26 27 25 23 21 19 19 21 23 25 28 31 33 33 36 42 43 44 44 47 50 54 58 64 69 66 63 69 67
70 70 68 66 62 55 45 36 29 24 23 24 25 26 28 27 25 22 20 20 22 23 25 29 33 34 33 36 45 45 46 46 46 49 52 56 61 66 62 63 68 69 80
66 66 65 66 63 56 48 35 28 25 24 24 26 28 28 25 24 22 21 21 22 23 30 35 34 34 33 44 47 48 48 50 52 54 56 59 66 66 66 66 65 65 65
64 66 65 64 60 56 43 34 27 25 25 26 29 28 26 24 23 22 21 21 24 31 35 34 34 34 33 46 49 53 55 57 60 60 61 65 70 78 83 77 65 68 86
63 65 63 63 58 50 40 31 27 26 26 28 28 27 25 23 22 21 22 23 30 35 35 35 35 35 37 50 56 62 65 66 66 67 67 71 84 80 64 66 89 96 86
64 64 62 59 50 44 36 30 27 26 27 28 27 25 24 22 22 22 23 30 34 36 37 36 36 37 43 49 61 66 67 70 69 70 72 85 77 67 68 96 88 80 73
65 61 54 49 44 36 31 28 28 28 28 27 26 24 23 22 22 24 29 34 36 37 36 36 39 43 48 51 63 65 66 70 72 78 94 82 66 69 87 65 67 72 68
53 48 45 42 38 33 31 30 30 29 27 26 24 24 23 23 24 30 34 37 38 38 39 42 46 50 53 56 65 65 65 68 82 93 77 74 81 76 61 62 70 72 76
50 44 42 40 34 32 31 30 29 28 25 25 24 24 24 24 31 34 37 38 39 42 44 50 54 55 57 60 66 65 64 70 65 72 81 95 78 64 64 70 70 73 75
49 43 41 38 33 32 31 29 28 26 26 25 25 23 24 33 36 40 39 40 44 47 52 57 60 61 62 61 62 67 64 62 67 84 81 80 68 67 72 74 73 72 80
46 42 41 38 34 30 29 31 28 27 25 24 24 26 32 42 40 41 42 47 51 54 59 61 64 64 64 63 63 65 64 72 89 80 80 71 68 73 75 76 76 80 84
44 40 39 36 34 31 32 30 28 25 25 24 27 32 39 42 43 44 47 51 53 58 60 60 61 64 66 65 63 62 66 71 70 69 73 71 77 82 80 79 80 82 86
44 42 37 33 32 32 31 29 26 24 23 26 32 41 44 44 46 49 48 45 59 60 60 60 61 64 65 64 64 66 69 69 71 74 75 81 85 86 84 85 88 89 88

GFSMW_925_rhum_021.txt.gz
RH
42 42 40 40 43 46 44 45 56 75 76 70 64 61 58 56 54 53 49 48 31 22 21 21 20 18 15 14 14 12 13 17 20 23 22 19 25 27 24 16 22 13 25
50 49 48 52 55 54 55 52 55 75 71 67 63 62 52 48 41 32 27 24 22 21 22 21 19 16 14 13 14 16 16 18 29 33 49 53 31 30 14 19 16 28 20
52 57 72 68 68 70 68 65 64 72 68 63 58 52 44 35 28 24 22 21 22 22 22 20 18 16 14 16 18 20 20 24 24 35 28 40 51 52 27 21 29 22 29
47 57 82 82 77 75 78 70 68 69 64 59 57 52 42 33 26 23 23 22 22 22 20 20 18 17 17 17 19 20 20 23 29 24 25 30 36 51 55 34 28 33 33
52 65 78 79 76 76 80 71 69 65 59 58 57 51 40 30 27 25 24 23 22 20 19 18 17 17 18 18 18 19 20 22 26 29 33 35 31 33 62 44 47 36 32
54 66 81 78 78 76 76 70 65 61 59 58 55 53 36 31 28 25 24 22 21 20 20 18 17 17 17 17 18 20 21 23 25 26 28 32 38 43 48 51 42 41 36
66 81 83 81 78 76 73 68 64 60 58 55 49 38 32 32 29 26 24 23 21 21 20 18 17 16 16 18 19 21 23 26 27 28 30 31 34 37 40 46 48 48 45
65 73 78 77 74 72 69 66 62 59 53 46 39 36 36 32 28 24 22 22 22 21 19 17 17 16 17 19 22 24 26 28 29 30 32 33 35 41 47 53 59 66 54
66 73 75 72 69 66 62 62 59 54 48 43 40 36 30 25 22 22 22 23 21 20 18 17 17 18 20 23 25 27 29 30 31 34 34 37 42 48 52 55 62 69 80
69 74 72 67 63 60 58 57 55 52 44 38 33 28 25 23 22 22 23 22 20 18 17 17 18 21 24 26 28 30 30 32 34 35 37 42 47 51 55 58 64 71 76
71 74 69 64 61 54 51 50 47 42 35 30 26 24 23 22 23 25 24 22 19 18 17 18 22 23 26 28 30 30 31 36 39 40 43 46 49 53 57 57 65 75 79
75 70 70 66 59 54 47 41 37 33 29 26 24 23 22 23 25 25 23 20 19 18 19 22 23 26 28 30 30 31 38 41 43 45 46 47 49 55 58 62 71 76 75
78 76 71 64 59 54 46 39 33 29 26 23 22 21 23 25 26 25 22 21 19 20 23 23 26 30 31 30 28 40 44 46 46 46 48 49 53 59 62 67 74 78 79
77 76 71 66 60 53 44 36 30 26 23 22 22 23 25 27 26 24 22 20 21 22 23 27 32 32 31 28 39 48 49 49 49 51 53 55 58 62 69 70 68 84 71
80 77 73 69 62 52 43 36 29 24 23 23 24 26 27 27 26 23 21 21 21 22 28 32 30 30 29 33 51 54 54 56 58 60 60 60 66 67 64 64 66 67 76
77 75 70 68 60 51 43 34 29 25 24 25 26 28 28 27 25 22 21 21 20 28 34 32 31 31 31 39 56 59 62 65 66 64 64 64 68 69 68 68 66 67 68
74 74 70 66 60 51 40 33 28 26 25 26 28 29 27 26 23 21 21 20 28 33 33 33 33 32 34 50 57 62 68 67 64 66 66 68 71 79 82 82 72 90 91
72 71 70 67 61 46 38 32 27 26 27 29 30 28 26 24 22 21 20 27 33 34 35 34 34 36 40 55 58 64 68 65 65 66 69 72 81 84 71 81 98 75 71
70 69 68 64 54 44 37 31 29 28 29 31 29 27 25 23 22 22 27 33 35 36 35 36 38 44 48 54 63 67 66 66 68 71 76 88 85 72 72 92 71 71 74
72 70 61 55 48 40 35 30 31 30 30 29 27 25 23 22 22 26 34 36 36 37 37 38 44 49 52 53 66 67 66 69 70 83 84 79 70 69 86 65 70 78 72
61 57 53 48 42 37 33 33 30 30 29 27 26 24 24 22 26 34 36 37 37 38 39 46 50 52 56 58 68 67 66 67 71 66 74 80 81 76 64 65 73 77 88
52 48 45 42 37 34 32 32 31 29 27 26 25 24 23 28 34 36 38 38 40 42 46 56 57 57 59 61 68 67 65 64 63 79 84 87 79 68 67 73 75 75 75
48 46 42 40 35 33 32 31 30 28 27 25 25 23 28 35 38 39 40 41 43 50 57 62 63 64 63 64 67 71 67 64 74 82 73 75 71 70 75 79 76 76 84
47 41 39 38 35 32 31 31 28 28 25 24 23 29 38 39 41 42 42 46 51 58 63 65 66 65 67 69 68 70 68 81 76 77 77 73 71 76 79 80 80 82 84
46 41 40 38 35 32 31 30 29 26 24 23 29 35 39 42 44 46 48 51 54 62 63 63 64 66 70 69 67 67 71 70 73 72 76 76 81 84 83 83 83 84 87
44 42 38 36 36 33 31 29 26 24 22 26 33 43 43 46 48 51 50 48 60 64 63 63 63 66 67 66 69 70 71 72 76 80 80 86 88 88 88 88 90 91 91

GFSMW_925_rhum_024.txt.gz
RH
45 39 34 35 41 42 46 51 70 83 83 84 76 69 69 66 66 64 54 49 34 25 22 23 22 20 18 14 12 12 12 15 16 17 16 16 18 32 23 13 12 19 18
49 47 45 46 46 47 49 52 75 82 79 77 71 69 63 60 55 50 36 27 22 23 24 24 22 19 15 14 14 13 14 17 23 30 42 48 25 19 13 12 18 21 16
53 51 57 56 55 58 58 55 73 80 75 73 66 64 54 46 37 27 24 22 23 24 25 24 21 18 16 15 16 16 16 20 21 30 27 37 41 54 24 18 20 27 23
53 51 60 74 68 62 66 63 66 76 72 67 63 63 50 36 29 24 22 23 24 24 23 22 19 18 16 16 17 18 19 22 27 24 24 28 36 50 54 31 28 33 34
51 54 62 63 68 72 75 73 68 73 69 63 60 54 44 36 25 24 23 23 23 22 22 20 19 17 16 16 17 18 20 22 25 28 31 33 32 36 63 48 46 38 37
56 54 63 76 78 83 82 76 71 70 65 60 56 52 47 30 25 25 24 23 22 22 21 20 18 16 16 16 17 19 21 24 26 28 30 34 38 43 48 56 47 48 42
61 78 90 90 91 90 82 75 71 65 60 57 52 51 43 33 26 25 24 23 23 22 21 18 16 15 16 17 19 21 24 26 28 30 31 32 35 38 44 51 56 56 51
68 77 80 84 88 90 81 74 69 63 58 55 52 47 38 30 27 26 24 23 23 22 20 18 16 16 17 20 22 24 26 29 30 31 34 34 35 41 47 53 62 67 57
76 79 84 83 86 86 80 73 68 63 59 54 47 39 32 29 27 25 23 23 22 20 19 17 16 18 21 23 25 27 28 28 31 34 36 38 39 44 49 52 57 70 77
75 81 86 84 82 80 76 71 66 60 53 45 40 36 32 28 24 23 24 23 21 19 18 16 18 22 24 26 28 28 27 31 35 38 42 43 45 46 50 53 59 64 78
73 83 85 77 73 70 69 65 60 52 46 39 34 28 24 23 23 24 23 22 20 18 17 19 22 23 26 29 29 27 30 37 40 44 46 46 46 48 51 56 60 66 76
77 82 78 71 66 63 59 57 51 45 39 33 28 24 23 23 25 24 23 21 19 18 20 22 22 26 29 29 26 27 36 45 48 48 49 50 52 54 56 59 65 72 78
86 81 73 68 62 57 51 47 43 37 31 27 24 23 24 25 26 25 22 20 19 20 21 22 27 30 27 25 25 40 50 52 52 54 56 57 59 60 61 68 75 76 82
86 80 72 65 58 52 45 40 35 30 27 24 24 24 26 27 26 24 22 20 20 21 22 29 30 28 26 25 36 54 56 59 61 62 63 60 61 67 71 72 69 72 72
82 76 73 65 56 49 41 35 30 27 25 23 24 26 28 27 26 23 21 21 20 23 30 31 29 28 28 29 54 59 61 66 68 63 58 60 68 72 70 68 71 71 74
78 73 68 62 55 47 40 34 29 25 24 24 26 28 28 28 25 23 22 20 23 30 32 30 30 30 30 36 58 61 63 68 67 64 64 66 69 73 74 73 69 69 87
78 74 69 61 54 45 37 34 27 25 25 27 29 29 29 26 24 22 21 22 29 33 33 32 32 32 35 48 61 62 65 68 67 65 67 71 76 79 81 81 82 91 84
77 74 69 63 53 42 36 31 28 27 28 30 31 30 28 25 23 21 21 29 34 34 34 33 35 36 41 55 62 66 67 69 66 66 69 76 81 83 79 81 99 82 74
73 73 68 61 48 40 35 32 31 30 30 32 31 28 26 24 22 21 29 34 36 35 34 36 36 44 46 54 66 68 69 69 68 69 76 81 75 74 74 95 83 75 78
75 74 66 54 46 40 35 32 34 32 33 31 30 27 24 22 21 29 34 36 36 36 36 34 43 49 51 50 69 69 70 71 71 72 68 74 75 71 91 68 72 79 75
70 63 58 51 43 38 34 36 34 33 32 30 27 25 23 21 30 35 37 37 37 37 36 44 48 47 54 58 70 69 70 70 70 69 79 87 76 76 66 67 75 81 89
60 53 48 44 40 37 34 35 34 32 30 27 25 24 24 32 36 37 38 38 38 40 44 54 53 53 59 64 72 70 70 67 68 79 83 78 75 71 71 75 80 78 78
52 48 45 42 38 36 32 35 34 30 28 26 24 25 33 37 39 39 40 42 42 45 57 64 65 65 65 65 69 73 72 68 75 76 75 77 75 72 79 82 80 80 86
47 44 41 40 40 34 33 32 30 28 26 24 27 37 38 39 41 43 44 45 46 52 64 67 68 68 68 71 70 72 70 82 77 81 80 79 74 79 81 83 83 85 87
44 41 41 42 41 34 32 30 28 26 24 26 33 37 40 43 45 47 47 46 49 65 66 66 65 68 72 70 68 69 72 72 74 75 81 79 84 87 86 85 85 86 89
45 44 43 41 37 33 31 29 26 23 22 30 39 42 43 47 48 47 46 46 49 64 65 63 64 67 68 68 73 72 72 73 78 84 84 90 90 91 90 91 91 93 93

GFSMW_925_rhum_027.txt.gz
RH
44 43 39 37 34 34 37 42 50 74 87 94 91 87 84 83 84 81 67 64 55 44 28 23 24 23 21 16 14 14 14 17 14 20 23 20 17 26 36 20 15 22 21
45 44 44 40 36 37 44 49 67 82 89 87 83 82 75 69 66 61 53 49 33 25 24 27 26 22 19 16 15 14 15 21 19 28 35 27 21 20 21 21 20 18 22
41 44 44 47 39 46 51 53 74 84 86 83 80 74 68 60 44 38 34 27 23 24 26 26 24 20 18 16 15 14 14 29 26 25 21 24 24 32 28 22 26 27 30
38 40 43 49 53 45 53 56 74 82 82 80 76 72 62 49 38 35 29 24 24 25 25 25 22 20 17 16 16 16 16 17 32 31 28 28 33 29 28 31 29 36 32
42 44 46 46 48 56 58 64 75 79 77 74 74 71 66 50 36 28 25 24 24 24 24 23 21 18 16 16 16 17 18 20 28 34 36 38 37 40 39 31 29 32 34
46 46 45 48 65 64 71 73 74 77 73 69 70 68 61 42 30 27 25 24 23 23 22 21 19 17 16 15 16 18 21 23 25 28 31 36 32 30 35 34 33 38 36
42 53 63 70 83 88 85 82 76 75 69 64 62 60 52 42 30 26 24 24 23 23 21 19 17 16 15 16 18 20 22 25 27 29 33 35 41 42 42 44 42 42 43
50 58 63 71 78 90 90 81 77 73 66 59 55 50 47 34 30 27 25 25 25 23 20 19 17 16 16 18 20 22 24 26 28 30 33 37 39 43 47 49 51 51 38
53 61 68 74 82 91 87 79 76 70 62 58 53 50 47 37 28 25 25 25 24 22 20 18 17 17 19 20 22 25 26 26 29 33 37 40 44 44 51 56 57 55 56
51 67 74 78 87 90 86 79 73 68 61 57 55 52 40 28 26 24 24 24 23 21 19 17 17 19 21 22 25 26 25 28 34 40 44 47 48 51 54 58 60 61 62
54 64 76 85 90 88 82 74 70 64 57 54 46 35 30 27 24 24 24 24 22 20 18 18 20 21 23 27 26 24 27 35 42 47 51 51 52 57 59 61 64 64 64
70 81 86 80 80 78 71 65 61 55 50 42 35 30 26 24 24 24 24 23 21 19 19 20 21 24 28 26 23 26 38 47 52 54 56 60 60 64 63 64 64 67 69
86 82 77 76 72 69 61 54 48 44 40 34 29 25 24 24 25 24 23 21 20 21 21 21 25 27 26 24 25 40 51 56 60 62 64 66 63 62 63 66 72 72 74
82 78 74 68 62 58 51 44 40 37 32 28 25 25 25 26 26 24 22 21 21 20 22 27 28 27 26 26 34 52 59 62 64 67 65 63 66 68 73 75 77 80 75
84 76 71 62 53 48 43 39 36 33 29 26 26 27 27 27 26 24 22 22 21 23 28 30 29 28 27 30 56 62 62 63 67 68 63 66 72 76 74 71 73 70 75
83 75 67 56 49 44 39 36 34 30 27 28 28 28 28 27 25 24 22 21 24 30 31 31 30 30 30 34 62 64 65 66 70 69 66 69 68 74 75 73 72 72 76
79 71 62 55 48 41 38 36 33 29 28 29 30 30 29 26 25 23 21 25 30 33 33 32 32 32 33 46 64 64 68 70 70 69 69 70 73 77 82 81 83 84 97
76 68 59 51 44 38 36 33 32 31 30 32 32 30 28 26 24 22 24 30 34 34 34 34 33 34 37 46 65 69 71 71 71 70 71 75 78 80 80 74 98 92 70
72 65 58 49 42 38 35 34 34 33 33 34 32 30 27 25 22 23 31 35 35 35 35 34 36 39 42 46 69 71 71 71 71 71 74 76 72 73 67 89 83 69 70
73 65 55 46 41 39 35 35 38 37 37 34 31 28 25 22 22 30 35 36 36 36 35 34 42 46 46 47 71 70 69 72 71 72 69 73 76 70 84 74 72 76 69
67 58 51 44 41 38 35 38 38 39 34 31 28 25 22 22 30 35 36 37 38 36 34 40 42 46 54 55 72 72 70 72 72 68 71 73 73 81 69 69 72 78 90
61 53 47 43 40 37 35 38 40 36 31 27 25 23 25 31 35 37 39 40 38 36 40 49 48 51 54 61 71 73 72 70 70 74 73 75 78 72 72 75 81 80 81
52 48 45 43 41 37 35 40 38 30 28 25 25 29 33 37 39 40 42 42 40 42 57 65 67 64 64 62 69 76 74 69 74 74 74 77 78 72 77 81 82 83 81
48 45 43 42 42 37 36 34 31 28 26 26 30 35 37 41 43 44 45 45 47 54 66 68 66 69 69 72 73 74 72 77 76 78 84 80 74 79 82 80 78 80 81
46 44 43 43 43 37 33 30 28 27 26 31 39 43 44 44 45 46 47 50 52 64 65 68 67 68 67 68 70 72 72 74 74 75 80 72 76 78 78 79 81 82 84
45 44 43 42 39 33 31 29 27 26 25 33 40 43 44 46 47 48 45 44 44 58 64 63 65 66 70 71 75 74 74 75 78 80 76 80 82 82 83 86 88 89 91

GFSMW_925_rhum_030.txt.gz
RH
26 30 31 32 34 33 34 35 39 48 58 67 71 87 82 86 81 89 88 86 72 63 66 35 29 29 28 26 24 25 27 28 27 23 20 24 26 29 33 31 24 29 28
22 23 28 30 32 33 34 36 43 53 63 68 71 76 84 86 81 84 78 69 64 70 42 32 30 28 27 26 26 26 27 28 29 22 26 21 18 21 26 25 26 20 25
21 20 21 26 30 33 35 40 47 61 69 68 76 82 77 76 72 68 63 63 64 31 26 28 30 30 29 30 29 30 27 25 31 28 17 19 21 20 20 23 22 24 22
23 22 21 21 25 30 38 46 55 66 72 77 74 72 72 67 62 58 55 45 29 36 26 29 30 30 29 30 29 29 28 25 26 29 26 25 23 22 22 21 22 23 25
19 21 24 24 24 30 43 55 62 68 73 74 70 72 73 66 57 55 46 36 31 31 29 30 29 29 29 29 29 30 28 28 24 27 28 26 28 26 26 27 21 22 24
21 23 23 27 28 34 55 61 65 68 71 72 71 73 72 58 53 42 37 31 33 34 32 30 31 30 29 30 30 31 32 30 30 29 30 26 24 21 23 23 24 26 26
21 21 26 32 36 37 61 66 65 67 70 71 72 76 69 63 46 39 34 31 31 31 32 30 29 30 29 29 31 32 33 33 32 34 29 29 30 29 29 30 31 30 30
34 25 24 30 38 48 59 65 64 65 67 69 72 71 67 51 39 35 32 31 30 30 30 28 28 28 28 29 31 32 33 35 34 38 36 34 33 34 34 36 39 38 30
42 36 29 32 38 49 59 64 63 64 65 65 59 51 50 43 37 35 31 30 30 29 28 28 27 28 29 30 30 29 31 33 34 36 39 40 38 39 40 42 43 43 44
45 42 34 35 44 50 60 64 63 62 62 58 51 47 46 44 41 29 31 31 28 27 28 28 28 29 29 30 32 32 33 32 33 36 40 41 40 42 43 44 45 45 45
53 49 39 43 52 58 66 67 64 61 58 53 48 46 46 44 35 31 30 28 27 28 27 27 28 28 29 31 30 30 32 34 38 42 44 46 46 46 44 44 45 46 46
60 59 53 54 62 67 69 65 62 57 54 49 46 45 42 32 29 29 28 27 27 27 27 27 27 29 32 30 28 29 36 40 42 45 48 47 47 47 45 45 47 48 51
60 61 64 63 63 66 65 62 57 51 47 44 40 34 30 28 27 28 27 27 27 28 28 29 30 31 32 30 29 35 40 45 48 50 52 52 48 47 48 51 54 56 55
64 64 66 63 63 63 60 55 49 48 40 35 31 30 28 28 28 28 28 29 28 29 30 31 33 33 32 32 36 43 48 49 50 54 56 55 52 52 56 58 58 54 59
66 71 65 61 59 58 50 46 42 37 33 32 31 30 30 30 31 30 30 29 30 32 33 34 35 35 34 31 47 50 50 51 50 51 52 51 56 69 73 69 63 61 65
59 72 62 58 56 50 43 39 35 34 36 34 34 33 33 33 33 32 31 33 35 36 36 36 38 41 34 30 64 64 53 51 51 49 49 51 56 58 66 66 68 75 87
61 69 60 55 51 43 38 36 38 39 39 35 34 35 34 34 33 31 32 35 36 37 37 37 37 36 38 36 66 66 58 54 52 53 54 54 55 61 61 64 68 78 82
62 64 54 50 45 43 38 40 37 36 35 36 35 34 33 32 30 30 33 35 36 37 36 37 37 38 40 34 66 69 57 54 53 55 56 58 60 59 64 65 87 88 62
62 55 51 42 40 38 34 33 34 34 35 34 35 33 32 29 28 31 33 37 38 38 38 37 40 40 40 43 68 70 55 50 52 55 56 59 60 62 66 86 91 58 56
56 50 46 42 38 35 33 33 32 34 34 34 32 31 28 27 30 34 38 40 38 38 37 38 42 43 42 52 69 70 57 53 53 53 54 55 62 64 72 73 64 64 55
54 46 41 37 35 33 32 32 32 34 35 34 31 29 29 30 35 40 41 41 39 38 37 40 40 44 47 50 65 71 67 59 58 56 54 54 59 69 69 70 67 64 79
53 45 41 38 35 33 32 32 36 36 34 31 30 31 34 38 43 45 45 43 41 38 37 39 36 40 44 52 59 71 74 70 63 60 58 61 71 72 72 72 72 78 80
48 43 40 37 34 33 34 36 36 34 32 31 34 37 40 43 46 45 47 41 42 38 39 38 38 39 43 46 57 67 67 64 66 66 68 70 70 71 67 67 79 79 68
45 42 39 37 36 35 36 36 34 32 32 34 36 38 40 42 44 44 48 44 41 39 42 42 42 43 45 46 52 60 61 61 65 68 69 66 66 62 66 64 65 67 70
43 40 38 38 37 36 35 34 32 32 33 35 38 43 44 43 45 47 49 48 49 58 49 47 48 48 48 51 69 72 69 70 70 74 65 58 57 61 61 64 68 70 74
42 41 40 37 36 34 34 33 33 34 35 37 38 41 43 46 46 46 43 43 40 45 50 60 62 58 62 68 76 76 74 75 76 74 62 60 65 67 68 74 78 82 86

GFSMW_925_rhum_033.txt.gz
RH
21 22 24 26 22 22 25 26 26 30 36 43 52 57 67 72 80 81 83 78 69 66 64 58 36 31 30 29 27 28 31 32 28 25 24 24 26 26 28 31 27 23 30
19 19 21 23 26 25 26 27 27 30 38 45 54 58 77 86 85 85 81 68 64 65 60 47 34 31 31 30 29 30 32 32 30 25 26 30 22 22 28 22 24 21 22
18 16 16 19 24 26 26 28 28 32 41 48 56 69 83 85 86 83 75 70 67 62 57 34 32 33 34 34 34 33 30 29 32 29 20 27 30 22 18 22 23 23 22
18 18 17 16 18 24 27 30 30 35 46 54 63 73 80 77 78 80 72 71 63 56 39 34 32 35 36 36 34 32 30 27 30 30 25 26 24 26 28 20 22 21 22
16 16 18 20 19 19 28 34 36 40 53 61 63 75 68 71 78 78 70 64 49 36 34 38 33 34 34 32 31 32 30 28 24 26 29 23 27 26 28 33 25 22 22
15 16 17 17 19 22 25 36 41 46 56 63 69 67 65 69 69 68 60 48 42 38 34 33 34 34 35 35 33 32 33 30 29 29 28 26 24 22 23 26 26 27 27
23 25 21 18 22 24 27 39 48 52 59 68 64 64 70 63 67 58 51 49 43 36 34 34 34 34 35 34 33 34 35 33 32 34 31 27 28 28 28 28 32 34 33
27 31 32 24 21 30 31 40 51 54 60 63 64 66 68 67 58 57 54 47 44 37 34 32 31 33 32 32 33 35 33 34 35 38 39 36 33 32 32 34 38 44 39
34 34 35 31 20 25 35 43 52 54 58 63 65 70 68 62 50 48 47 38 34 33 31 31 30 29 30 30 30 28 30 32 32 35 37 39 36 36 38 39 41 44 51
35 38 37 33 25 27 34 47 51 54 58 62 68 68 59 44 44 41 35 32 32 30 30 29 30 30 29 30 30 31 31 31 31 33 36 39 39 39 40 41 41 42 45
39 40 43 35 30 33 38 48 52 55 58 62 56 51 49 48 44 40 38 34 30 30 30 29 29 28 28 29 29 28 29 32 34 38 40 41 43 43 43 42 42 44 45
40 43 49 44 43 44 49 53 55 56 58 52 49 48 46 43 41 39 34 29 30 29 28 27 26 27 28 27 26 26 29 35 37 40 42 43 42 45 44 43 44 46 47
42 45 50 52 51 54 57 57 56 55 51 48 47 44 40 38 35 34 32 29 28 28 27 27 28 28 30 28 27 30 33 38 41 43 44 47 48 47 45 47 51 54 55
38 52 56 54 52 56 57 56 53 51 48 45 41 40 37 34 32 30 29 29 28 28 29 29 30 31 31 31 32 39 43 45 44 44 46 48 50 48 50 58 63 59 60
43 59 58 56 58 57 56 50 47 46 43 40 38 32 30 30 31 30 30 29 30 30 31 31 33 34 32 29 41 48 48 46 44 45 45 44 45 55 60 63 66 67 67
39 59 60 56 58 54 49 48 46 40 37 34 33 32 31 33 32 31 31 33 36 33 33 34 38 42 30 32 34 64 56 49 46 46 44 46 48 48 54 60 60 62 65
54 61 60 56 54 46 44 38 39 42 42 40 39 40 42 41 42 34 35 35 34 35 36 35 35 34 35 34 42 66 61 54 49 48 48 50 49 54 56 57 59 64 73
66 62 56 53 45 39 38 45 51 51 51 48 49 45 35 34 33 33 35 34 35 36 34 36 35 36 38 36 39 67 62 48 47 47 49 51 52 54 56 63 69 82 82
58 54 50 44 40 43 47 50 52 54 54 63 70 51 37 32 32 33 33 34 36 36 36 35 36 36 35 38 44 68 58 47 45 46 48 50 54 54 60 63 73 72 66
51 45 43 38 42 48 53 57 57 59 62 50 34 30 29 30 32 34 36 36 36 37 35 36 37 36 39 39 55 68 59 52 51 52 53 51 52 57 61 67 71 71 67
52 48 50 52 68 77 80 76 64 58 48 33 29 29 30 32 36 38 39 38 36 35 35 36 34 35 38 45 54 64 68 63 64 64 56 55 56 64 67 67 71 70 69
43 44 43 40 39 38 33 32 34 34 32 30 30 32 34 37 40 40 40 39 37 35 34 34 30 32 35 40 47 60 69 68 65 61 61 63 66 67 67 69 67 70 75
43 38 35 33 32 33 34 35 34 32 32 33 34 37 41 45 47 46 46 38 38 34 33 32 33 35 37 39 44 50 58 62 62 63 66 68 67 65 63 61 66 66 65
42 37 34 32 34 36 36 34 32 32 33 35 36 38 39 40 41 43 44 40 37 33 34 34 36 39 40 41 46 60 66 65 67 72 73 70 63 55 56 58 59 64 68
40 37 35 36 36 35 34 32 32 33 34 35 36 39 41 39 41 42 44 43 42 44 49 46 48 46 48 50 66 72 74 74 75 71 75 64 54 59 61 62 67 71 76
40 39 37 35 34 33 32 32 33 34 35 37 37 37 40 40 41 41 40 41 34 29 37 52 62 60 61 66 75 77 75 74 75 76 67 59 66 68 69 73 79 84 88

GFSMW_925_rhum_036.txt.gz
RH
26 22 21 23 21 19 19 25 26 28 32 41 54 60 61 65 63 65 68 70 72 74 66 60 48 42 34 28 27 29 31 28 22 24 24 25 25 25 29 29 30 25 26
26 24 22 23 24 25 24 21 27 29 30 33 43 56 65 77 64 74 77 78 77 68 62 57 43 34 30 28 27 29 30 31 24 23 27 42 30 24 23 30 24 22 20
24 24 23 22 24 25 26 26 25 28 33 35 42 62 73 84 85 84 84 81 73 66 60 43 36 33 29 29 30 29 29 31 30 22 24 38 42 29 21 24 23 23 22
23 22 22 21 20 24 26 26 27 27 30 36 50 67 80 89 86 83 76 65 65 62 50 43 40 33 32 31 32 30 25 27 29 30 26 23 25 38 42 23 21 20 23
23 23 25 21 18 18 25 26 26 29 32 38 55 74 82 82 85 84 76 72 68 60 46 43 34 34 34 34 29 28 26 23 25 26 28 25 26 27 36 48 33 23 23
22 24 23 21 21 19 19 21 33 30 36 46 61 77 81 79 84 84 75 68 65 48 40 37 36 37 36 30 31 30 27 25 23 25 27 27 27 28 29 39 35 35 30
23 29 34 40 32 21 21 22 27 37 38 56 65 76 73 74 78 81 73 66 54 45 41 42 35 33 33 32 29 29 27 27 29 31 30 29 28 28 29 32 41 47 39
29 39 41 45 40 32 23 25 29 44 50 64 72 73 71 73 76 76 69 59 51 44 38 37 34 34 33 30 30 30 30 29 30 34 34 35 35 34 33 36 43 54 52
42 39 43 44 40 35 29 29 34 47 56 69 68 68 71 71 70 63 60 57 49 43 37 35 34 33 30 30 30 29 29 28 32 33 35 36 37 36 37 39 41 48 60
38 43 45 47 44 36 27 32 39 51 60 67 68 70 68 65 62 60 57 52 48 38 33 32 30 29 29 29 27 27 29 28 30 32 34 36 40 41 41 42 42 43 49
46 45 48 50 52 40 33 37 47 54 61 66 71 70 63 56 53 48 43 41 35 33 31 29 30 29 29 28 28 28 29 29 32 35 38 40 42 43 43 44 45 44 45
41 45 50 54 54 49 43 47 51 57 66 66 60 56 47 46 45 40 39 34 33 31 30 30 29 28 28 27 26 27 26 32 36 38 40 42 44 45 46 47 45 48 50
41 51 56 60 61 59 56 52 58 64 55 55 52 49 46 44 40 37 37 35 35 32 28 27 27 28 27 26 26 27 31 35 39 42 43 44 48 49 50 50 52 58 62
34 60 61 63 61 60 69 62 58 51 51 50 48 46 45 39 37 36 36 35 35 28 27 27 28 28 28 28 28 37 41 44 46 45 45 45 46 47 48 53 58 64 67
34 66 64 66 62 64 63 54 52 48 46 46 43 41 36 36 35 35 32 30 29 30 29 29 28 28 30 30 32 34 42 47 47 45 45 46 44 50 53 55 57 62 64
41 70 63 60 69 60 50 48 46 44 44 41 37 36 36 39 40 40 41 47 37 30 30 32 32 31 28 30 26 38 41 43 50 49 49 47 48 49 53 57 60 60 62
71 66 63 62 50 49 47 43 41 40 37 36 36 39 42 41 41 43 42 34 34 34 34 34 33 34 34 34 27 48 48 44 51 50 48 48 50 53 53 56 59 62 67
71 67 62 49 45 40 42 43 44 43 44 48 51 53 55 61 62 49 52 57 41 34 34 33 33 34 36 35 36 41 44 53 51 47 46 48 49 52 56 57 62 64 71
64 58 47 41 40 46 49 55 59 67 72 84 80 74 77 80 78 58 40 36 36 34 34 34 34 35 35 38 37 60 58 58 53 52 53 55 56 54 57 61 64 73 77
47 42 43 45 52 55 64 67 69 81 90 94 92 89 87 72 42 35 35 36 36 36 34 34 35 36 34 38 51 64 66 67 66 65 66 63 59 60 61 64 71 80 76
43 44 51 59 63 76 78 84 86 90 90 87 78 59 39 35 35 35 35 34 34 33 34 35 34 34 35 38 47 55 62 69 72 70 66 63 64 65 67 67 68 72 68
88 86 88 93 97 93 92 96 97 94 82 60 44 38 37 37 36 36 36 35 35 35 34 33 31 32 35 38 42 49 55 61 65 65 65 67 72 69 68 67 64 66 68
79 94 96 99 100 93 85 76 55 35 34 34 36 37 39 41 39 37 37 37 36 34 34 33 35 37 39 40 44 56 62 68 69 68 71 73 73 73 65 59 63 64 64
36 35 37 37 38 36 35 35 34 36 37 40 42 43 43 43 42 40 39 37 36 34 38 40 44 44 45 47 50 63 73 76 74 75 77 79 73 63 62 65 65 68 74
39 38 39 38 37 35 35 35 35 36 38 38 39 41 40 39 40 42 42 41 43 36 33 46 46 54 58 58 67 75 78 76 75 73 78 72 65 72 74 74 75 80 85
41 40 38 36 35 35 35 35 35 35 38 39 39 39 40 41 42 41 39 38 36 33 32 34 47 57 63 70 75 79 76 74 76 74 68 70 77 80 81 82 85 90 93

GFSMW_925_rhum_039.txt.gz
RH
29 26 24 22 20 18 18 20 29 55 61 69 75 74 72 68 63 63 63 63 62 64 66 67 63 53 47 41 28 27 29 27 25 25 24 28 26 26 27 28 29 29 25
31 30 26 23 24 23 23 22 27 46 56 64 69 75 71 69 66 65 64 63 65 66 69 68 59 47 39 31 27 28 30 30 24 23 31 40 30 24 24 28 31 24 22
28 30 30 25 22 23 24 24 26 27 51 56 64 69 77 82 84 81 67 69 69 71 73 67 56 44 37 29 27 29 30 32 27 21 24 39 40 33 24 30 26 24 23
29 30 30 27 23 21 20 23 24 26 30 35 45 58 73 89 87 81 73 74 74 75 73 61 44 39 31 28 29 30 30 29 30 26 23 20 22 34 30 25 24 22 24
29 27 29 25 21 19 18 20 25 23 26 32 38 45 81 82 82 86 82 78 75 73 68 44 40 37 36 34 32 30 27 28 28 28 27 26 26 27 38 44 34 24 22
27 26 25 29 30 26 23 21 20 28 31 29 45 56 76 82 90 87 82 79 77 72 50 39 42 45 35 34 34 29 26 25 24 23 23 23 26 30 31 42 41 37 30
28 35 42 47 43 40 37 33 26 23 25 37 52 71 70 77 84 85 79 74 68 56 50 43 44 41 38 37 33 30 27 24 24 25 27 28 27 28 30 33 42 49 39
40 44 46 48 42 39 38 40 36 27 23 50 67 72 76 83 87 86 81 75 69 55 47 45 45 46 40 35 30 28 28 26 24 26 29 30 31 33 34 35 42 61 55
49 47 46 46 43 42 46 47 38 33 27 64 78 80 81 82 84 86 84 77 69 57 47 45 45 40 36 32 30 29 28 26 28 30 32 33 35 37 38 40 42 49 68
46 49 50 49 45 43 49 48 35 36 44 76 79 81 81 80 81 80 75 70 63 52 45 43 42 40 34 31 30 29 28 27 29 31 32 33 37 40 41 42 43 45 52
51 51 50 50 48 44 50 54 43 43 71 83 79 77 77 75 74 72 68 63 51 47 45 46 42 36 33 29 28 28 29 27 29 32 36 38 41 42 43 44 46 46 47
48 53 57 55 54 52 54 61 51 67 82 76 75 75 74 70 67 64 59 53 45 45 43 38 32 30 28 28 28 27 25 28 33 36 38 41 43 45 46 48 49 49 52
44 59 63 60 63 60 69 70 77 75 72 71 67 61 60 58 55 48 46 46 44 38 36 37 35 34 29 27 26 26 28 32 37 41 43 44 45 47 47 50 50 52 55
40 65 69 64 63 72 67 65 62 63 65 59 56 51 50 46 43 43 43 41 43 39 34 30 28 30 30 27 27 31 37 42 45 46 45 46 46 46 47 50 54 57 61
48 72 73 71 76 72 63 62 66 61 58 58 54 52 44 41 41 41 40 37 32 33 38 56 70 41 33 34 34 34 37 36 37 40 43 47 48 53 55 56 57 60 63
75 72 71 81 67 61 60 57 58 57 54 57 47 45 40 40 42 43 40 37 37 37 36 44 52 42 31 31 29 30 29 28 31 41 47 48 49 49 55 57 57 61 62
76 71 71 61 55 52 51 57 52 50 49 46 42 44 47 51 53 45 45 58 70 73 63 52 47 42 35 35 33 40 28 31 42 48 49 47 48 52 51 54 60 59 64
86 74 60 53 47 46 48 45 45 46 47 47 53 58 63 68 68 76 82 75 61 64 67 45 37 36 45 39 38 48 35 36 44 50 55 56 59 59 62 60 62 66 64
65 53 46 46 50 50 51 57 65 67 64 74 81 77 74 89 94 79 77 89 88 63 41 35 36 36 41 37 42 45 48 50 49 56 59 65 67 64 65 65 65 69 77
45 47 51 56 59 65 70 75 77 80 88 91 94 89 90 93 97 96 78 56 36 35 35 35 35 35 34 42 47 56 58 58 61 66 67 66 68 66 67 69 73 77 74
54 59 64 66 75 79 82 90 94 99 100 100 99 100 97 89 60 43 37 35 34 33 34 35 35 34 35 38 45 50 54 57 65 69 68 68 71 72 72 70 70 69 65
80 80 79 90 95 92 94 99 100 100 100 96 92 73 59 44 39 36 35 34 34 35 35 32 33 36 37 40 45 51 59 64 71 73 72 71 80 76 74 70 67 66 71
96 98 97 100 100 100 100 100 100 95 93 78 58 51 42 38 36 35 35 36 34 35 35 36 39 41 42 42 46 62 68 77 76 76 78 82 83 76 70 69 71 72 69
73 84 80 81 90 94 96 94 87 56 45 45 45 42 41 41 40 38 38 37 35 36 39 41 44 41 41 45 60 73 78 77 78 77 87 82 72 71 74 74 74 76 81
40 40 40 39 38 38 39 38 38 37 41 43 43 44 42 39 40 40 39 37 36 27 29 38 39 50 59 67 74 76 76 76 80 76 72 68 74 80 83 82 82 83 88
42 41 39 38 38 38 38 37 36 35 38 41 40 39 40 41 40 41 45 46 39 39 39 42 52 50 57 64 70 74 74 78 76 74 75 81 84 87 87 88 89 93 98

GFSMW_925_rhum_042.txt.gz
RH
32 31 28 26 25 23 21 22 24 52 74 85 89 88 85 78 73 71 72 65 63 57 55 62 65 61 58 53 41 31 25 27 27 26 27 30 27 29 29 27 28 28 28
33 34 28 25 25 25 23 21 23 26 65 81 66 77 81 83 74 71 72 65 63 59 63 63 64 63 56 44 40 31 29 29 26 26 32 37 30 26 26 29 31 30 26
30 28 35 28 25 24 23 24 26 25 38 72 77 75 84 86 88 81 79 68 64 67 66 65 66 63 54 47 39 28 29 32 26 24 28 45 42 33 24 28 33 26 24
31 30 29 31 25 22 22 21 22 28 28 54 74 75 67 85 84 77 78 71 67 69 71 70 68 63 54 46 36 28 30 32 30 24 22 21 22 32 27 26 29 24 24
37 35 35 30 25 24 23 22 21 20 26 33 64 76 71 72 64 82 82 78 79 76 77 74 68 59 50 42 34 32 34 32 32 30 26 24 25 25 34 35 32 26 24
29 32 28 34 38 37 35 30 24 24 28 30 40 56 79 81 79 90 92 88 85 83 82 77 66 52 43 38 33 34 34 31 30 28 25 22 26 31 34 43 40 38 28
28 38 44 49 41 38 36 35 36 34 29 31 40 48 76 76 75 80 89 87 83 80 76 68 55 49 41 36 37 34 30 29 27 24 23 23 24 25 28 32 40 46 40
36 50 49 50 44 38 32 34 37 40 36 31 28 50 62 73 82 81 83 83 83 77 74 61 52 45 44 39 41 36 34 27 26 26 25 26 28 30 31 33 39 56 57
42 47 48 48 45 40 37 38 42 43 39 34 32 54 74 80 78 80 84 86 83 79 68 55 49 50 45 41 42 36 33 28 26 28 28 30 32 34 36 38 40 47 63
52 54 56 48 42 41 35 37 47 51 45 39 52 70 83 83 78 83 86 86 81 75 65 56 49 47 46 42 37 36 32 31 29 29 30 31 33 37 40 41 42 46 52
48 41 52 49 46 42 38 39 44 53 52 61 72 82 89 92 93 90 86 84 78 71 63 52 47 48 40 37 37 36 31 28 29 30 32 35 38 40 42 43 44 47 49
55 52 47 55 54 48 48 49 54 57 64 82 84 90 93 95 94 90 87 84 74 64 54 48 46 43 42 43 42 49 42 28 30 33 36 37 40 42 44 46 47 49 49
65 58 52 59 59 60 63 69 71 80 88 89 89 90 89 89 84 78 72 64 59 52 48 45 44 49 49 36 32 33 31 31 33 38 41 43 44 46 47 47 49 49 52
71 58 59 67 71 81 69 70 71 77 77 80 82 81 80 76 71 63 52 47 46 46 46 45 44 44 61 69 56 44 48 60 60 50 47 46 47 47 47 49 54 57 60
77 79 76 83 84 72 67 66 63 64 66 67 64 56 50 51 48 48 47 46 47 46 50 51 47 42 41 46 53 76 78 58 44 37 38 44 49 52 59 57 58 60 60
78 73 79 79 74 69 62 66 71 76 74 66 64 60 64 66 53 51 55 52 55 61 61 65 74 72 74 73 75 52 41 30 28 39 43 46 47 48 58 61 59 58 62
74 78 72 63 61 58 60 63 65 63 62 60 62 61 61 64 67 62 58 60 63 71 76 80 83 79 84 85 68 52 37 31 38 45 48 51 54 56 56 57 64 63 68
67 84 64 55 52 55 55 66 76 81 81 82 78 80 72 78 74 66 68 78 84 89 92 92 89 67 55 58 56 47 36 38 42 49 56 59 63 63 69 68 67 67 68
49 54 54 52 54 59 64 64 73 79 84 87 84 79 64 68 76 88 95 94 92 93 94 80 66 54 53 46 42 43 48 51 51 58 65 72 72 70 70 67 71 81 83
54 57 60 67 72 73 70 72 76 78 85 89 88 86 91 97 99 100 99 100 97 83 50 40 37 35 34 44 54 57 56 54 58 67 68 68 73 72 70 73 76 76 74
66 71 76 80 90 80 77 87 97 100 100 100 100 100 100 96 95 95 91 74 52 40 37 36 37 37 36 40 49 50 54 61 72 72 70 68 75 79 78 72 72 72 68
82 87 92 95 96 95 96 100 100 100 100 100 100 99 98 95 80 57 40 36 35 36 36 35 37 38 41 52 59 72 67 72 77 77 74 76 91 83 76 73 74 72 76
92 96 99 100 100 95 95 100 100 98 98 99 86 61 50 44 38 35 36 36 36 35 36 37 41 44 42 40 40 68 77 80 78 79 83 91 84 79 75 75 77 81 72
92 93 95 98 100 99 98 95 97 92 73 57 54 46 40 38 37 36 36 35 36 38 40 41 40 40 42 50 72 76 75 73 78 88 85 79 75 72 75 75 74 77 84
58 55 57 61 70 78 90 90 77 52 48 45 42 41 42 40 41 41 40 34 31 28 32 37 41 48 53 65 70 73 74 74 86 80 71 66 72 76 77 80 82 86 92
44 42 42 42 43 43 43 43 43 42 40 45 46 44 42 42 42 44 54 54 53 46 48 53 54 52 58 66 74 77 76 85 77 76 78 81 82 86 88 91 92 94 98

GFSMW_925_rhum_045.txt.gz
RH
34 32 29 27 29 27 28 27 26 28 66 90 100 100 100 96 90 84 76 70 69 64 65 66 62 66 72 64 48 38 38 29 27 27 29 30 29 31 29 28 30 30 29
36 35 30 26 25 25 24 26 27 28 51 78 87 91 92 90 76 80 80 75 73 73 68 67 60 63 69 58 45 43 35 27 28 29 33 42 33 30 31 31 30 30 31
31 29 33 30 25 26 24 24 24 26 38 67 82 91 88 88 98 92 86 79 75 76 71 66 59 64 67 58 50 44 41 30 28 28 33 50 47 36 26 28 33 32 27
37 35 33 32 29 26 24 24 24 26 29 57 89 90 90 91 93 79 71 77 78 77 74 71 62 64 66 59 52 47 40 30 30 27 26 26 28 38 30 28 33 28 26
34 36 38 33 27 26 24 23 23 24 26 33 77 86 89 82 78 83 76 80 83 82 77 75 73 70 66 60 57 48 37 32 33 30 26 25 24 24 32 34 33 30 27
34 34 31 33 38 34 30 27 25 23 22 23 34 73 86 85 80 87 91 81 88 86 81 80 80 74 67 64 57 48 36 33 36 32 30 26 27 31 32 40 40 36 26
33 41 53 53 46 41 37 34 34 33 34 34 31 37 58 86 77 74 88 93 92 91 82 84 85 81 72 65 54 43 34 38 36 37 29 25 24 23 26 29 40 42 37
47 56 57 54 49 42 36 36 37 35 32 34 37 39 40 59 77 79 79 76 79 90 86 88 87 81 71 60 48 41 38 38 32 35 33 27 24 24 25 27 35 52 56
50 49 51 46 43 42 39 35 31 31 31 35 38 37 40 55 62 63 78 82 87 85 86 87 86 79 63 50 44 39 35 36 36 30 28 26 28 29 32 33 34 40 55
48 50 48 45 41 42 42 42 39 37 35 38 42 42 43 55 62 70 86 89 87 89 88 85 79 65 55 47 42 38 36 34 36 34 33 31 32 34 36 38 40 43 47
66 62 57 52 49 47 44 46 46 50 43 45 50 52 67 87 83 88 93 92 91 88 84 78 68 58 52 45 42 41 39 36 38 36 34 33 34 38 39 41 43 45 49
64 69 68 62 58 54 54 52 67 66 61 60 71 79 86 95 100 97 96 93 89 84 79 69 60 55 48 45 41 40 39 46 60 64 54 41 40 41 43 49 48 47 49
69 72 74 69 62 67 74 73 71 74 79 93 96 98 100 100 100 98 94 87 80 73 65 57 53 50 44 44 47 54 51 46 48 53 47 49 60 72 65 50 48 49 50
70 70 82 81 79 79 72 68 66 72 78 89 96 98 99 97 94 89 86 79 70 61 54 54 54 50 52 55 55 52 50 52 68 80 74 72 84 63 48 48 51 56 59
72 74 78 90 87 72 69 72 75 71 74 77 78 77 82 81 72 67 66 63 60 57 51 50 50 47 51 65 78 86 91 94 89 82 66 54 46 49 63 65 59 60 63
62 58 74 71 72 69 68 72 72 76 74 74 76 67 63 62 64 63 64 66 65 58 51 60 67 69 67 80 88 90 76 80 60 51 43 42 44 47 51 63 68 65 65
54 64 72 62 63 64 68 74 71 67 70 71 77 79 83 86 82 74 71 72 70 66 68 71 78 91 98 96 94 93 93 72 43 41 43 48 53 54 53 58 70 71 72
53 62 59 60 59 64 74 79 83 86 85 84 85 90 92 94 93 90 85 84 80 83 88 92 95 98 99 93 91 54 41 40 41 43 51 61 66 63 73 73 70 69 75
54 55 60 60 63 63 74 85 94 96 94 100 100 96 94 90 95 99 98 98 95 98 98 100 97 92 98 86 78 41 46 48 53 60 66 70 71 69 73 71 74 84 78
62 68 73 72 70 72 75 79 84 89 94 100 100 100 100 100 100 100 100 100 99 100 99 90 78 81 68 60 62 57 54 55 59 68 71 66 75 75 76 80 83 76 72
74 83 87 91 93 90 91 100 100 100 100 100 99 100 100 100 100 100 100 100 96 74 49 44 44 37 43 51 53 60 65 70 75 73 69 68 82 84 80 75 76 75 73
85 90 92 98 95 91 90 100 99 100 100 100 100 100 100 100 99 84 64 46 42 40 39 39 40 43 50 63 68 69 71 77 79 78 77 84 92 85 81 77 76 77 80
92 98 98 99 99 96 94 99 100 100 100 99 99 94 82 60 46 40 37 37 38 36 38 40 44 44 39 36 45 70 78 78 78 82 89 95 83 81 74 72 80 87 75
91 93 96 99 100 100 100 99 99 97 89 66 52 45 42 40 39 37 36 36 37 39 42 42 39 42 45 54 70 73 75 75 82 87 82 79 73 71 72 71 74 79 86
70 80 84 90 92 99 99 94 73 75 61 49 44 43 40 39 40 40 36 30 30 29 33 37 42 50 54 66 72 77 77 79 82 85 75 60 64 71 77 81 84 88 92
54 56 57 60 64 73 75 62 54 47 42 45 45 42 40 42 43 45 58 60 62 62 58 55 58 56 66 72 79 82 79 82 78 83 72 77 80 86 88 92 93 93 96

GFSMW_925_rhum_048.txt.gz
RH
36 34 30 28 28 27 27 28 28 27 62 100 100 100 100 100 100 96 89 81 78 74 57 63 70 78 88 72 82 64 42 36 30 27 29 28 29 29 29 32 32 31 30
34 36 32 29 27 27 27 28 29 28 33 80 92 99 97 99 98 95 88 88 82 79 65 58 66 76 85 76 79 61 40 35 30 29 34 43 35 33 32 30 31 31 31
36 33 35 31 29 29 27 26 27 27 28 59 82 100 96 100 100 100 98 87 88 84 79 68 69 72 77 74 75 56 45 38 32 30 35 53 50 39 32 32 34 32 32
33 36 38 36 31 26 25 25 25 27 28 38 86 97 94 96 98 97 80 85 83 86 83 79 78 73 73 71 71 58 48 47 37 33 31 32 34 43 36 30 34 35 30
36 42 42 36 33 32 29 27 26 27 27 30 67 87 97 94 89 90 94 98 90 85 85 83 86 83 75 68 70 61 54 55 54 44 33 29 27 25 33 36 36 33 29
45 47 49 46 46 44 44 42 32 27 28 30 34 79 90 94 94 88 90 92 92 94 89 87 86 86 78 70 71 68 64 51 51 43 33 28 29 30 29 35 38 35 30
53 55 56 55 44 40 38 36 39 39 38 37 33 38 67 90 90 85 88 95 96 99 94 89 90 88 81 76 73 72 62 56 46 37 37 33 30 32 28 28 40 37 32
53 52 52 50 45 40 38 40 39 36 39 38 38 40 39 47 72 90 87 85 82 73 82 91 91 90 87 82 79 73 65 57 41 43 37 35 35 29 24 25 33 46 50
49 55 57 53 50 44 49 48 45 42 36 42 43 42 45 43 43 46 67 87 86 82 83 88 95 97 93 89 81 72 62 45 42 41 36 31 31 33 32 28 27 32 48
64 67 68 61 57 58 57 53 49 48 43 49 50 47 46 47 47 49 59 76 86 93 92 96 100 99 97 89 79 64 48 41 38 37 38 35 35 35 36 37 36 38 41
74 77 77 69 68 66 63 58 58 64 64 65 61 60 64 66 68 77 84 90 98 98 98 100 99 96 88 77 62 48 40 38 37 38 42 50 45 40 42 53 56 52 53
75 79 80 76 77 71 76 78 69 66 69 71 76 86 90 95 99 100 100 100 100 98 95 94 91 83 71 59 49 40 38 39 43 39 42 57 62 62 60 57 68 82 61
79 79 80 86 88 79 74 70 74 64 64 71 81 99 100 100 99 99 100 97 95 91 87 83 75 66 59 50 42 40 43 50 63 67 60 54 55 71 96 99 91 77 59
73 62 66 89 89 72 76 81 73 69 75 84 94 96 99 100 100 97 90 86 82 76 70 66 62 56 48 45 47 55 60 61 65 65 76 87 92 97 85 87 63 55 58
62 62 62 73 72 70 74 71 76 75 75 75 74 81 82 84 88 89 81 75 71 73 68 64 57 52 51 62 72 76 73 82 94 95 95 96 63 79 87 79 69 65 66
61 52 69 74 64 72 74 70 68 74 74 73 75 74 78 78 80 81 81 78 78 76 75 76 70 73 73 76 79 90 94 92 95 99 84 51 50 52 58 57 69 69 69
55 59 65 64 67 77 79 80 78 79 82 81 80 82 81 86 87 83 87 92 94 89 82 79 85 95 100 99 95 96 99 95 68 47 49 51 50 47 46 49 68 73 74
57 58 56 59 64 73 82 89 92 90 90 94 99 94 90 89 87 81 89 89 89 93 94 97 100 99 100 100 95 52 38 44 42 44 47 54 57 54 65 74 74 72 74
59 62 66 68 70 75 82 87 91 97 99 99 100 100 100 100 100 99 100 100 100 100 100 100 100 97 99 96 41 42 44 46 51 56 62 67 66 60 78 74 79 92 82
69 74 78 79 79 83 84 94 100 100 100 100 100 100 100 100 100 100 99 100 100 99 100 100 98 96 94 97 85 55 55 56 60 70 71 60 76 80 79 79 92 81 76
81 89 91 94 94 92 88 100 99 100 100 99 100 100 98 99 100 100 100 100 99 98 77 88 83 77 66 55 70 67 66 70 75 72 71 74 89 83 86 78 79 77 75
89 91 94 98 96 90 92 100 99 100 100 100 99 100 100 100 100 99 99 70 52 45 45 42 45 54 58 65 70 72 76 79 79 79 83 90 90 86 82 77 78 79 86
93 97 96 98 98 98 99 99 100 100 100 100 99 99 99 93 73 47 42 40 38 38 41 42 46 44 38 35 55 71 79 81 82 85 92 90 85 78 69 77 86 88 77
89 93 96 99 100 100 99 99 99 98 92 77 63 51 43 41 40 39 38 37 39 42 45 42 38 41 48 63 73 77 78 80 84 82 84 78 64 60 76 73 75 80 86
90 89 92 95 100 99 98 89 87 72 49 44 44 43 40 38 38 36 33 29 30 30 32 37 45 51 58 72 79 81 80 82 82 88 69 59 64 67 74 77 82 84 88
67 75 81 84 90 92 83 67 71 54 43 44 42 42 44 45 45 53 65 67 66 70 60 62 62 61 71 76 82 81 80 82 79 70 67 72 73 80 85 90 91 89 92

GFSMW_925_rhum_051.txt.gz
RH
32 31 29 28 30 30 30 29 30 29 77 100 99 100 99 100 100 98 94 88 85 81 73 74 78 80 92 93 92 82 64 44 36 30 28 28 28 29 29 31 35 33 31
32 31 31 30 32 31 30 29 29 30 33 82 89 93 97 99 99 100 100 97 91 89 83 77 75 76 85 90 95 82 64 42 37 35 40 39 37 34 31 33 36 34 32
30 32 35 35 32 32 31 30 29 29 30 47 85 98 97 97 98 99 98 99 96 94 88 83 80 70 80 81 91 83 76 48 37 32 36 47 43 38 36 34 32 33 33
34 41 49 48 46 45 35 30 30 30 30 31 81 96 88 89 93 96 97 100 100 99 94 90 86 77 68 78 82 86 77 61 43 35 33 39 40 50 37 33 36 36 34
44 47 52 51 44 42 42 39 34 29 30 34 51 95 94 85 89 95 99 100 100 100 100 97 90 84 74 72 76 84 74 63 54 48 65 63 38 37 44 42 40 36 35
49 50 52 52 52 44 39 38 36 37 37 33 39 71 98 98 100 98 100 100 98 100 100 100 98 92 84 80 78 79 78 69 57 60 67 50 42 36 30 36 38 37 35
49 53 55 58 58 54 47 48 48 41 38 41 42 37 55 99 100 98 98 100 100 100 99 98 100 99 94 93 88 82 78 74 63 60 64 52 37 33 29 42 41 37 35
49 54 57 62 63 59 55 53 50 50 46 44 41 47 47 46 67 91 94 99 99 88 91 99 100 100 100 99 95 89 82 78 70 63 56 42 37 36 36 30 38 48 45
57 63 65 67 67 66 65 64 59 57 52 49 48 53 53 51 49 45 52 64 83 95 93 92 100 100 100 100 98 94 91 84 75 62 46 43 37 37 32 27 28 38 47
68 71 68 72 74 77 77 68 64 60 60 66 62 61 66 70 65 63 56 55 64 84 99 100 100 100 100 100 100 96 91 92 78 52 46 41 36 36 43 52 45 36 42
75 72 71 76 81 80 76 74 73 72 67 61 61 63 66 73 80 80 80 82 86 94 100 100 100 100 100 100 99 96 89 76 59 49 38 41 46 47 46 49 53 63 68
70 72 74 78 86 82 72 72 70 72 75 77 77 75 78 94 100 99 99 98 99 99 100 100 100 100 100 98 95 85 70 54 44 41 43 50 54 57 63 67 77 89 98
66 62 60 63 83 74 77 78 78 76 75 76 83 89 91 97 98 100 96 100 100 100 100 99 97 90 84 78 69 64 51 47 47 48 54 64 70 75 78 94 100 100 92
59 59 57 63 73 70 76 80 80 74 72 71 78 88 91 96 98 93 94 94 93 89 82 81 75 71 66 62 58 55 56 54 65 70 74 76 80 96 100 99 96 84 89
57 55 66 73 65 70 74 71 72 74 73 72 77 82 83 93 92 85 79 78 76 72 68 67 65 66 65 67 63 60 73 73 79 89 97 99 99 98 89 80 95 96 91
57 58 60 65 67 77 84 78 80 83 83 87 90 89 87 89 91 90 90 87 88 87 86 93 88 86 82 67 70 75 86 95 96 99 100 91 56 58 97 97 86 76 74
58 57 56 59 69 81 89 92 91 91 91 95 97 96 93 92 95 96 97 96 97 94 98 95 94 100 100 97 95 97 99 99 98 90 54 51 78 60 52 47 65 73 77
60 59 63 65 70 82 90 94 96 98 98 99 99 100 98 99 100 100 100 100 100 100 100 100 100 100 99 100 99 97 86 50 44 46 48 51 55 55 76 73 73 74 76
62 68 70 72 75 79 83 89 95 99 100 99 99 99 99 99 100 100 100 99 98 100 99 99 100 99 99 96 64 52 45 49 55 64 72 74 63 54 79 77 80 92 88
75 79 81 85 88 93 93 99 100 100 100 100 100 100 100 100 100 100 99 100 100 99 99 99 99 98 95 75 52 52 52 56 63 68 61 55 81 83 80 92 92 83 78
86 88 90 92 95 95 98 100 100 100 100 100 100 100 100 100 100 100 100 100 100 98 98 96 94 87 83 88 88 66 62 69 75 74 77 78 91 86 87 81 80 78 75
90 91 94 96 98 95 100 99 99 100 100 99 99 100 100 100 100 99 94 69 51 47 56 64 66 66 72 72 75 76 78 81 79 82 87 91 89 86 80 76 79 79 86
95 93 94 100 100 100 98 99 100 100 100 100 100 100 96 70 48 41 41 41 41 42 46 46 45 40 37 44 77 79 82 83 87 90 92 90 80 69 54 77 91 87 78
93 92 95 100 100 99 99 99 100 99 98 88 61 46 41 41 39 38 38 38 41 43 44 39 38 45 56 72 79 81 79 85 79 83 80 63 58 57 79 75 78 82 90
91 90 93 97 99 99 98 99 94 79 53 46 46 43 39 38 36 34 31 29 30 29 31 39 48 54 68 76 82 81 81 84 80 90 60 57 64 76 82 84 87 88 90
88 90 91 94 96 96 79 82 74 47 42 44 42 41 41 45 52 63 69 71 71 70 61 66 65 68 73 78 83 80 81 82 82 64 70 77 82 87 89 91 92 91 93

GFSMW_925_rhum_054.txt.gz
RH
23 26 27 27 28 29 31 31 30 33 43 65 94 100 100 100 99 99 88 86 86 85 88 82 76 76 77 85 84 75 63 56 48 38 39 38 36 35 34 41 43 44 45
22 23 25 25 25 27 28 29 32 33 35 45 68 87 91 97 98 99 99 99 92 92 90 92 80 79 79 79 88 79 67 60 49 46 43 43 37 35 35 37 39 39 41
28 33 34 34 31 32 33 33 33 35 36 37 47 65 74 83 89 96 98 100 100 96 93 98 91 87 84 81 87 84 71 62 53 46 48 50 51 36 38 38 40 38 39
33 36 36 38 40 45 50 44 38 36 37 41 43 55 69 74 75 76 88 97 100 99 99 100 98 95 95 87 85 88 78 69 58 50 44 42 41 41 47 41 40 39 39
42 41 43 47 48 52 52 48 43 43 40 40 41 45 63 65 65 71 79 80 92 100 99 99 99 100 100 96 91 89 81 76 67 60 53 48 50 45 45 48 46 50 44
43 44 47 50 49 53 54 53 49 44 46 48 44 45 48 62 70 75 78 82 87 98 99 99 99 98 100 99 94 91 86 80 75 65 62 51 48 48 41 39 39 36 41
45 48 49 52 52 54 54 52 50 48 48 47 46 47 46 55 71 73 75 80 86 97 96 100 100 100 100 100 98 97 91 87 82 72 66 62 60 53 46 45 44 40 40
49 52 52 54 54 55 55 54 54 52 52 52 49 48 52 52 52 58 68 70 72 78 97 100 99 99 100 100 99 100 97 94 88 82 78 69 65 61 50 41 46 48 42
55 53 51 55 57 61 63 62 59 55 54 56 59 58 58 62 61 59 57 60 66 70 76 90 99 99 100 100 100 100 100 99 94 92 87 74 67 59 53 48 39 49 63
54 51 52 56 60 65 64 64 64 65 65 69 70 71 76 78 79 79 75 70 66 69 78 90 98 100 100 100 100 100 100 99 96 90 83 75 68 57 44 36 38 49 51
56 52 52 54 63 65 62 62 62 63 66 70 72 76 83 85 90 95 98 97 94 89 88 95 100 98 100 100 100 100 99 99 95 93 95 93 80 61 55 54 55 56 59
55 49 50 53 62 61 62 64 64 64 66 69 73 79 82 85 87 91 96 98 100 100 100 99 100 100 100 100 100 100 100 99 92 83 78 65 64 70 61 58 63 71 85
51 48 49 52 60 59 62 64 66 67 68 68 72 76 82 87 91 90 93 96 98 98 100 100 99 99 99 100 98 95 85 77 77 72 73 69 60 65 71 81 91 99 99
50 50 56 57 58 60 62 62 66 70 70 71 74 78 82 88 88 86 85 87 85 84 84 78 75 72 73 76 75 76 78 77 72 64 58 67 73 80 92 100 99 99 98
52 54 58 56 57 62 65 68 73 75 74 76 79 84 90 95 93 89 88 84 82 81 79 80 80 80 78 82 81 79 76 70 76 82 90 95 98 100 100 100 99 94 99
52 53 54 55 58 63 70 74 76 78 79 78 81 86 87 96 99 99 97 92 90 86 84 84 83 86 97 98 79 74 87 93 98 100 100 100 99 98 97 98 97 97 88
53 53 52 52 58 68 76 78 83 87 88 85 82 85 93 99 100 100 100 100 100 100 100 100 100 100 100 100 94 90 96 99 99 99 98 93 95 85 66 70 83 82 82
55 54 55 57 64 70 74 84 91 91 92 96 97 99 99 97 99 99 100 100 99 99 100 100 100 99 100 100 100 100 100 98 92 93 88 78 80 65 78 74 82 83 75
54 59 62 66 70 74 81 86 94 96 97 100 100 99 99 99 100 100 99 100 100 100 99 100 99 98 99 98 77 54 64 69 78 78 78 80 66 54 82 76 87 76 75
62 65 71 79 78 84 82 89 95 98 100 100 100 100 100 99 99 100 99 100 99 99 99 99 98 99 97 72 54 69 73 81 83 83 73 74 79 84 84 81 79 73 65
70 73 73 75 81 84 87 95 99 99 100 100 100 100 99 99 99 99 99 98 98 97 98 87 80 81 90 89 82 74 63 61 60 62 65 72 92 86 88 84 69 69 68
75 76 78 81 87 92 98 100 99 100 100 100 99 99 100 100 99 95 86 71 59 58 58 57 62 68 73 74 77 78 80 79 70 71 76 81 88 84 79 75 75 81 85
80 80 80 95 99 100 100 99 100 99 99 99 99 96 74 58 51 47 46 41 40 40 39 39 39 41 51 65 82 84 82 84 76 80 87 82 75 70 60 68 89 88 73
81 78 88 91 98 100 99 99 99 99 94 75 57 45 41 42 41 40 42 39 39 38 34 31 36 44 54 65 72 74 72 82 72 80 74 59 52 53 63 74 75 77 76
86 82 85 87 98 97 98 96 98 81 56 46 45 44 42 37 36 37 34 32 37 32 32 41 45 48 57 71 80 77 71 73 72 84 56 50 55 60 68 72 76 79 81
89 86 87 87 92 88 82 79 74 54 46 44 42 42 45 50 53 56 62 73 71 67 59 61 57 67 72 80 83 80 82 83 79 62 52 51 59 64 70 73 75 82 89

GFSMW_925_rhum_057.txt.gz
RH
16 19 23 24 25 25 26 26 25 25 27 34 48 86 92 96 99 94 75 72 71 72 73 74 71 67 66 68 77 74 68 61 53 47 38 39 38 35 35 38 41 46 49
20 20 22 23 22 22 23 25 27 28 28 30 34 55 83 89 96 97 97 89 76 75 77 79 78 70 70 69 77 78 72 64 56 48 47 54 43 39 36 34 40 42 45
22 26 29 30 29 32 36 31 29 31 31 32 32 37 62 72 79 88 93 97 97 89 83 82 83 82 74 73 73 80 76 69 59 50 52 62 61 43 38 36 38 38 41
30 32 33 36 38 44 48 42 39 34 32 35 37 36 40 53 63 65 69 76 86 95 96 88 87 88 84 79 77 78 83 73 64 56 54 52 45 54 52 40 38 39 39
35 35 39 42 44 51 52 50 42 38 41 37 36 36 38 43 54 60 63 65 69 86 96 96 93 94 94 90 86 81 84 81 69 61 58 52 44 46 53 54 46 42 39
38 39 42 44 44 50 52 51 47 42 42 42 41 39 41 41 46 56 60 63 67 73 84 88 93 97 94 95 96 89 88 88 80 66 65 57 55 52 49 64 50 49 47
40 43 43 45 47 50 51 49 46 46 44 44 44 40 43 43 45 49 56 60 64 72 82 79 88 94 95 96 97 100 98 93 88 83 71 65 59 58 53 58 56 54 42
43 45 44 47 48 51 54 54 51 49 47 47 47 45 44 45 45 45 46 56 61 61 64 83 86 93 96 99 98 100 99 98 96 90 83 73 69 65 59 56 62 71 49
47 45 44 47 50 53 55 57 55 54 55 56 56 52 53 56 59 57 54 50 49 52 58 62 76 86 92 97 100 100 100 100 99 98 95 85 80 75 64 71 78 86 96
46 45 44 47 52 56 56 56 54 55 56 59 59 62 66 69 70 72 72 74 73 70 65 63 69 80 87 94 100 100 100 100 100 99 98 97 89 83 74 71 86 92 93
48 45 44 46 54 55 56 56 55 55 57 59 60 64 69 72 74 74 77 82 88 88 90 86 83 86 91 93 97 100 100 100 100 100 99 93 84 83 94 98 94 85 81
49 44 45 47 53 53 55 56 57 57 59 59 61 66 71 76 78 79 81 84 88 90 95 97 95 92 99 100 100 100 100 100 100 100 99 97 99 97 90 82 80 76 77
46 44 45 47 51 51 54 55 58 61 63 64 66 69 75 79 80 81 79 78 78 84 85 87 91 94 98 100 100 100 99 99 97 94 92 91 85 78 76 76 83 90 94
46 46 51 51 52 53 56 58 62 65 66 69 72 76 81 85 88 88 86 85 84 80 79 78 78 78 79 82 84 88 87 89 88 87 85 84 79 76 85 92 97 100 98
47 48 52 50 52 54 57 63 67 69 70 70 74 77 83 90 95 97 96 92 89 90 87 82 81 80 82 84 84 86 89 88 86 82 81 86 91 96 98 100 100 98 98
48 48 50 50 53 56 62 66 70 74 76 74 73 78 82 92 99 100 99 99 100 98 95 96 96 98 99 100 100 87 89 88 95 99 100 99 99 99 99 98 99 97 98
49 49 49 48 53 60 67 70 75 80 82 82 82 82 89 98 100 100 100 100 100 99 100 100 100 100 100 100 100 97 99 100 100 100 99 98 94 76 77 71 79 85 84
50 50 50 53 58 61 65 72 79 85 92 96 92 92 98 99 100 100 100 99 99 100 100 99 100 99 99 100 100 99 99 98 97 98 92 81 83 80 79 73 80 86 81
48 51 54 60 66 66 71 74 82 91 100 100 100 99 99 98 99 100 100 100 99 97 97 99 97 96 98 98 96 88 74 85 85 83 86 81 63 67 83 78 80 78 72
54 56 60 66 66 69 71 75 81 92 99 100 99 99 98 98 99 99 100 100 99 100 97 98 99 97 94 90 71 67 68 70 72 66 64 60 82 85 85 85 72 71 67
61 64 63 64 69 73 76 86 95 100 100 99 99 99 99 99 99 99 98 97 97 88 78 76 78 79 75 83 79 69 60 56 57 59 61 69 89 92 87 83 77 67 70
66 65 67 70 75 82 91 97 99 100 100 99 99 99 100 100 99 93 83 65 57 52 50 52 58 62 67 74 80 82 81 78 66 67 71 78 90 81 76 72 68 79 83
71 73 71 84 91 94 99 99 100 100 99 99 98 90 74 58 51 48 44 37 36 35 34 33 35 39 48 61 75 80 79 83 70 77 80 77 70 65 63 67 84 86 73
72 70 79 87 94 98 99 99 99 99 93 78 60 44 38 38 38 39 40 35 34 30 27 29 34 41 50 60 66 65 64 69 64 77 70 63 55 62 60 63 70 72 73
73 76 74 80 89 96 100 99 93 87 67 47 40 39 39 35 35 38 35 31 40 36 32 42 43 46 51 71 82 80 76 80 74 81 56 45 45 52 59 64 69 73 75
79 81 79 83 86 90 93 90 85 71 46 42 39 38 39 42 47 53 64 63 70 55 47 43 50 60 60 78 83 81 84 88 78 71 48 46 51 56 62 67 70 77 86

GFSMW_925_rhum_060.txt.gz
RH
19 17 22 23 24 25 25 26 26 25 26 27 36 73 84 85 83 87 90 83 73 72 72 69 68 66 65 65 68 69 71 67 60 54 46 40 37 36 37 36 39 45 49
20 25 25 24 23 23 24 25 26 27 27 27 28 36 64 81 79 78 80 91 87 76 74 76 72 72 69 68 68 74 74 72 63 53 45 61 47 40 36 36 38 40 46
24 30 33 31 34 43 41 36 30 29 30 31 32 32 34 78 82 87 86 85 90 86 86 81 80 82 78 74 72 76 82 79 68 57 50 80 77 52 40 37 36 39 44
38 38 40 41 44 50 50 46 40 38 32 30 32 36 37 43 68 74 80 82 84 85 77 75 89 85 85 79 77 76 82 84 75 64 52 53 53 63 55 41 36 37 41
40 44 44 43 48 52 53 52 48 42 40 42 36 35 37 38 39 41 59 64 68 71 78 83 79 82 88 85 86 82 84 88 85 72 61 61 61 46 62 63 47 39 38
46 47 45 45 48 51 52 51 49 46 44 43 43 42 40 39 39 41 49 60 61 65 69 77 81 80 80 86 92 91 87 94 95 83 71 64 66 62 57 76 60 52 48
51 50 53 51 50 52 54 54 51 50 49 46 46 46 42 44 45 44 45 50 58 62 64 70 74 78 76 82 85 88 92 96 100 94 82 75 69 66 59 59 68 66 48
54 52 49 50 51 53 56 57 56 54 54 53 52 51 50 51 53 54 52 50 50 51 52 56 71 74 79 84 90 94 89 99 99 100 98 88 78 70 70 65 74 82 76
54 50 46 50 51 55 56 56 55 55 58 59 60 61 64 66 67 66 66 69 66 66 64 60 63 70 80 80 84 91 98 98 99 100 100 100 99 83 72 71 67 69 96
52 50 49 48 53 56 57 56 55 56 58 59 61 65 69 72 74 76 78 80 78 73 76 77 77 80 89 85 81 84 96 99 99 100 100 100 100 95 86 80 78 82 90
56 52 49 47 54 55 56 57 57 58 59 60 62 68 74 77 78 78 79 82 85 88 90 93 92 88 85 85 85 86 92 95 100 100 100 100 100 98 94 91 92 95 99
55 50 48 47 53 54 55 56 58 61 63 64 68 72 76 79 80 80 78 77 79 85 88 88 89 87 89 89 93 99 100 100 100 100 99 100 99 98 98 99 97 93 94
51 48 50 50 52 54 55 57 62 65 67 71 74 78 82 85 86 86 84 84 82 80 79 80 81 83 85 93 99 100 100 98 100 100 100 98 97 97 94 90 89 90 90
50 51 56 55 54 54 58 63 68 69 69 73 76 80 85 91 93 90 88 84 84 83 82 82 82 82 84 85 89 91 94 96 95 94 94 93 89 84 85 92 96 99 98
50 52 57 56 54 56 60 66 70 74 74 72 76 80 88 96 98 99 96 94 90 87 85 86 90 94 96 94 91 96 99 99 99 99 94 94 90 93 95 98 100 99 97
50 52 52 51 56 60 64 68 74 77 78 76 79 84 92 98 99 100 100 100 99 99 99 100 100 99 98 100 99 96 98 99 99 100 100 99 100 100 100 99 99 92 88
52 52 52 52 56 63 67 74 79 83 87 86 86 92 99 98 99 100 99 100 100 100 100 99 99 99 100 99 95 93 97 98 97 98 99 98 97 97 87 84 88 88 90
52 52 54 55 59 62 68 75 82 88 94 94 94 98 100 99 99 99 99 99 99 99 99 100 100 99 100 100 100 99 99 98 98 98 95 86 80 70 82 75 72 74 72
53 55 56 60 65 67 71 78 87 92 98 99 99 100 100 99 99 100 99 100 97 98 99 96 92 90 91 87 80 70 68 72 79 79 75 67 67 80 80 81 81 80 73
54 57 60 65 66 69 73 78 85 90 98 99 99 100 99 99 99 99 99 100 100 97 91 88 80 79 80 76 67 62 61 59 59 59 64 80 83 86 89 84 80 74 69
61 62 64 65 67 73 77 85 92 99 100 99 99 99 99 97 97 98 100 92 73 74 78 80 78 76 76 79 81 77 58 62 63 65 67 76 88 88 83 78 65 68 74
66 64 66 70 78 82 89 99 99 99 99 99 100 99 98 98 96 82 68 61 52 50 52 52 56 62 59 75 80 81 80 79 69 73 77 81 82 74 71 68 68 80 84
69 68 71 80 85 91 94 99 99 99 97 99 98 94 81 64 51 45 40 38 37 36 34 35 37 42 52 60 71 70 78 74 69 70 73 77 66 63 52 65 78 83 72
73 73 80 87 91 92 95 97 99 96 91 85 69 49 41 40 40 39 38 35 33 30 27 31 37 43 53 66 70 65 67 70 68 68 66 69 52 53 58 66 69 71 74
73 71 79 88 90 94 95 95 94 92 82 64 42 39 39 37 35 35 34 31 32 35 33 39 41 46 60 71 79 78 80 82 78 79 58 49 45 50 56 61 66 69 72
73 76 77 83 90 94 94 92 91 83 63 42 40 38 35 34 44 48 47 52 50 40 34 38 45 57 60 73 81 80 83 87 78 73 56 50 54 58 63 70 74 79 86

GFSMW_925_rhum_063.txt.gz
RH
22 24 25 24 24 24 25 25 26 27 37 75 79 84 82 81 70 71 74 70 72 81 72 69 68 67 66 66 67 68 66 66 66 60 52 47 44 37 37 38 36 43 50
29 31 27 25 29 30 27 25 27 27 28 29 35 68 76 80 76 73 73 72 69 67 86 80 73 69 69 68 67 68 74 71 71 63 55 57 48 40 37 38 38 37 45
37 42 43 43 40 40 39 37 33 29 28 30 31 33 36 78 83 88 90 86 77 68 66 79 88 81 75 71 70 69 73 84 81 68 60 79 70 58 41 39 37 37 39
46 48 49 51 49 50 48 48 45 40 38 33 30 31 35 40 45 69 80 77 72 77 79 78 76 70 75 88 80 74 78 81 90 82 66 56 57 68 63 46 43 38 40
50 52 49 50 52 53 54 52 50 46 45 43 40 38 36 37 38 39 41 50 76 74 74 76 76 74 71 75 89 89 88 88 91 91 79 73 68 58 65 74 65 48 42
58 56 50 53 54 53 54 53 51 49 49 47 46 45 44 42 43 42 41 42 47 64 72 71 73 77 79 75 74 77 89 98 99 100 91 81 75 74 73 85 77 70 52
60 62 59 56 54 57 57 57 56 54 53 51 50 51 51 50 50 56 58 55 52 54 55 58 71 76 78 76 77 75 77 86 91 96 99 94 85 77 80 77 80 76 59
63 60 58 56 57 58 57 56 56 58 59 60 62 64 65 66 67 67 67 68 68 68 65 62 61 61 79 80 77 77 82 84 87 86 98 99 97 90 84 78 81 92 82
64 59 58 56 58 59 58 56 56 58 59 61 64 69 72 71 73 75 73 74 74 73 72 73 75 73 78 97 100 85 76 80 81 81 85 93 100 97 89 96 87 84 96
63 60 59 55 59 58 58 57 58 59 59 62 68 72 74 75 77 78 78 79 78 76 73 71 80 85 86 86 86 85 77 80 83 97 100 100 100 100 100 99 96 94 98
65 60 57 52 59 58 59 59 60 61 62 65 68 69 73 75 74 72 72 72 76 80 81 80 81 86 86 87 85 84 82 81 83 95 100 99 100 100 100 100 96 94 96
61 59 54 53 59 59 58 60 62 65 68 70 72 74 76 78 78 80 80 81 80 80 80 80 82 83 83 83 84 89 100 100 100 100 100 100 100 100 100 97 95 97 100
58 57 57 59 61 58 59 64 67 69 72 73 75 80 84 86 88 87 84 83 82 81 80 79 78 79 80 82 86 94 98 99 99 99 99 100 100 100 100 97 94 96 97
56 59 63 64 59 59 62 68 71 72 74 74 77 83 90 96 98 94 87 84 87 82 81 82 83 84 84 88 93 93 94 96 96 96 96 96 96 98 97 97 97 96 96
56 59 63 64 62 64 68 72 74 76 75 77 82 88 95 98 99 99 99 92 93 99 97 97 99 100 99 95 94 95 98 98 95 97 98 99 98 99 100 100 100 98 96
55 58 59 60 66 68 71 75 78 82 80 82 88 92 98 98 99 99 99 99 100 100 99 100 99 98 99 100 92 86 90 96 98 99 100 99 98 100 99 99 98 97 91
56 58 58 61 67 69 74 79 84 87 87 88 94 99 99 99 99 99 99 100 100 100 100 100 99 100 99 98 96 94 95 95 97 98 100 98 99 98 96 94 91 93 92
56 57 58 62 64 70 76 81 86 89 92 94 98 99 99 99 99 99 99 100 100 100 99 99 99 99 100 99 93 91 89 87 83 77 64 58 53 64 70 74 77 75 74
58 59 60 63 67 70 78 82 88 95 97 99 99 99 99 99 100 100 100 100 100 99 87 81 82 81 81 80 69 58 57 56 53 55 73 66 73 81 90 84 81 83 73
58 61 61 65 69 73 79 84 88 98 99 99 99 99 98 99 99 99 100 100 93 81 82 79 75 74 78 77 73 58 57 58 58 62 65 83 86 90 87 84 82 76 72
63 63 66 68 70 74 78 87 90 95 100 99 99 99 98 97 98 98 96 74 79 83 87 78 75 71 70 80 82 79 67 65 65 67 71 76 90 81 77 74 60 66 76
68 67 70 73 79 80 80 87 98 100 100 99 99 96 94 94 99 81 68 59 55 55 57 55 56 53 57 69 76 78 79 73 64 71 74 74 76 70 69 69 72 80 87
69 69 72 82 86 88 91 99 99 100 99 100 98 99 98 93 56 49 48 48 47 43 41 39 38 43 54 64 75 77 76 76 72 78 83 80 68 60 53 52 74 80 71
74 73 79 86 89 92 92 93 99 92 96 99 95 84 63 52 48 43 39 37 36 33 30 32 38 43 57 68 70 62 59 63 66 72 66 59 55 50 55 61 65 69 73
74 76 82 87 91 92 92 92 95 91 89 85 69 48 40 40 39 39 36 34 34 34 31 34 37 43 55 64 78 77 78 83 83 77 51 48 49 54 57 63 68 72 76
75 76 81 84 90 93 95 91 92 88 87 81 47 39 39 37 36 39 49 46 40 29 28 32 35 44 56 67 66 76 81 83 81 73 57 59 63 64 66 69 73 78 85

GFSMW_925_rhum_066.txt.gz
RH
28 26 27 27 25 26 27 28 30 40 63 82 83 79 76 73 72 71 72 73 73 75 75 72 72 72 69 66 64 65 63 64 66 70 66 57 50 46 43 41 40 38 41
32 33 30 31 30 31 29 29 31 30 30 35 64 83 88 84 79 75 71 72 65 66 70 68 70 74 74 73 70 69 71 73 73 74 66 68 58 50 49 44 39 39 37
39 47 49 45 42 40 38 35 33 33 34 31 32 35 43 62 84 74 73 73 80 78 75 71 70 75 84 81 76 74 74 81 83 83 75 77 76 62 49 49 42 39 39
48 52 53 53 50 50 49 48 46 43 41 42 37 33 34 39 42 53 62 72 78 80 80 79 81 83 86 75 73 78 81 85 92 95 84 76 64 75 74 48 46 45 45
58 59 57 56 57 54 52 51 50 48 48 45 45 44 41 40 39 40 40 40 43 56 78 88 81 76 73 74 79 80 86 94 98 96 92 91 88 72 79 78 66 54 50
62 62 58 58 57 55 53 53 52 52 51 49 49 49 49 46 47 48 49 49 46 57 68 75 82 84 83 82 80 78 82 82 84 90 99 99 89 89 87 91 89 77 60
70 68 67 61 60 57 56 56 57 59 59 57 57 58 58 57 62 66 65 62 61 64 62 63 62 71 76 79 84 84 83 82 87 87 87 95 100 97 95 94 85 91 84
70 67 64 61 61 60 58 57 59 60 61 64 70 71 69 70 72 73 74 72 73 76 74 71 69 66 66 85 90 90 88 71 72 79 85 96 94 94 99 98 96 98 90
70 67 65 61 63 61 59 58 60 61 62 69 72 72 74 74 77 78 77 76 75 75 75 72 72 74 78 87 97 99 99 92 80 78 91 97 98 100 100 100 100 96 98
68 67 66 63 64 61 60 59 60 60 63 67 71 74 75 76 76 76 74 73 73 74 75 74 72 74 79 86 88 86 85 84 84 85 96 99 99 100 100 100 100 100 99
70 68 63 62 64 63 61 61 61 62 64 68 70 71 73 74 74 73 75 76 77 76 76 78 78 77 79 81 82 84 83 84 90 93 96 99 100 100 100 100 100 100 100
66 65 60 64 66 64 62 63 64 66 70 73 74 76 78 79 79 80 80 80 79 79 79 79 80 80 81 80 83 87 91 91 99 100 99 99 99 99 100 100 100 100 100
65 65 64 68 67 64 65 66 68 71 73 74 76 80 84 87 88 85 83 81 81 81 81 82 82 82 85 87 89 93 94 96 98 98 98 98 97 99 98 98 98 99 99
61 65 70 71 67 64 68 70 72 73 74 76 78 83 91 99 98 94 89 86 87 89 90 90 93 92 89 90 92 92 92 92 92 91 91 90 90 91 91 92 95 97 96
62 64 70 74 66 69 73 73 75 76 77 78 83 90 99 98 98 98 98 98 98 99 99 99 100 99 98 96 93 94 97 99 99 100 100 100 99 99 100 100 100 99 97
60 60 64 67 70 73 76 77 80 80 79 83 89 96 98 97 99 100 100 100 100 99 99 99 99 99 99 100 92 90 93 96 98 99 98 99 98 98 99 99 99 100 90
59 61 63 66 70 73 76 79 83 86 87 89 94 98 99 99 99 100 100 99 99 99 98 99 99 99 99 97 92 90 90 92 94 92 88 82 81 74 71 66 67 72 88
58 59 60 64 70 74 78 82 87 89 89 91 98 99 99 100 100 99 99 99 99 98 98 96 94 93 94 81 67 66 62 54 54 52 52 56 66 83 87 78 78 76 73
58 57 56 62 69 75 78 83 90 92 93 96 99 99 99 100 100 99 100 99 99 95 88 79 74 73 76 77 54 50 48 47 52 71 80 68 82 86 96 77 79 82 77
58 60 62 66 70 77 81 85 93 96 98 99 99 98 98 99 99 99 100 99 78 76 72 70 71 75 81 83 76 54 54 55 59 61 62 84 88 84 84 77 68 75 73
60 60 63 68 72 78 83 87 93 100 99 98 97 99 95 94 92 99 93 86 89 83 77 68 63 64 66 78 81 85 64 61 65 68 71 74 88 76 74 73 62 63 79
68 65 70 72 73 78 83 91 94 96 99 96 96 95 91 92 100 75 70 73 71 66 60 55 53 50 55 73 76 78 77 76 64 64 70 73 76 70 68 69 72 80 86
72 70 72 78 82 83 84 92 98 99 97 99 96 93 94 95 89 66 63 62 55 49 49 46 39 40 50 58 65 66 81 82 74 76 83 76 76 65 52 62 74 80 70
74 73 77 87 91 89 91 94 99 95 97 99 95 99 99 95 65 52 46 43 41 40 36 33 36 39 46 59 64 61 59 64 68 77 72 52 52 50 57 58 64 69 73
75 76 80 86 87 91 93 93 96 97 99 99 98 96 80 64 51 45 40 38 36 33 28 29 32 36 43 48 71 77 74 77 84 80 63 49 54 57 57 62 69 73 78
76 80 80 83 84 89 93 92 92 92 94 92 89 74 52 47 41 43 42 35 36 33 28 28 26 34 39 56 65 69 79 81 82 78 66 58 65 68 72 73 73 76 84

GFSMW_925_rhum_069.txt.gz
RH
30 30 29 26 27 30 32 39 60 71 76 83 82 80 82 82 81 79 80 81 80 80 76 73 74 75 73 68 66 65 67 70 72 81 76 73 70 66 63 54 49 46 44
36 34 36 32 34 33 32 30 31 32 36 56 80 86 83 80 80 79 81 82 83 85 81 78 76 74 79 80 79 78 77 78 78 79 76 83 69 63 63 58 52 48 44
39 46 48 44 42 42 41 38 35 31 30 31 34 43 59 72 78 82 81 80 84 86 90 86 82 82 82 81 85 86 84 88 84 84 84 86 86 74 60 59 57 55 51
45 53 55 55 50 50 49 49 49 45 41 39 35 32 33 36 42 53 50 52 59 70 79 88 86 84 87 87 83 91 90 90 95 94 94 88 86 85 86 60 52 50 53
56 61 61 59 59 54 50 50 50 50 50 49 47 44 40 38 39 40 38 37 40 44 51 63 82 87 89 84 83 84 86 87 94 99 95 94 99 95 87 91 82 68 61
65 65 63 62 60 57 54 53 52 53 53 52 52 52 51 49 49 53 54 52 50 56 60 66 73 82 90 91 89 89 87 84 86 97 100 98 96 97 98 97 90 89 80
74 77 76 67 62 58 56 56 58 60 61 60 60 62 62 61 62 67 68 67 67 66 64 66 67 68 76 88 92 94 96 94 92 90 93 100 100 99 99 99 94 98 89
79 76 72 66 64 61 58 59 61 61 64 68 70 72 74 74 76 77 77 76 78 79 76 72 70 71 74 79 97 100 100 100 100 97 96 100 93 92 95 99 98 98 96
78 75 70 66 65 62 60 60 60 62 67 72 74 74 76 77 78 78 78 77 78 77 75 73 70 70 77 83 90 92 89 91 93 94 100 100 98 100 100 100 100 98 96
74 74 72 69 66 63 61 61 61 62 66 70 72 73 74 75 75 74 72 72 72 73 73 72 73 73 76 80 85 88 88 87 91 94 97 100 97 99 98 98 99 99 100
74 74 72 69 67 65 63 63 63 64 67 70 71 72 72 74 75 75 77 77 78 78 78 78 79 78 79 79 82 83 84 84 97 99 97 98 99 98 95 99 99 100 100
75 75 68 72 70 67 65 64 65 66 70 73 74 76 79 81 80 81 81 81 80 82 82 82 82 83 83 84 85 87 90 88 88 95 95 97 98 97 97 97 96 98 99
70 71 71 78 73 68 67 67 69 71 73 75 76 80 84 88 88 87 86 84 84 84 85 84 84 87 90 90 92 95 94 94 92 91 91 93 93 92 93 94 95 93 94
67 69 71 74 72 69 71 72 73 74 75 77 80 84 92 99 98 95 93 92 94 92 92 94 96 94 94 95 95 96 97 99 98 100 99 100 95 95 97 98 97 95 95
67 68 71 73 73 72 74 75 75 77 78 79 83 91 99 97 95 97 100 100 99 100 100 99 98 98 100 98 93 99 100 100 100 100 98 99 99 100 99 100 96 92 95
66 65 68 72 72 73 76 77 79 80 80 83 88 96 98 98 100 100 100 100 99 99 98 99 99 99 98 100 90 90 93 94 94 97 100 98 97 94 99 100 99 100 89
64 62 66 67 69 72 74 79 81 82 84 88 94 97 98 100 100 100 100 99 99 99 99 98 98 100 100 100 88 86 84 78 66 54 48 52 62 66 64 63 59 63 86
63 61 62 64 68 72 77 81 86 87 89 92 96 99 99 100 100 100 99 99 99 96 96 91 85 74 82 70 45 41 37 39 48 53 56 63 83 90 86 72 78 76 83
60 57 56 61 70 74 77 83 90 92 92 94 99 99 99 100 100 100 99 98 98 98 82 72 71 72 80 79 47 42 42 44 53 69 85 85 83 85 87 70 65 77 77
56 59 59 64 69 77 81 86 91 93 94 97 99 99 99 99 100 100 99 93 82 74 74 73 74 73 78 84 72 46 46 49 54 56 57 63 87 81 76 75 69 50 60
60 61 63 66 69 76 81 85 90 96 95 98 98 99 100 99 96 99 100 74 66 69 71 61 56 54 58 77 81 80 61 54 54 56 57 59 78 75 72 74 68 67 82
65 63 67 69 72 77 82 86 92 93 96 99 98 98 95 97 99 99 88 85 83 79 66 54 47 43 51 69 78 80 78 77 68 62 64 71 77 78 68 63 72 77 87
70 67 68 73 75 78 82 86 88 94 99 98 96 96 96 93 100 79 73 69 65 60 53 49 41 37 43 51 57 57 60 65 74 62 83 68 71 61 50 51 74 79 70
74 72 74 78 81 81 83 83 90 96 99 100 97 93 94 96 97 71 67 62 58 54 46 39 35 34 38 45 53 54 55 57 64 76 76 51 47 47 58 54 61 67 71
73 73 76 78 79 82 87 90 95 97 100 98 92 93 95 100 90 62 48 42 40 38 36 30 29 31 30 33 44 65 70 73 76 81 76 52 49 51 54 59 64 70 75
74 78 78 78 79 82 88 93 94 97 99 100 99 98 99 96 72 52 45 41 38 40 41 32 29 26 31 35 70 79 79 79 83 77 70 62 60 64 69 70 72 74 79

GFSMW_925_rhum_072.txt.gz
RH
31 30 26 24 26 26 37 52 70 82 84 85 88 89 86 83 82 78 78 81 82 83 79 77 78 81 86 80 78 78 74 74 74 84 82 75 71 71 69 68 64 64 62
32 35 34 33 32 32 32 35 44 55 62 79 91 91 87 85 83 83 86 86 87 88 89 88 86 83 83 81 80 84 85 84 80 82 85 90 75 68 66 66 66 66 63
39 41 50 43 40 39 38 36 34 32 32 32 41 56 71 84 87 89 90 88 89 92 95 95 96 95 96 90 86 87 90 96 91 89 86 96 94 76 66 66 63 63 60
40 46 55 56 50 49 47 44 41 38 36 35 34 32 33 37 41 52 60 55 52 59 69 79 91 99 100 99 91 94 95 100 99 98 96 92 92 93 94 72 70 69 68
46 54 60 59 61 57 52 51 50 48 47 46 44 42 40 40 39 40 39 41 42 47 54 61 68 82 99 100 100 96 94 98 100 100 97 86 95 100 98 95 86 77 73
54 64 65 65 62 59 56 56 56 56 55 52 51 51 50 50 48 50 52 53 54 57 62 65 69 74 84 97 100 100 98 99 100 100 100 98 94 98 99 99 96 90 85
70 80 84 73 66 60 57 58 58 61 64 63 62 63 63 64 67 71 72 71 69 67 65 66 65 69 75 85 100 100 100 100 100 100 98 100 96 95 92 100 96 98 92
81 82 80 72 66 61 60 60 60 62 68 70 72 75 76 77 77 78 79 78 77 78 75 72 70 69 72 76 91 99 98 100 99 98 99 98 98 99 98 99 95 92 98
84 84 78 72 66 63 61 60 60 64 69 71 73 74 76 77 77 77 77 76 76 75 73 71 69 68 68 76 86 96 96 94 97 100 100 99 99 98 98 97 100 99 93
83 83 80 74 67 63 62 62 62 63 67 70 71 72 72 72 72 73 72 72 73 73 73 73 74 74 74 77 84 89 91 92 87 91 96 99 98 98 93 91 92 96 100
83 84 80 73 69 66 64 63 64 65 67 69 70 71 71 72 73 74 75 77 78 78 77 78 79 80 80 83 87 88 91 92 99 98 98 97 98 96 89 92 93 96 100
81 83 79 79 74 69 67 66 67 68 70 72 74 75 78 80 81 82 82 82 81 82 82 84 84 85 86 89 92 93 95 95 96 98 97 98 98 96 95 93 94 95 97
79 80 80 84 78 72 70 69 70 72 74 76 77 80 84 88 88 89 89 89 89 89 88 86 85 88 92 95 98 97 96 96 96 94 90 92 93 93 92 92 92 93 93
76 78 78 83 77 73 71 71 72 74 75 77 80 85 94 99 98 96 98 99 98 95 96 97 98 96 96 97 100 100 100 99 100 100 99 99 99 99 100 98 95 95 93
75 74 74 79 77 74 73 73 74 76 78 80 84 90 98 96 97 99 100 99 99 98 98 98 99 99 99 98 100 100 99 99 98 98 96 97 100 100 99 99 97 86 81
72 71 70 72 76 73 75 76 77 79 81 84 86 93 98 98 100 100 100 100 100 99 98 99 99 99 100 100 91 90 92 93 94 98 92 81 70 80 91 92 91 90 91
71 69 70 71 69 70 72 77 79 81 82 86 92 98 98 99 99 100 100 100 99 98 99 95 98 99 98 90 70 65 57 49 47 50 58 74 86 74 59 61 64 62 85
68 66 63 63 65 68 74 77 82 83 86 92 96 98 99 99 100 100 100 99 99 95 91 83 73 71 80 50 37 37 38 47 58 62 64 77 86 86 71 52 68 78 87
68 61 57 59 64 68 74 80 87 88 91 94 97 99 100 100 100 100 100 98 95 94 78 66 66 67 77 65 44 42 44 46 52 60 82 83 76 80 82 64 53 51 76
60 59 59 61 67 75 79 85 91 93 94 94 96 99 99 100 99 100 99 99 98 76 74 74 73 73 80 89 58 44 40 43 49 51 51 57 82 77 75 73 66 48 66
61 60 61 63 67 74 81 87 90 92 91 95 99 100 100 100 100 100 99 90 76 71 68 61 57 54 62 78 83 71 57 54 50 52 53 55 86 81 73 71 55 77 84
68 65 67 69 71 75 81 87 91 89 95 98 100 100 100 100 100 99 93 75 70 67 65 54 47 44 50 62 74 82 80 72 56 55 61 67 74 76 70 59 72 76 84
68 65 67 72 75 78 81 85 83 91 97 99 99 100 100 98 96 99 85 82 79 73 58 51 44 35 37 45 55 56 55 55 66 59 79 56 49 42 40 46 74 74 65
73 70 72 77 79 78 81 81 83 90 96 98 99 99 100 100 98 98 74 67 61 57 52 49 43 33 32 35 45 51 49 51 60 74 76 58 41 42 45 46 54 64 69
85 84 84 77 75 76 79 82 85 91 97 98 98 97 97 100 97 88 63 60 55 50 45 38 34 30 29 26 33 41 54 64 72 82 77 64 49 45 47 51 58 62 68
76 76 76 76 74 76 78 82 87 92 97 100 100 96 94 93 98 99 72 55 43 40 39 37 34 28 28 31 36 77 80 80 82 82 60 49 49 52 55 63 65 68 74

GFSMW_925_rhum_075.txt.gz
RH
35 31 28 26 52 51 59 75 76 80 85 86 86 85 81 77 74 73 73 74 77 84 85 84 81 80 81 80 82 89 88 88 81 94 84 77 68 62 60 63 67 67 70
35 32 32 32 33 32 37 45 61 80 87 88 90 90 86 86 86 86 88 92 95 96 97 95 93 92 92 89 85 87 91 88 84 89 88 82 73 67 65 65 63 65 64
36 34 40 38 37 38 38 38 40 46 51 61 77 90 95 94 93 94 96 97 97 96 97 97 99 99 100 99 99 95 96 100 93 94 91 92 86 77 67 64 66 67 67
40 37 45 50 48 45 44 42 39 37 37 36 34 34 36 40 44 52 64 67 59 59 64 71 79 93 99 99 100 100 100 100 98 93 94 94 95 96 90 75 70 71 72
40 39 49 52 57 55 51 48 46 44 43 42 41 40 39 39 39 40 42 44 45 48 51 54 57 62 73 98 96 99 100 100 98 99 97 98 96 98 99 96 88 77 72
39 44 52 61 65 60 56 54 51 50 50 50 49 49 50 50 50 53 57 60 63 65 65 66 68 71 74 88 98 99 93 100 100 99 99 98 95 98 99 98 95 85 86
41 55 72 74 67 64 61 58 56 59 60 58 59 59 59 60 62 67 69 69 70 70 68 68 67 68 71 80 98 99 99 100 100 99 99 100 100 100 100 100 91 89 92
50 62 70 74 69 65 64 61 61 65 65 65 66 70 71 72 73 73 74 73 73 73 72 69 67 66 66 70 84 98 95 100 100 100 98 99 99 96 96 100 99 90 88
63 70 77 75 69 64 61 58 60 66 68 69 71 72 73 75 76 76 76 76 74 73 71 69 67 66 67 70 82 98 96 98 100 100 100 100 100 99 99 97 96 99 95
79 78 77 77 68 64 63 62 62 63 67 69 70 71 72 72 72 72 72 72 73 73 74 73 72 72 72 72 78 88 96 100 98 97 95 96 99 97 92 87 88 96 100
77 76 78 77 71 67 65 63 64 65 68 68 68 69 70 71 72 74 74 76 77 78 77 77 78 77 77 79 83 86 91 97 99 99 97 96 97 94 91 92 93 96 99
78 78 80 82 75 70 68 66 67 67 69 71 72 74 76 78 79 80 80 81 81 82 82 83 84 85 87 90 91 92 96 98 99 99 97 98 98 93 92 91 90 92 93
78 78 81 82 80 74 70 69 69 70 71 74 76 78 81 83 84 86 86 87 87 88 87 86 86 90 94 96 98 97 98 96 93 92 91 92 92 96 92 89 90 89 90
76 76 79 83 81 74 71 71 72 73 74 77 79 82 89 98 98 95 99 99 96 95 95 97 95 95 99 100 100 100 99 99 99 100 98 98 98 98 97 93 89 89 92
78 75 75 79 83 78 74 74 74 76 77 79 82 86 93 95 94 96 99 99 99 99 99 99 99 99 100 99 99 99 99 99 98 97 98 99 99 99 98 95 91 84 77
74 73 72 74 80 77 74 74 75 78 79 81 84 90 95 96 98 100 100 99 99 99 99 99 99 99 99 100 93 93 97 99 99 96 88 79 79 71 91 92 91 89 80
66 70 68 68 72 70 68 73 74 78 81 83 88 93 97 99 100 100 99 100 100 100 100 99 99 99 100 99 73 61 52 47 47 52 63 72 76 58 51 59 61 85 92
67 67 66 67 64 65 70 72 77 80 83 87 91 96 98 98 99 100 100 100 99 97 95 94 76 69 78 51 37 37 39 45 54 59 70 76 82 88 57 45 61 76 82
64 62 60 60 63 65 69 76 83 84 87 90 92 95 97 99 99 100 100 100 96 91 81 71 74 73 78 65 40 39 44 49 54 66 80 77 76 79 81 59 47 42 67
63 64 62 62 65 70 74 80 86 88 90 91 93 95 97 99 99 99 99 98 94 90 69 74 79 80 82 74 44 39 41 45 49 48 49 63 81 77 77 68 50 55 72
64 64 63 65 67 73 78 84 87 90 87 90 94 99 100 99 100 99 99 98 96 74 75 71 66 66 72 82 88 62 52 47 46 48 47 50 83 86 76 70 54 76 82
70 66 67 69 71 72 77 84 87 83 89 92 96 100 100 100 100 100 99 100 81 72 67 58 52 48 51 62 79 83 76 54 44 44 50 58 73 72 68 54 73 86 80
67 66 66 70 73 76 78 83 80 86 91 96 100 100 100 100 99 99 93 83 73 70 64 53 45 37 37 45 58 55 55 51 50 46 62 60 46 41 38 52 78 68 58
71 67 69 73 74 74 75 76 79 84 92 98 100 100 100 100 100 98 100 80 79 77 62 51 45 40 33 32 39 45 44 42 46 56 70 64 46 40 38 41 46 56 65
76 74 73 71 71 73 75 76 81 85 94 99 99 100 99 100 99 98 95 75 64 53 47 43 41 35 30 25 26 31 36 43 53 79 76 65 51 44 43 48 51 56 61
86 90 89 92 90 89 81 76 81 85 93 100 100 100 100 100 99 97 97 68 62 58 50 44 38 34 30 27 25 30 59 82 81 82 78 54 47 47 46 49 53 56 62

GFSMW_925_rhum_078.txt.gz
RH
33 32 28 29 58 63 71 80 83 82 82 85 83 84 84 86 88 86 89 87 84 82 86 88 87 90 89 82 82 84 87 86 82 81 73 70 71 69 65 67 59 62 70
33 30 29 30 35 48 50 60 73 82 85 84 84 85 86 85 81 90 92 93 95 98 99 99 99 99 99 95 94 93 91 89 86 82 84 76 54 50 64 64 66 65 66
38 31 27 29 36 37 42 46 57 65 75 88 91 92 92 93 95 98 100 97 97 98 100 100 99 98 99 99 99 98 98 94 94 96 86 80 59 64 67 65 62 65 65
36 34 32 30 37 42 56 50 49 49 48 50 53 57 59 59 63 70 73 77 77 73 73 79 85 96 99 99 98 95 99 100 99 100 92 91 93 91 85 72 68 71 70
35 32 32 36 46 59 61 57 55 52 41 41 44 44 44 46 47 48 52 54 49 49 51 52 54 61 76 91 99 99 99 99 100 99 97 97 100 100 98 93 75 81 67
35 32 32 46 54 65 66 65 61 62 56 52 49 54 55 54 55 63 64 70 75 67 61 61 63 67 73 81 99 100 97 98 99 100 100 98 94 92 94 97 92 85 71
34 30 37 50 58 64 65 64 62 66 64 58 62 63 64 67 70 73 73 73 76 81 72 66 66 65 65 69 82 99 97 97 100 98 100 96 99 100 98 98 89 88 84
29 30 33 46 55 62 64 61 64 68 69 69 66 68 71 75 74 76 78 76 77 79 72 70 69 67 66 68 81 100 98 95 100 100 100 100 100 100 99 98 98 94 86
31 36 36 48 56 61 62 61 66 71 72 72 71 72 73 73 75 73 73 74 74 72 72 70 69 67 66 68 78 99 97 94 99 100 100 99 99 99 100 98 98 98 91
37 42 50 54 56 58 62 64 65 68 71 71 71 72 71 70 70 70 71 70 70 69 70 70 70 70 70 72 79 97 99 100 100 99 99 100 100 100 99 99 94 97 97
45 51 57 61 60 61 63 62 64 68 69 71 73 73 72 70 71 75 74 76 77 77 78 77 77 77 79 81 89 93 99 98 99 99 98 99 98 96 94 93 97 99 99
50 50 57 62 65 64 62 62 64 65 69 73 74 77 81 81 82 84 84 84 87 86 86 86 88 89 88 90 90 92 94 95 95 96 95 96 97 97 94 95 95 95 92
57 56 58 58 57 60 61 62 64 65 71 74 75 79 82 83 86 90 92 92 91 90 90 89 91 94 96 99 99 98 94 92 91 91 92 93 94 96 98 99 97 98 95
57 56 55 56 57 58 59 61 65 69 74 76 76 79 82 84 89 97 98 99 95 92 92 93 97 97 100 100 99 99 99 100 99 100 98 97 97 98 100 99 95 95 95
54 56 56 55 58 60 61 63 66 71 75 76 79 81 85 87 92 96 99 99 99 98 98 98 100 100 99 100 100 100 100 99 99 99 99 100 98 97 98 91 92 90 81
52 53 54 55 58 59 62 66 70 74 79 78 80 86 88 91 96 99 99 99 99 99 99 100 100 100 100 98 99 98 99 100 98 92 87 84 76 75 90 83 91 84 72
41 50 51 53 55 59 62 65 68 74 78 78 82 87 90 93 100 99 99 99 100 100 99 99 100 99 99 99 88 85 83 71 57 56 74 82 70 58 64 55 58 93 80
36 43 49 52 54 58 62 64 70 77 79 80 83 87 93 98 99 99 99 100 99 100 100 99 94 85 85 53 34 32 34 40 49 57 63 74 78 84 61 56 72 75 78
37 41 46 51 56 60 64 70 75 77 82 83 86 91 95 99 99 99 100 100 100 96 94 86 79 85 75 39 36 42 63 66 67 75 78 71 69 79 68 66 54 43 62
47 52 56 59 59 63 70 72 74 77 80 82 87 92 96 99 99 99 100 99 97 90 78 67 68 66 78 56 39 39 52 52 52 56 57 57 74 76 78 63 49 50 60
58 61 61 60 61 70 73 74 76 79 81 89 91 96 100 100 100 100 100 99 96 92 79 81 78 82 82 79 58 45 50 47 49 50 50 59 78 80 79 66 52 66 71
64 62 62 66 74 79 78 78 82 88 92 94 98 100 100 100 100 100 100 100 96 87 78 72 66 67 73 75 85 87 65 50 52 49 54 63 62 63 62 57 68 84 80
64 68 64 70 77 82 81 82 84 90 91 93 97 100 100 100 100 100 100 100 96 74 63 58 50 49 55 64 62 83 81 61 57 58 62 58 43 36 37 37 74 75 63
59 62 64 66 73 79 82 80 79 84 89 90 94 100 100 100 100 100 99 92 84 69 61 56 49 44 41 46 55 65 66 67 68 52 77 64 51 38 39 36 46 58 60
73 69 67 68 69 74 77 79 82 84 91 89 94 100 100 100 100 100 99 94 78 67 63 56 48 48 44 37 30 31 48 55 62 71 77 69 56 48 47 50 54 58 62
84 83 81 83 85 85 82 83 83 86 93 90 93 99 100 100 100 99 100 99 85 65 60 51 49 43 37 30 26 25 29 41 53 85 72 61 52 49 45 46 49 56 64

GFSMW_925_rhum_081.txt.gz
RH
30 29 27 29 52 74 70 73 74 74 69 74 76 74 74 75 74 70 71 75 75 74 77 78 77 77 79 76 75 73 77 79 81 82 78 74 70 67 66 63 60 57 60
30 29 27 27 31 55 62 68 70 76 76 74 74 72 73 72 72 77 79 81 83 83 85 86 87 87 87 87 88 85 86 87 85 83 80 85 63 50 48 59 60 62 63
28 31 28 28 28 38 46 50 61 72 79 80 82 86 89 91 90 88 88 92 92 97 97 96 96 95 94 95 93 90 91 93 89 86 89 80 69 56 58 62 61 60 62
26 31 31 28 28 31 42 44 50 58 63 74 79 80 76 71 69 75 84 78 80 82 83 87 90 92 98 97 95 96 93 91 98 92 81 83 86 85 78 62 64 64 69
28 31 32 31 31 41 56 50 48 49 52 49 45 45 43 42 47 48 51 55 60 53 53 54 57 68 78 90 94 96 95 96 99 98 95 88 87 96 99 91 76 72 73
29 30 30 33 40 56 60 57 52 53 54 53 51 50 48 47 49 55 54 60 68 74 63 60 64 71 82 90 95 98 97 97 100 97 99 93 95 98 98 97 91 87 78
30 32 31 36 43 59 63 61 56 58 60 59 57 59 61 59 59 62 62 63 65 73 76 68 69 71 68 71 80 92 92 96 94 95 94 95 92 100 94 93 91 90 85
30 34 30 35 43 56 62 59 57 59 60 63 65 67 68 67 68 71 69 68 69 73 73 73 72 72 68 68 77 87 89 95 99 100 99 100 99 100 99 99 94 94 86
27 31 33 32 40 53 57 56 58 61 63 64 64 65 67 70 71 70 70 70 71 70 69 72 72 73 69 70 76 91 94 96 96 99 100 100 100 100 98 94 96 93 94
26 27 32 34 43 51 55 56 58 61 62 63 62 65 68 69 69 69 70 71 70 72 73 75 76 76 76 77 83 91 100 100 93 98 99 99 98 98 97 98 97 96 91
31 32 38 43 49 53 56 58 58 60 62 63 66 66 68 67 67 69 70 72 74 75 77 78 79 79 80 80 81 86 92 92 94 96 95 94 96 96 95 96 97 95 96
38 38 44 49 51 55 57 56 58 59 62 63 64 66 71 72 73 74 77 77 78 80 80 81 82 82 85 85 83 85 88 90 90 91 91 92 94 92 91 94 94 95 94
43 42 46 51 53 56 55 56 57 57 62 64 65 69 72 73 74 78 82 83 83 82 82 82 84 87 93 94 92 89 86 85 86 87 87 89 91 96 97 98 97 97 94
44 45 48 49 50 51 53 55 57 59 64 65 66 68 71 73 76 83 86 88 86 83 84 85 90 97 100 99 99 99 99 99 99 98 96 96 97 98 98 98 92 92 91
42 46 48 46 48 50 52 53 56 61 66 68 69 70 72 74 78 84 89 93 94 91 92 92 96 100 99 99 99 99 99 99 98 98 99 97 95 96 91 89 84 83 80
36 43 46 46 47 50 51 54 58 62 66 68 70 73 76 78 83 88 92 98 97 98 97 97 97 98 99 100 100 99 99 99 99 91 86 78 64 74 74 71 87 64 75
30 38 42 45 46 49 52 55 58 64 69 68 70 75 77 80 87 92 96 100 99 99 99 99 98 100 99 99 99 100 99 92 80 58 68 74 58 58 61 53 70 62 50
34 32 34 42 46 48 52 54 58 63 68 68 70 74 79 84 91 97 99 100 100 100 99 99 98 96 96 81 58 44 41 38 45 55 61 69 76 63 57 55 60 66 71
28 30 29 37 45 49 53 56 60 65 70 71 74 76 82 88 96 100 99 99 100 99 99 92 87 81 73 48 34 40 53 51 61 70 70 65 64 78 53 61 48 41 58
37 40 39 43 48 51 56 59 62 65 68 72 76 80 86 90 95 100 100 99 99 98 94 86 70 73 76 49 35 41 51 52 52 53 57 39 71 73 70 60 46 49 59
50 50 50 49 51 55 60 62 62 66 68 74 78 84 89 92 95 100 99 99 100 95 92 75 74 77 72 68 48 36 46 43 46 47 48 55 50 67 81 59 53 64 65
57 55 55 57 62 65 66 67 68 74 77 82 86 88 94 98 99 100 99 100 99 96 90 78 72 70 72 75 86 65 54 53 49 47 48 58 46 55 59 50 57 77 67
62 62 62 68 72 73 71 73 80 85 85 86 90 91 98 100 100 100 100 100 99 90 74 64 55 55 55 62 64 84 86 68 56 52 54 63 44 36 32 34 47 71 65
54 56 58 62 69 72 75 74 85 85 85 84 85 89 99 100 100 100 100 99 99 89 64 54 50 46 45 46 52 58 79 78 78 60 45 56 53 45 45 38 37 41 54
64 63 60 60 63 70 72 73 82 84 86 85 81 89 98 100 99 99 98 98 92 85 61 53 51 47 46 36 32 37 52 62 61 67 67 67 61 50 47 46 47 50 55
85 77 74 74 76 77 77 76 77 80 87 92 90 91 98 100 100 100 99 99 92 81 69 61 56 48 43 41 38 41 52 62 62 70 70 70 62 50 46 42 44 48 54

GFSMW_925_rhum_084.txt.gz
RH
37 31 30 33 63 65 68 69 73 72 70 71 76 75 75 72 69 64 67 69 72 74 75 78 77 75 77 73 74 75 75 77 79 82 81 76 76 72 72 69 67 62 63
37 32 30 31 37 71 72 70 73 74 71 70 71 73 71 72 70 68 68 74 75 75 76 77 79 79 83 80 83 86 86 82 78 86 85 86 70 62 59 63 62 62 61
36 36 31 29 28 44 60 67 72 73 71 73 77 77 79 78 80 83 84 79 80 83 82 84 87 88 90 87 86 87 95 94 87 78 82 90 89 74 60 62 62 62 63
28 36 34 31 29 30 44 47 58 76 82 83 83 75 82 82 82 84 81 83 90 87 86 89 94 95 91 93 92 90 87 90 91 90 86 88 83 90 86 67 65 65 67
34 35 37 29 30 33 39 44 48 58 67 74 78 78 72 51 60 65 70 58 53 52 52 53 56 61 69 78 88 86 90 89 94 92 86 94 88 80 90 93 81 71 72
34 35 37 30 36 38 42 48 48 49 50 50 46 44 43 42 41 46 50 57 64 65 59 58 61 66 69 73 80 85 90 91 86 90 86 91 93 91 98 99 94 89 79
34 36 46 42 52 52 48 52 50 52 53 52 51 51 51 49 51 58 59 62 66 73 73 66 66 67 66 65 67 73 86 92 85 85 86 83 87 97 95 94 93 93 86
36 38 45 45 52 61 62 55 54 58 58 58 58 58 57 59 61 63 64 66 68 72 70 66 67 68 66 65 67 72 91 89 88 95 90 94 92 90 94 96 96 98 95
31 41 44 46 52 60 62 59 58 59 61 63 61 61 61 62 61 62 65 67 66 66 66 67 68 68 66 66 67 74 85 88 89 95 93 99 99 100 99 98 97 93 97
27 37 38 44 53 56 60 57 59 61 63 62 63 63 62 63 62 65 64 64 66 65 66 68 69 70 70 71 72 81 90 94 96 92 97 96 97 96 94 96 95 94 92
35 37 38 43 52 56 56 58 61 62 62 62 62 62 58 60 61 60 61 62 64 66 69 70 73 75 74 75 78 84 86 92 92 92 92 93 94 95 92 93 93 95 96
40 43 46 51 55 58 60 59 59 60 60 60 60 63 63 62 63 65 67 68 72 72 72 74 77 79 80 82 82 84 87 90 90 91 91 90 92 91 89 89 92 93 92
44 51 56 58 56 59 59 59 61 62 64 62 61 62 64 68 70 71 72 74 76 78 79 79 81 83 84 88 88 87 86 86 87 87 87 90 92 93 96 96 97 96 94
50 54 60 61 56 58 56 57 58 60 62 63 64 67 70 71 73 76 78 80 82 82 84 85 86 88 92 97 97 96 94 91 92 91 91 92 94 97 98 96 90 94 89
51 55 61 65 56 56 56 58 58 61 63 64 66 68 70 73 76 80 84 85 86 88 88 89 92 98 99 98 98 98 98 98 98 98 96 95 95 96 92 88 80 82 83
35 53 58 58 56 54 54 55 58 62 63 66 67 69 72 75 78 83 87 91 92 92 91 93 92 96 96 96 100 100 98 96 94 93 86 74 72 82 79 83 53 59 60
40 42 56 56 52 51 52 55 59 62 65 68 70 72 75 78 82 87 90 96 95 94 97 98 97 96 98 98 99 100 98 96 89 71 62 58 52 54 53 74 70 77 69
41 42 49 49 47 49 52 55 59 63 67 68 70 73 76 79 84 90 94 97 97 98 99 99 97 98 98 99 96 92 85 68 55 64 59 68 74 51 50 50 55 63 52
43 39 35 39 45 48 52 55 60 65 68 69 69 72 76 82 87 94 98 99 98 99 99 98 93 90 81 77 43 35 39 44 49 59 64 64 68 59 54 50 41 43 50
46 42 41 38 46 50 53 56 61 65 69 70 72 74 78 85 88 95 99 100 100 99 99 94 88 79 66 56 44 54 55 54 52 56 57 56 68 65 52 55 45 52 61
56 54 51 53 53 53 55 60 63 67 68 71 74 78 83 88 87 93 98 99 100 100 97 90 72 65 72 63 50 37 48 45 46 46 45 48 45 58 77 52 50 61 64
61 58 62 63 60 58 59 64 65 67 68 73 76 82 87 90 91 97 100 100 100 99 94 88 73 72 66 70 69 48 41 49 45 47 46 49 51 48 56 50 55 57 58
66 64 66 68 67 66 66 69 74 72 75 79 83 87 91 96 98 100 100 100 100 99 95 86 74 68 65 63 80 93 86 68 47 47 46 50 57 38 35 32 35 68 49
60 61 67 73 74 72 72 73 78 78 80 84 87 90 93 99 99 100 100 100 99 98 89 74 66 57 52 49 50 64 80 83 82 52 50 44 48 49 42 46 36 34 37
63 61 61 63 69 71 72 75 76 78 81 82 84 89 93 99 99 99 98 99 97 95 92 74 58 52 47 41 36 35 42 56 58 64 58 61 63 53 44 38 38 40 44
84 77 73 73 72 72 72 74 77 78 82 85 85 88 94 99 99 99 100 100 96 95 95 75 57 52 47 42 40 39 45 51 64 72 65 60 58 58 50 43 41 40 46

GFSMW_925_rhum_087.txt.gz
RH
44 30 39 61 75 76 76 78 82 82 83 84 77 74 73 63 67 71 70 68 69 74 76 78 76 77 77 78 78 80 80 78 80 85 71 68 68 64 64 65 72 74 67
45 38 32 34 50 73 73 72 77 77 75 70 73 70 69 69 66 69 70 73 75 76 77 78 78 75 76 79 81 85 83 81 71 78 79 90 73 62 63 60 69 64 63
45 42 38 33 36 60 76 71 72 72 71 70 70 73 72 73 71 70 74 77 74 69 72 76 76 78 78 81 81 82 89 90 73 72 81 88 93 85 66 65 64 62 62
44 42 37 34 30 47 60 70 73 71 69 71 73 69 64 68 75 72 73 82 78 80 87 88 89 87 89 88 89 88 86 83 87 77 84 93 94 89 91 71 69 67 68
43 44 39 34 29 37 51 52 66 81 77 79 68 73 71 74 78 85 87 82 83 81 67 58 55 58 63 70 77 80 77 83 88 92 87 80 80 92 98 94 80 77 80
42 42 36 33 32 34 41 46 49 60 75 80 82 81 75 67 71 70 69 61 50 52 53 50 52 57 63 67 72 77 79 80 85 84 82 82 85 92 95 97 92 85 94
43 44 50 46 53 53 43 42 46 50 54 55 50 54 55 49 46 44 47 56 63 67 65 63 60 62 62 62 63 65 70 87 92 85 80 81 91 98 94 92 93 92 93
44 46 52 47 53 52 51 54 51 51 51 49 49 49 47 46 49 55 59 63 67 70 71 65 62 63 64 63 63 65 73 92 94 82 88 85 83 91 98 97 95 99 99
34 47 52 49 54 54 53 53 55 57 60 58 57 57 56 56 58 60 61 62 64 64 63 61 61 61 61 61 62 64 76 91 92 89 91 88 92 96 99 100 96 95 97
37 45 56 56 55 53 54 55 56 59 63 62 61 59 61 58 58 60 60 61 61 62 61 62 62 63 64 65 67 71 81 82 89 90 100 97 96 96 96 96 93 92 92
39 42 48 57 59 59 58 59 61 62 62 61 60 58 59 63 63 60 61 62 64 64 64 66 68 70 71 72 74 79 82 87 90 93 97 90 92 94 91 92 92 92 92
45 47 50 58 61 62 62 62 62 61 60 58 58 52 52 52 53 61 63 67 67 69 70 72 74 76 77 78 80 81 82 88 90 92 93 90 93 92 91 89 87 88 86
48 55 61 68 67 65 63 64 65 66 65 64 57 54 58 60 64 64 67 69 69 72 74 74 76 78 80 83 86 86 85 87 88 88 87 88 90 91 90 90 92 92 94
56 62 68 69 64 64 62 63 64 63 63 64 68 71 69 68 68 69 67 69 75 77 80 80 81 83 86 88 93 95 90 88 89 90 88 90 90 92 94 96 94 95 90
60 63 69 75 64 64 62 62 63 63 64 64 65 64 66 68 69 71 74 78 81 83 85 86 88 90 97 96 96 94 95 97 96 95 94 94 95 94 94 93 86 89 90
53 60 63 68 68 63 62 61 61 63 62 62 64 66 70 72 74 76 79 82 84 87 88 90 90 92 95 94 95 99 99 97 96 96 93 83 81 88 90 82 68 70 85
46 46 62 64 64 63 59 60 60 61 62 63 66 70 72 74 77 80 84 88 89 91 92 93 93 94 98 96 100 99 96 96 94 85 63 48 54 50 74 82 78 78 73
52 49 50 59 58 57 58 57 59 62 64 66 68 71 72 76 80 84 88 91 92 93 95 97 96 97 98 96 99 94 97 96 82 61 62 59 50 47 54 53 56 53 48
63 56 42 40 53 55 55 56 62 63 65 68 70 73 75 78 84 88 92 97 98 97 97 99 98 97 94 96 89 78 72 57 59 60 63 66 69 61 51 38 43 50 47
60 61 57 49 44 55 57 61 67 67 68 68 70 72 74 77 84 88 93 99 99 96 98 98 95 89 82 82 76 42 46 49 55 62 64 62 66 65 54 49 42 44 58
63 60 62 65 58 58 62 68 70 71 65 67 70 72 75 78 84 88 94 99 99 100 99 97 92 86 70 58 76 62 48 47 48 46 44 49 67 64 70 51 43 55 59
68 69 69 70 68 69 64 68 69 66 68 70 73 75 78 84 88 89 90 99 100 100 100 98 91 74 66 68 77 71 60 43 44 44 43 44 53 47 66 63 50 67 67
67 70 71 71 68 64 62 67 68 68 69 72 76 80 85 89 89 91 97 100 100 100 99 96 90 76 69 69 72 77 67 69 45 43 42 43 53 43 46 41 48 65 57
64 67 70 74 74 72 71 69 71 71 72 76 81 85 89 91 94 98 100 100 100 100 99 96 90 82 69 64 64 88 92 89 85 50 57 56 52 45 38 38 54 43 45
63 63 67 72 72 71 73 76 77 77 79 81 84 89 90 95 97 99 98 99 99 97 96 93 88 77 64 53 46 45 62 73 79 76 62 61 63 56 51 45 38 33 35
74 72 69 68 69 69 72 73 76 80 81 84 87 89 91 96 98 99 100 100 99 97 96 96 91 80 63 49 42 39 38 41 60 88 75 64 57 59 49 45 39 38 37

GFSMW_925_rhum_090.txt.gz
RH
45 52 72 79 83 80 76 79 78 82 84 87 78 74 79 76 67 64 67 64 69 72 75 76 78 78 74 77 77 79 80 80 80 78 68 66 62 60 60 63 68 70 77
45 41 51 74 79 80 80 84 78 78 79 79 81 80 76 77 66 66 69 75 74 76 76 79 80 78 75 79 82 80 82 79 68 73 72 90 75 65 67 65 63 75 71
49 46 41 40 56 78 76 79 78 77 76 84 86 78 74 71 70 71 70 71 77 78 80 82 80 77 71 72 74 78 84 79 71 72 77 91 90 85 67 69 67 68 67
50 47 42 39 37 56 69 73 71 72 73 80 82 78 74 76 70 70 71 84 82 76 75 76 81 83 78 77 84 89 88 90 88 84 80 81 96 93 86 71 73 73 75
54 49 45 35 32 36 66 71 79 76 72 72 72 73 68 67 69 71 74 83 76 78 72 83 86 84 84 80 73 76 81 82 84 90 86 80 78 79 90 89 82 87 87
49 49 39 35 33 33 53 68 72 80 82 74 75 71 68 72 73 80 81 82 83 80 72 51 44 44 47 51 57 63 69 76 78 80 87 90 83 78 98 99 92 90 96
48 49 50 47 39 36 52 59 68 76 86 83 91 90 82 75 77 82 84 78 69 57 50 49 50 52 55 58 58 58 61 66 78 88 89 85 85 94 98 98 92 94 97
45 47 52 48 44 37 47 52 54 55 61 75 71 78 74 74 70 67 62 59 52 53 58 58 58 56 58 60 61 60 63 69 80 94 91 81 85 85 88 99 94 99 100
35 47 51 49 52 49 48 46 48 52 57 59 59 58 56 52 50 54 56 60 66 66 67 64 61 61 60 61 61 62 64 77 89 95 91 84 86 90 93 99 100 97 98
39 49 59 55 56 56 51 54 53 54 57 59 60 57 55 58 58 61 63 63 63 64 64 64 64 62 63 64 64 65 70 81 82 90 88 94 99 96 93 95 94 95 92
42 45 58 58 58 60 58 58 57 57 62 62 61 56 57 52 46 50 52 55 56 55 57 59 60 62 67 67 67 69 76 79 86 90 91 97 96 94 91 90 91 93 93
48 48 49 62 63 62 64 62 64 65 64 64 60 63 48 54 54 50 52 52 57 58 61 61 66 68 70 73 75 75 78 80 89 91 92 95 94 92 90 91 89 89 88
46 56 66 68 70 68 68 66 68 67 66 65 62 61 66 62 55 48 52 59 61 63 68 71 72 73 74 77 82 83 83 84 88 92 88 86 89 90 91 91 90 90 89
55 59 66 73 68 67 66 66 67 66 66 66 66 63 61 65 63 66 66 68 70 71 74 76 76 77 78 83 88 92 89 88 87 88 88 87 87 87 90 90 90 92 89
55 63 67 73 69 68 66 66 66 67 67 65 64 60 63 71 71 71 70 71 75 77 78 79 82 83 88 94 95 94 92 93 92 90 90 90 92 93 94 94 92 95 91
46 60 65 68 71 68 66 66 67 66 66 64 64 65 68 70 71 73 74 78 80 81 83 86 88 89 92 91 93 99 97 98 98 96 96 94 94 93 92 85 76 85 90
50 50 51 61 62 61 63 66 65 66 67 65 64 65 68 71 76 77 77 78 81 85 87 89 90 91 94 96 95 99 99 96 94 94 86 62 60 75 77 84 80 83 67
59 60 60 54 49 57 63 61 64 65 66 66 66 69 72 74 76 79 82 86 87 89 91 94 95 94 95 97 99 96 97 96 94 82 54 44 42 46 60 56 58 47 49
68 66 61 60 50 56 60 62 66 65 67 67 68 70 72 75 79 83 86 89 92 94 94 94 95 94 95 97 99 94 94 98 85 62 58 63 60 61 45 44 49 46 42
66 65 60 60 60 51 65 66 69 72 71 67 67 68 72 75 79 82 87 92 97 98 97 100 100 97 94 94 93 60 70 61 59 58 61 62 63 74 64 40 36 43 51
66 67 69 72 68 62 67 70 73 73 64 65 66 69 73 75 78 84 90 93 96 99 97 100 99 91 88 77 84 58 47 45 52 58 61 65 75 78 72 49 40 43 54
67 69 73 74 74 73 76 76 76 69 68 66 69 72 74 77 82 87 90 94 99 99 100 100 98 94 88 69 78 78 68 46 47 43 42 39 60 70 78 75 45 66 58
68 70 73 73 73 75 76 80 79 71 69 70 72 74 76 81 85 89 92 93 98 100 100 100 99 94 80 68 75 81 76 68 51 42 41 40 54 70 69 73 54 68 74
68 71 76 77 75 72 69 68 69 68 69 72 76 79 82 87 89 91 92 94 100 100 100 99 98 93 86 68 62 82 80 72 75 52 44 45 56 60 51 45 56 59 59
66 68 72 75 76 73 73 73 72 72 75 76 80 84 86 91 92 94 94 99 98 98 98 97 95 92 89 81 61 58 76 85 85 87 58 73 72 61 54 45 42 50 45
71 70 70 72 71 71 70 74 77 76 78 83 88 89 91 95 95 95 99 99 99 99 100 98 94 89 88 82 65 49 47 56 74 98 82 66 62 61 55 51 47 42 36

GFSMW_925_rhum_093.txt.gz
RH
67 67 82 89 89 80 79 73 70 65 72 78 72 77 77 64 79 66 67 68 66 70 70 70 72 76 77 74 75 77 78 76 78 77 69 64 60 59 60 65 64 62 71
50 46 53 80 89 82 82 68 71 71 72 74 60 77 78 76 77 74 72 72 69 72 73 76 78 80 78 77 74 78 79 72 66 71 75 89 74 65 69 69 66 71 81
52 51 43 60 79 84 89 83 80 84 75 72 82 89 89 80 81 75 72 75 77 79 79 82 85 84 82 81 73 74 76 72 80 74 76 90 94 87 67 71 68 73 75
53 49 48 42 49 68 79 74 65 66 66 71 83 88 94 90 80 70 73 73 71 66 69 74 81 91 90 83 80 80 79 90 92 89 84 83 90 93 90 74 79 76 79
58 53 49 41 36 35 39 76 87 61 64 68 67 72 93 84 78 76 73 85 90 88 81 80 86 90 92 88 86 85 84 87 84 85 90 88 82 80 91 93 87 89 90
58 56 46 41 38 35 34 39 73 86 67 63 72 74 70 77 83 90 93 98 99 92 87 83 79 67 53 44 45 52 60 68 74 77 82 92 89 86 91 97 89 88 98
57 55 53 49 41 39 34 35 58 75 78 80 79 69 64 77 86 92 98 99 91 84 78 65 53 49 46 53 55 57 59 62 68 78 87 91 95 95 97 84 92 98 100
52 52 52 47 44 39 38 37 56 75 85 85 86 88 79 79 86 90 94 95 89 80 70 58 58 57 58 57 59 59 62 64 71 79 95 98 91 85 86 98 93 97 100
38 42 55 49 43 41 40 39 55 64 67 75 77 81 84 88 89 87 84 83 84 69 59 60 57 55 56 58 56 57 60 64 72 84 97 95 89 84 90 93 99 99 96
42 47 60 58 54 57 56 51 56 57 59 61 63 66 74 78 77 68 65 67 67 64 63 57 56 55 53 54 56 57 59 65 74 80 87 89 92 99 97 97 97 99 100
43 49 52 62 63 63 62 58 56 56 59 60 62 62 62 62 61 55 52 47 51 54 52 51 56 58 58 60 63 65 67 73 78 84 90 88 90 98 97 94 92 94 95
50 57 59 62 67 68 65 62 60 60 62 66 65 64 64 66 63 56 47 50 53 60 56 58 63 64 62 62 70 72 75 76 80 90 94 90 92 94 92 92 90 91 90
53 57 63 66 64 67 66 63 62 62 64 66 66 65 63 59 60 65 65 65 65 60 59 60 61 66 70 72 74 77 80 82 84 90 96 86 85 88 86 90 91 90 91
52 58 62 66 62 63 65 65 64 66 66 67 66 64 64 62 64 61 59 59 63 63 66 67 68 69 73 78 81 86 87 88 88 88 88 87 86 88 88 90 92 93 92
46 55 61 67 65 67 69 69 68 69 70 68 66 64 61 61 59 59 64 69 70 72 74 73 74 78 82 86 89 92 94 92 91 89 89 89 90 92 93 94 93 94 93
47 48 58 66 65 62 63 69 71 70 71 70 68 66 64 62 66 71 70 72 75 78 78 79 82 84 86 90 90 92 96 96 96 95 95 95 96 95 91 89 86 89 91
55 58 57 57 53 53 53 60 64 71 72 72 70 68 66 70 72 72 74 77 79 79 82 86 87 89 89 90 91 96 98 99 99 97 94 86 82 86 79 88 84 84 86
58 59 61 60 54 52 51 56 63 70 72 72 70 70 72 71 73 75 77 80 83 85 86 89 91 90 89 92 96 97 97 98 96 94 88 59 47 52 66 56 55 48 50
65 65 62 60 59 58 56 64 70 70 73 72 72 70 70 73 76 79 80 84 88 89 89 90 91 92 91 93 99 95 94 97 97 88 65 53 46 45 56 55 49 44 49
63 66 65 66 67 58 64 73 76 76 76 70 69 67 67 70 75 78 83 85 88 89 93 94 96 96 94 94 99 99 96 95 96 74 60 62 66 69 70 38 47 45 50
64 64 68 73 70 69 74 80 79 80 66 69 68 68 70 73 74 78 83 86 90 95 99 96 96 97 96 93 98 90 48 60 59 55 56 64 78 83 77 52 42 39 48
67 63 72 72 70 72 79 84 83 70 76 72 70 70 71 75 77 79 85 91 94 95 98 96 100 99 93 90 86 88 74 50 51 48 49 54 66 82 80 79 47 55 55
69 65 73 75 72 73 78 87 84 82 78 74 73 74 75 78 79 83 88 96 98 97 98 100 100 98 96 93 86 80 82 78 62 45 44 42 42 77 73 81 61 74 85
70 64 71 78 78 74 76 79 82 81 76 77 78 78 79 84 86 86 88 92 95 98 100 100 100 98 96 92 79 71 83 82 74 63 45 45 45 73 67 63 72 66 62
77 68 73 76 75 76 79 77 77 78 78 80 87 88 86 90 90 91 91 92 91 92 98 98 97 97 95 89 86 66 64 77 75 71 68 54 66 70 65 56 46 45 54
88 74 73 74 75 74 81 81 77 76 77 83 88 91 94 95 93 93 95 94 96 96 98 98 98 95 93 91 89 84 62 61 79 95 88 74 63 66 59 52 46 42 43

GFSMW_925_rhum_096.txt.gz
RH
75 94 91 72 64 83 77 71 63 61 72 84 92 82 55 81 77 83 76 69 66 66 68 68 68 69 69 74 77 77 75 73 74 78 69 65 61 62 63 66 67 66 68
53 51 75 100 84 73 72 72 68 63 75 67 60 86 89 85 83 79 78 72 68 66 69 73 71 72 76 78 76 74 70 69 68 69 74 89 72 70 70 70 68 67 76
53 50 51 80 97 94 90 86 77 76 73 66 77 70 73 76 84 78 80 78 74 70 74 75 76 82 82 78 75 73 70 75 76 72 77 84 93 89 74 79 76 75 72
54 50 49 45 72 83 88 73 73 69 70 68 72 75 75 88 77 62 69 86 87 89 89 85 86 74 63 74 80 84 79 81 85 90 91 88 90 90 86 86 86 84 80
58 53 50 44 40 40 56 78 72 60 61 65 63 61 78 72 74 64 89 99 100 100 100 100 100 80 86 87 94 91 94 91 92 89 88 89 91 95 98 95 92 91 91
60 57 47 44 40 39 39 37 43 63 69 67 67 68 62 67 69 95 97 100 100 100 100 100 89 92 86 76 65 59 56 63 70 75 82 88 89 89 94 98 92 93 96
59 59 57 52 43 40 39 39 38 42 64 86 81 81 71 76 77 89 98 98 99 99 100 96 88 70 56 53 54 57 57 60 61 69 76 87 93 99 98 100 94 93 100
55 54 55 51 45 39 38 40 40 44 64 80 87 89 91 90 94 93 96 98 97 94 96 88 81 67 55 54 54 52 54 55 59 65 75 88 98 97 95 97 100 96 100
49 47 54 54 48 42 40 44 47 54 73 85 83 82 87 88 91 94 95 96 92 85 88 84 78 74 58 50 54 53 57 59 63 68 80 93 96 94 91 92 100 99 95
47 50 56 64 58 54 49 48 52 56 65 67 70 72 76 86 92 97 99 92 88 88 84 69 58 54 51 53 52 57 61 61 64 74 80 84 86 91 91 99 100 100 97
53 55 58 59 66 67 64 60 59 60 60 59 59 63 69 81 91 91 90 83 72 64 55 47 47 50 51 54 57 62 62 66 71 76 82 88 88 91 90 97 98 98 99
55 57 61 60 62 68 68 65 62 59 58 60 62 64 65 70 74 71 70 69 64 60 59 59 64 68 68 66 64 66 68 68 74 79 88 94 91 90 89 91 91 92 93
46 53 56 59 64 66 69 69 67 64 61 63 65 68 70 69 69 70 68 64 65 64 67 64 59 64 69 69 70 68 72 77 79 84 93 96 84 85 83 83 88 91 92
49 52 58 60 57 60 65 70 70 71 71 71 68 66 66 66 64 60 57 63 66 63 63 64 69 68 65 68 73 78 82 85 88 88 88 87 85 86 84 87 89 92 94
48 48 51 58 59 58 57 62 67 69 71 72 72 69 67 66 65 65 64 60 63 67 69 67 71 68 72 76 81 85 91 93 92 88 88 87 88 91 92 91 91 93 96
51 52 54 57 58 58 57 58 60 65 71 72 72 71 69 68 68 64 66 70 70 68 69 69 70 75 78 82 86 88 90 95 97 94 93 92 95 97 95 91 90 93 98
57 58 59 60 55 52 51 51 51 62 71 73 74 73 71 68 67 69 74 72 70 70 72 74 80 83 84 86 88 91 88 96 98 97 96 94 90 91 87 87 88 86 92
57 58 58 59 57 56 55 56 57 62 70 74 75 75 75 72 72 75 74 73 75 76 77 80 82 84 86 88 93 98 88 91 98 96 94 87 65 60 65 58 56 45 54
66 64 60 62 63 61 59 62 63 67 76 78 76 75 76 75 77 77 76 78 79 80 80 84 89 91 92 94 100 100 97 93 96 96 89 66 45 42 60 57 51 48 54
66 65 61 64 64 59 68 74 72 77 83 78 75 74 75 75 76 75 77 80 82 82 87 92 94 96 96 95 98 99 97 94 94 94 85 60 58 57 78 51 49 47 49
65 62 65 69 65 64 73 81 81 87 68 79 79 76 74 74 72 74 78 82 84 90 94 97 97 95 93 95 94 100 88 85 94 91 63 53 75 67 79 69 42 42 45
74 72 72 69 62 68 75 81 87 74 82 81 79 77 74 75 76 77 83 86 91 95 97 99 96 94 95 95 91 99 78 41 42 42 45 50 61 86 82 79 49 48 51
80 79 78 73 65 68 74 84 76 84 86 84 81 79 78 77 77 81 86 94 97 95 96 98 99 98 97 95 92 94 94 92 59 44 44 43 45 66 82 82 76 79 75
73 81 87 82 77 69 72 77 80 87 90 87 87 88 86 88 87 87 88 92 98 99 97 98 99 99 99 98 96 95 84 84 83 76 57 45 44 46 69 66 82 72 70
75 83 86 86 82 73 75 79 83 89 93 92 92 91 89 90 92 90 89 90 89 88 92 96 97 98 98 93 92 88 77 68 83 79 68 55 61 64 76 67 59 64 62
88 89 87 90 83 85 81 84 83 88 88 94 95 94 97 96 94 95 98 98 95 92 93 94 94 93 94 94 91 90 87 64 74 85 74 70 59 59 62 62 56 49 44

GFSMW_925_rhum_099.txt.gz
RH
87 86 81 88 86 76 65 71 55 48 58 78 98 96 93 81 99 85 80 74 74 74 73 71 72 73 67 68 73 77 78 74 73 72 70 66 65 62 68 68 66 66 67
86 92 93 88 99 86 71 68 74 62 62 86 92 71 67 83 86 80 72 77 79 78 73 75 71 68 69 70 77 80 77 67 73 71 80 72 65 73 76 72 72 72 75
66 71 91 99 100 98 88 85 92 80 72 90 91 80 74 72 68 71 66 67 72 86 86 80 76 71 72 74 82 82 71 70 72 72 71 75 74 79 81 81 77 76 81
60 57 60 67 88 100 84 88 93 87 77 72 73 72 77 81 65 60 81 90 83 88 97 92 91 88 91 99 81 74 84 88 87 83 84 84 85 78 74 90 87 82 82
59 60 54 48 49 58 79 83 72 74 74 73 84 88 76 78 75 72 91 97 92 94 98 100 100 100 100 96 92 94 93 89 95 96 90 87 94 99 88 76 85 91 87
58 53 50 48 45 42 42 50 68 62 62 65 62 67 64 74 94 79 80 98 100 99 100 100 99 100 94 95 90 79 67 64 66 69 76 82 80 83 89 90 86 86 97
52 51 51 50 45 43 43 41 41 46 65 81 85 85 89 93 90 85 96 100 100 100 100 97 94 89 84 77 60 51 53 54 56 62 69 80 86 91 96 94 90 88 99
50 49 50 50 48 45 44 44 43 44 48 66 81 89 95 99 100 99 98 100 100 99 96 92 93 85 83 70 67 74 68 58 63 64 71 81 92 100 99 98 96 86 85
51 50 57 60 55 48 43 44 45 48 53 68 80 82 84 87 92 98 100 98 98 97 99 93 86 81 86 82 73 58 56 52 51 63 66 76 90 97 97 95 100 90 84
49 50 50 62 65 61 56 49 48 50 57 77 83 80 77 78 82 90 99 100 100 100 97 90 86 83 74 63 59 54 55 59 61 60 66 72 78 88 91 90 94 98 99
54 54 56 57 62 66 64 60 60 60 66 70 68 65 67 75 85 95 100 100 100 96 90 86 77 65 60 57 56 59 62 64 68 72 76 78 80 87 90 90 92 100 100
52 54 56 56 54 60 67 69 67 64 64 65 62 63 67 77 94 100 100 100 99 93 78 68 62 60 59 60 60 61 64 66 70 76 79 84 92 91 89 87 88 91 94
49 47 50 54 57 57 60 64 66 66 65 66 65 66 68 73 80 87 89 86 78 71 64 60 62 63 61 63 65 68 70 72 73 75 83 93 95 85 83 83 84 84 89
52 49 49 51 55 56 57 60 61 65 67 67 66 65 66 69 71 72 72 70 65 61 62 65 63 64 67 68 69 70 73 74 81 85 86 86 87 85 85 84 85 87 91
51 52 52 53 56 58 59 59 60 61 66 70 70 68 68 70 72 72 70 67 68 68 65 64 68 72 71 72 76 75 77 83 88 88 86 84 85 87 90 91 90 91 94
56 58 58 56 56 55 55 56 59 67 71 69 69 70 71 71 70 68 67 67 64 64 69 72 73 72 72 76 80 76 80 88 92 91 90 90 92 95 95 92 91 92 94
62 61 61 60 58 57 58 58 58 61 69 79 77 75 73 71 70 69 69 68 71 73 75 75 76 73 76 80 80 83 82 86 92 96 95 94 92 93 90 90 89 89 94
65 63 63 65 62 59 58 60 60 60 65 72 80 83 79 76 74 73 72 75 77 75 76 77 78 78 81 84 84 92 93 84 90 96 95 92 84 72 67 59 56 42 57
67 67 65 65 65 63 62 66 64 66 71 73 74 80 82 80 77 77 77 79 77 80 78 78 80 82 83 84 86 98 95 92 90 95 95 90 71 47 52 55 49 49 61
71 74 72 74 73 65 68 73 71 72 75 70 71 77 83 83 78 75 78 78 78 77 80 82 85 84 85 87 98 97 97 94 94 94 92 87 57 45 85 54 49 48 57
83 82 81 81 78 71 72 80 77 79 64 74 78 81 83 83 79 78 79 79 83 85 88 90 91 90 90 92 97 98 99 92 94 91 92 77 70 63 81 67 39 43 44
69 72 76 85 82 80 84 84 84 67 71 78 86 86 86 86 84 81 82 84 87 92 98 99 98 95 93 91 96 100 99 80 74 83 74 50 59 90 84 82 47 45 44
61 63 69 76 81 84 84 88 76 73 77 85 91 90 90 90 85 84 85 92 93 98 100 100 100 95 94 96 93 98 100 69 38 40 40 44 51 81 86 81 70 72 66
80 88 90 84 83 81 85 87 76 74 84 92 96 95 96 96 89 87 86 94 100 100 99 100 100 96 96 94 92 95 99 99 87 66 48 44 44 51 80 79 90 72 73
92 96 96 95 92 83 80 84 78 83 92 97 98 98 99 100 99 96 95 98 95 88 92 94 93 98 100 94 91 90 93 89 89 86 76 60 63 57 67 74 70 81 70
95 97 97 98 97 94 91 86 86 90 96 100 100 100 100 100 100 99 100 97 86 90 93 92 90 91 91 90 92 91 90 87 80 88 79 66 56 59 60 69 66 60 58

GFSMW_925_rhum_102.txt.gz
RH
71 75 96 92 87 80 87 85 90 87 83 85 94 99 94 97 92 82 82 80 79 81 87 84 82 81 73 67 67 70 72 72 72 71 60 62 65 64 67 68 68 77 81
93 94 94 90 98 95 88 78 84 70 79 84 87 94 93 98 97 96 80 85 86 81 87 82 80 79 76 70 71 73 78 74 71 60 60 55 50 59 71 72 74 76 80
95 94 89 92 93 96 93 85 78 69 53 86 94 95 81 92 99 93 89 83 89 86 87 94 97 93 83 76 75 82 78 70 77 74 60 62 54 56 64 74 74 75 79
76 91 85 92 90 91 77 78 69 75 66 75 95 86 79 76 72 71 78 78 77 73 68 81 89 93 91 98 99 99 95 80 76 83 78 82 79 67 54 70 76 78 78
59 72 84 94 98 86 87 90 86 90 86 93 88 87 90 86 78 68 67 66 79 81 83 85 98 99 99 97 99 100 93 90 93 90 92 84 80 77 66 57 55 78 81
58 54 54 57 65 88 99 99 94 91 89 78 84 94 93 90 78 74 80 86 92 96 97 100 100 100 96 93 92 92 90 74 67 64 69 69 53 51 61 59 57 58 68
45 44 44 45 47 54 54 69 93 99 100 98 87 96 90 70 76 80 81 91 100 99 99 100 100 100 94 87 88 82 73 60 54 62 65 66 70 75 72 70 66 68 74
40 43 43 44 45 51 52 51 50 54 68 86 97 100 97 85 97 98 100 100 100 99 99 100 100 97 89 80 70 72 71 65 66 57 67 83 85 87 84 81 77 78 66
39 40 44 52 55 53 52 49 49 51 58 71 85 96 98 100 100 100 100 100 100 100 100 100 96 93 91 90 90 85 82 77 66 63 64 91 91 97 96 98 95 87 76
36 38 40 48 57 62 66 62 55 55 62 73 81 86 89 96 98 99 100 100 100 100 100 100 100 98 93 89 83 72 65 63 61 61 70 90 95 96 97 98 95 96 90
36 36 37 45 52 59 65 66 66 66 66 79 84 85 84 87 94 99 100 100 100 100 100 100 94 92 88 76 64 57 55 56 59 62 75 88 88 94 95 99 98 95 99
37 34 36 38 41 50 58 65 67 68 72 75 70 68 74 79 89 98 100 100 100 100 98 94 88 78 68 64 62 58 60 62 64 68 72 84 87 95 93 92 93 96 99
37 33 33 35 37 43 50 57 64 68 72 74 72 73 72 79 90 96 100 100 100 94 89 83 74 69 66 68 70 68 67 72 76 79 83 87 89 90 84 86 86 92 95
38 39 38 37 39 43 48 51 57 66 74 76 74 71 73 77 82 89 96 95 90 88 80 71 69 66 65 64 62 66 72 77 83 88 88 88 88 85 90 92 91 94 96
44 45 44 40 40 40 42 45 49 59 71 74 76 75 75 76 78 80 81 81 78 74 71 70 72 73 69 69 71 74 83 84 87 90 88 91 88 83 88 91 93 96 97
47 45 44 44 44 44 47 51 51 52 59 68 74 76 79 78 79 79 78 77 76 75 74 76 74 73 71 67 69 79 84 86 86 89 95 91 85 89 90 90 91 92 98
50 48 46 47 49 50 52 51 53 56 59 58 60 72 79 79 78 79 79 79 79 80 78 78 79 81 79 74 79 81 88 92 95 98 95 92 91 92 98 91 89 89 91
46 46 48 52 54 56 56 57 57 59 62 65 64 65 76 81 81 81 79 80 81 82 84 86 85 85 86 80 85 83 85 84 87 91 92 91 90 87 83 72 64 64 71
49 51 53 55 58 60 59 59 63 62 64 68 67 68 73 81 82 85 84 85 87 87 85 86 86 89 88 83 88 95 95 94 94 94 94 92 87 77 64 66 61 60 76
54 56 56 60 61 57 58 62 60 65 64 66 70 73 76 79 81 85 87 90 90 86 85 86 87 86 91 88 94 94 94 90 93 93 93 92 79 59 74 59 55 53 66
57 57 57 56 57 60 65 66 67 70 70 73 77 82 85 84 82 85 86 92 91 94 96 95 95 93 89 95 100 92 92 86 88 90 91 88 80 50 83 68 53 49 63
69 72 72 74 73 76 72 69 70 74 76 78 81 84 91 92 92 90 92 93 95 96 98 100 97 92 92 93 100 99 96 96 89 87 85 83 70 70 85 82 55 43 53
63 68 73 75 83 86 90 83 78 72 75 79 80 83 89 94 96 97 98 96 96 98 100 100 100 95 95 97 94 97 99 98 85 79 77 63 47 92 88 86 58 70 69
73 76 79 87 95 87 90 96 91 77 77 80 78 80 91 96 97 97 96 90 94 97 99 97 93 92 98 95 99 96 99 97 59 40 44 45 60 84 81 88 85 75 75
79 79 84 95 96 98 99 99 100 93 82 85 87 91 96 98 97 95 94 89 88 87 90 92 93 94 96 96 96 99 99 99 88 68 67 66 66 69 86 87 86 86 80
81 81 91 97 97 100 99 100 100 97 93 88 92 98 99 99 99 97 99 95 93 93 92 90 85 88 85 89 89 92 93 98 100 94 77 65 63 65 68 73 77 80 82

GFSMW_925_rhum_105.txt.gz
RH
60 72 90 84 82 74 92 84 84 75 80 80 91 91 90 84 80 78 74 73 76 80 81 76 74 72 70 67 63 62 61 63 63 61 60 56 54 57 60 60 59 70 75
78 94 99 98 87 97 91 99 96 86 84 81 78 86 90 87 88 85 82 76 76 76 79 81 82 82 80 73 64 61 63 66 66 66 61 55 47 58 63 63 66 68 73
93 97 96 97 94 83 99 92 89 89 84 81 82 81 86 76 92 95 93 87 83 83 85 82 82 83 86 85 77 70 70 78 75 70 55 57 61 50 62 66 65 66 70
92 94 97 97 95 93 100 91 91 83 91 92 84 86 81 81 82 81 79 74 80 86 82 76 79 78 82 91 87 94 96 89 81 78 76 74 72 68 56 64 69 70 69
89 93 95 94 85 92 99 93 86 87 83 93 88 92 82 81 72 77 79 79 73 73 70 72 81 78 80 91 91 93 87 94 97 84 82 70 73 80 75 70 61 72 72
79 85 95 98 99 92 90 94 99 93 76 82 78 92 91 76 97 87 93 97 91 84 81 85 80 79 84 85 88 94 85 84 89 78 83 74 79 85 68 62 53 52 62
71 75 71 67 67 90 99 90 89 83 77 74 78 79 72 65 74 72 75 81 100 94 88 68 78 99 100 99 95 96 92 89 84 82 63 69 70 72 67 63 62 62 63
48 47 47 47 50 55 58 73 87 84 72 78 76 80 76 69 76 77 88 83 100 99 88 82 98 100 100 100 100 100 96 90 80 70 63 66 72 74 78 74 72 74 68
45 45 46 48 48 48 50 52 51 55 63 80 91 89 85 80 86 80 78 85 99 100 99 100 100 100 100 100 97 88 79 75 67 68 69 75 79 82 84 86 87 82 78
36 38 40 45 52 56 59 58 51 48 51 58 68 74 87 97 99 99 99 99 100 100 100 100 100 100 99 91 81 85 84 80 81 75 68 66 70 75 86 92 91 90 90
33 34 36 39 44 51 57 58 59 58 58 66 69 76 78 86 90 98 99 99 100 100 100 100 100 100 95 93 90 84 81 77 69 66 64 73 84 90 92 94 93 92 89
33 32 33 34 37 42 48 55 60 60 64 69 74 75 76 82 84 88 98 100 100 99 100 100 100 97 91 84 79 75 70 69 72 69 74 82 88 86 90 90 92 91 91
35 34 33 34 36 38 42 45 52 60 65 68 67 67 72 76 80 87 99 100 100 100 100 100 96 87 79 77 68 66 62 64 65 68 69 78 85 88 86 83 83 86 88
40 40 38 35 35 36 37 39 43 50 60 67 69 68 67 70 74 84 94 100 100 100 97 94 87 75 71 65 63 65 66 68 70 74 77 80 84 83 84 85 84 86 88
40 40 39 37 36 36 38 41 45 46 49 57 65 69 70 70 71 77 85 91 94 95 88 83 75 69 67 66 69 70 71 74 76 79 84 84 85 84 84 86 89 90 91
42 40 39 38 39 40 42 45 43 44 48 52 52 60 69 72 73 74 76 80 82 80 80 72 72 72 72 70 68 65 70 75 80 84 84 87 86 81 81 82 86 91 91
37 36 36 38 42 45 48 48 48 49 50 51 53 53 58 71 73 74 76 76 76 74 72 72 74 76 73 68 67 73 78 81 83 86 92 96 93 92 91 88 84 86 86
32 33 35 37 40 41 41 44 49 51 54 56 58 59 58 62 74 75 75 76 77 78 77 77 76 78 79 72 71 74 83 87 90 93 96 92 89 90 93 86 78 72 76
37 41 44 46 47 47 48 48 48 47 50 52 56 59 62 64 66 77 79 78 79 80 80 79 80 81 82 76 74 76 87 90 91 94 97 95 91 87 84 69 59 59 70
46 50 54 56 53 53 55 55 54 55 55 54 57 62 65 67 70 72 82 83 83 84 82 83 82 82 86 82 85 97 91 92 93 95 94 91 88 83 79 64 58 55 70
50 54 56 59 61 62 66 70 75 71 66 64 68 70 73 73 75 76 78 86 89 89 90 89 89 87 87 89 98 99 93 84 88 89 91 92 88 76 82 51 54 52 61
51 54 59 62 65 68 74 81 84 85 84 79 75 71 73 77 79 85 84 87 93 92 94 95 91 90 87 88 96 98 88 83 86 86 87 87 89 73 75 81 58 51 63
59 66 71 74 76 78 87 90 81 86 89 88 84 75 68 73 76 85 92 89 92 89 90 90 88 88 86 89 97 100 99 94 87 85 80 83 86 77 84 91 68 61 60
65 70 74 70 72 82 87 95 100 100 100 99 97 84 73 74 75 83 93 92 90 89 90 90 90 88 90 92 100 100 100 100 94 77 79 76 65 82 82 88 78 66 67
70 73 74 73 78 89 91 98 100 100 100 100 99 93 85 82 85 91 93 92 88 88 86 88 88 89 94 93 96 100 100 99 95 58 54 68 75 88 86 88 86 73 75
70 74 77 80 82 90 92 97 99 100 100 99 98 95 91 94 98 100 98 97 94 87 87 88 87 88 90 93 95 95 99 99 91 61 65 66 67 72 84 89 88 87 83

GFSMW_925_rhum_108.txt.gz
RH
58 64 81 87 86 87 87 83 98 90 83 64 73 71 72 74 77 82 84 86 83 84 78 81 76 70 69 68 66 65 63 61 60 62 53 56 54 60 60 60 61 65 70
67 94 100 99 93 100 96 94 97 84 82 58 69 75 79 76 74 73 74 77 82 82 83 75 75 73 72 71 69 64 63 63 62 67 66 79 61 61 58 57 63 68 74
84 94 96 99 94 93 96 99 95 87 78 65 66 67 75 86 83 82 79 76 73 74 79 80 81 82 79 80 76 76 74 72 69 71 72 78 76 69 63 64 66 66 71
94 91 94 95 98 95 95 97 100 98 89 86 86 86 69 64 80 73 74 76 78 78 78 76 77 75 73 74 73 77 80 76 89 92 84 75 76 80 72 70 67 66 69
95 97 96 94 84 91 92 100 100 95 94 94 84 83 85 86 80 80 80 73 79 79 77 72 70 73 70 66 66 74 68 77 89 96 95 84 74 70 89 89 73 72 69
97 96 93 89 90 86 97 97 87 96 91 88 82 75 79 78 84 83 84 82 78 79 78 74 71 74 79 72 68 75 86 61 94 90 92 85 82 83 85 86 69 68 74
95 97 98 97 97 93 89 96 93 86 85 90 66 78 88 82 86 85 74 77 80 76 77 89 84 83 90 92 90 81 91 81 95 95 88 90 76 67 72 68 70 68 76
90 86 71 68 65 73 94 90 96 84 84 85 73 83 82 82 86 84 77 79 80 76 69 90 92 90 90 100 92 85 99 99 96 95 93 83 65 58 61 63 69 82 76
72 55 57 56 53 52 54 64 76 86 92 89 76 76 77 86 91 81 81 83 85 78 84 77 91 100 100 77 88 96 100 100 99 95 82 66 58 60 66 72 74 74 88
47 49 53 54 58 60 59 57 52 49 50 54 71 79 85 91 83 75 72 72 75 83 88 97 100 100 100 94 100 100 100 97 87 74 67 67 73 77 81 83 84 86 84
44 44 47 46 48 52 59 60 60 60 60 63 69 70 74 81 94 95 98 99 92 96 99 100 99 100 100 100 100 99 88 81 80 81 82 80 75 78 81 86 90 90 90
44 43 42 40 42 44 47 54 60 63 65 68 70 74 76 80 83 86 94 98 100 99 99 100 100 100 100 100 95 85 85 86 85 78 71 72 76 78 82 84 86 91 92
46 46 45 44 41 40 40 43 48 56 63 65 66 66 67 70 77 81 89 96 98 99 100 100 100 100 100 96 91 89 82 76 70 66 66 70 76 74 82 88 88 89 87
46 48 48 46 40 40 41 44 45 46 48 53 62 67 67 67 69 74 84 86 94 98 97 100 100 99 97 93 88 78 74 67 64 64 63 65 72 76 83 84 85 84 85
45 48 50 50 44 45 46 48 47 47 48 49 51 53 61 65 68 71 77 85 90 96 100 100 100 93 93 87 79 70 62 63 67 69 72 76 80 82 84 84 84 83 85
40 39 39 39 42 41 42 43 46 49 51 53 53 53 53 60 68 69 71 79 89 92 97 93 93 93 86 85 72 63 64 65 65 69 72 77 82 84 84 85 86 88 86
35 36 39 40 43 45 47 48 48 48 47 49 53 57 58 59 60 69 72 75 81 86 90 92 88 85 81 80 72 68 66 65 68 72 78 81 81 82 81 81 83 87 90
40 43 45 47 48 48 48 49 50 52 54 55 54 52 54 59 61 64 73 75 77 79 79 81 81 78 77 77 72 73 72 73 77 79 81 82 84 88 86 85 84 82 80
47 48 51 55 57 58 61 63 67 69 71 68 62 61 59 61 65 65 66 75 78 78 78 75 74 74 74 72 71 75 77 79 82 86 88 88 86 86 90 87 79 62 63
49 52 53 55 58 60 62 64 65 68 71 75 79 78 74 71 72 73 74 71 79 79 79 80 79 76 76 77 74 76 78 84 88 92 90 94 90 89 93 80 68 57 62
51 55 62 66 69 72 75 79 80 79 77 83 82 82 81 80 78 76 76 76 78 84 85 84 83 81 82 80 80 78 81 80 84 87 93 94 91 88 92 77 60 47 62
58 64 69 72 73 71 72 78 82 83 88 91 98 98 92 86 81 79 76 80 85 93 94 95 93 90 88 84 87 86 81 79 80 87 85 85 92 88 93 78 56 56 59
62 67 70 73 73 72 76 82 88 92 93 96 99 100 100 99 96 83 69 71 84 94 92 96 94 96 93 91 86 98 96 87 85 82 78 80 89 85 87 84 63 65 64
66 69 73 75 74 75 79 82 86 90 98 99 100 100 100 99 98 85 83 82 89 88 92 93 93 93 93 95 98 100 100 88 84 84 83 82 92 88 78 94 74 62 60
60 64 71 72 73 78 79 82 89 88 93 97 98 100 100 99 99 96 88 83 87 88 90 93 91 91 91 91 97 99 100 98 87 85 84 90 100 96 86 92 81 65 59
59 61 72 72 76 78 78 83 88 89 96 97 98 98 99 98 99 98 96 94 94 92 94 94 92 90 86 89 98 100 100 100 95 84 86 87 92 98 92 92 89 70 72

GFSMW_925_rhum_111.txt.gz
RH
56 61 69 80 85 80 79 88 90 86 100 99 100 95 73 62 58 58 59 64 68 67 72 70 73 72 70 69 67 65 64 63 60 62 60 62 56 54 62 61 61 62 63
61 86 92 98 96 96 88 87 99 89 87 100 100 93 79 71 73 73 72 69 80 79 77 76 74 77 73 69 69 68 67 64 63 65 72 76 68 65 64 61 59 65 68
69 95 95 100 96 94 89 91 100 94 88 84 89 87 82 68 70 82 86 78 80 82 83 76 82 79 74 74 73 69 68 69 75 74 80 89 81 75 66 63 62 68 71
92 94 97 100 94 94 95 86 91 94 91 86 89 80 70 65 60 68 75 77 79 84 83 82 82 81 77 76 74 75 75 72 76 85 83 90 87 76 83 72 69 69 72
95 94 97 94 88 95 97 100 98 94 91 88 84 83 82 86 80 73 72 72 77 77 78 78 73 75 73 71 72 69 70 75 86 85 97 98 92 90 89 91 77 74 73
94 96 97 90 96 93 100 96 100 100 98 95 90 85 84 82 86 84 84 81 79 73 78 78 79 80 77 77 74 66 66 68 73 84 91 85 92 87 84 88 79 78 77
97 96 97 99 97 93 96 99 98 100 98 97 99 93 82 86 90 90 87 86 86 82 84 89 85 81 76 80 76 77 75 80 87 88 94 94 90 91 71 72 74 73 84
92 93 93 90 80 92 94 95 97 95 94 90 84 91 84 86 86 80 87 89 79 79 79 86 92 81 85 89 91 88 86 91 93 99 94 94 92 86 74 78 76 82 80
82 83 73 66 62 58 65 81 87 92 91 88 90 81 90 92 88 81 74 85 87 79 86 87 80 80 76 83 91 98 100 100 90 89 97 96 90 85 72 67 66 65 84
66 62 58 60 66 64 62 59 52 54 56 64 71 74 73 80 85 84 90 86 83 75 87 86 97 96 86 94 93 100 100 100 94 100 98 97 86 69 68 73 76 75 70
47 47 49 50 51 56 60 64 66 68 68 68 73 74 80 82 89 91 99 99 98 93 93 100 100 100 100 100 100 100 100 100 99 99 96 84 68 70 77 78 79 81 82
49 48 49 47 47 47 47 49 51 56 62 65 67 70 74 78 82 83 83 85 90 97 99 100 100 100 100 100 100 100 100 100 100 93 79 72 77 79 78 77 78 84 86
51 52 52 53 51 50 51 50 50 50 50 50 55 60 63 65 67 75 82 95 93 96 96 98 98 99 100 100 100 100 99 98 88 80 79 80 80 75 76 78 81 87 92
50 49 50 55 51 51 48 45 47 49 50 52 52 52 53 59 66 67 71 83 89 94 98 95 97 96 98 99 100 100 98 89 87 85 82 72 68 68 73 79 80 84 87
42 43 44 47 46 46 46 46 46 47 47 47 51 55 56 56 57 64 69 73 81 81 91 98 98 100 100 99 99 99 93 90 83 77 73 68 68 70 69 76 85 86 88
39 41 44 46 50 51 51 51 52 52 52 52 52 50 50 54 56 58 61 72 74 82 89 100 96 100 100 99 99 95 91 86 77 72 71 70 73 78 81 85 84 82 83
41 48 51 55 59 60 61 65 65 66 68 68 66 64 62 60 59 58 64 62 70 74 83 90 98 98 99 96 95 96 90 84 75 68 71 78 80 81 83 86 86 84 85
54 57 63 63 62 62 64 65 66 68 70 72 75 78 78 78 74 69 65 67 72 74 76 81 87 95 95 95 93 92 90 90 81 72 70 72 77 80 82 85 87 86 87
57 57 53 54 57 61 69 71 72 71 72 72 76 81 83 85 87 85 81 76 71 72 83 80 80 84 89 90 88 91 85 83 82 73 73 70 72 73 80 80 82 84 84
52 52 54 58 64 70 70 71 72 75 76 78 88 84 85 92 94 89 84 82 82 82 76 86 84 80 80 80 83 89 92 88 83 80 79 77 74 79 83 83 83 79 69
53 58 65 69 71 70 71 71 74 76 80 84 80 88 92 98 97 99 96 88 84 86 87 89 84 87 82 80 76 80 88 89 92 88 90 89 87 83 89 86 82 75 61
62 67 71 73 73 73 73 71 78 79 86 86 91 93 95 97 98 99 99 99 96 89 92 93 97 97 92 86 84 78 79 88 91 95 92 91 90 88 97 91 80 68 55
64 67 71 75 76 75 74 76 76 80 86 86 86 90 97 97 97 99 98 98 97 84 77 84 93 95 99 95 91 87 84 88 91 88 86 85 94 91 98 93 74 67 55
62 64 71 76 76 74 77 76 76 78 84 82 84 90 93 94 97 98 97 98 97 88 83 86 94 91 99 99 99 100 100 98 97 90 88 85 94 94 99 98 70 68 62
59 64 69 76 74 75 79 80 78 80 83 86 90 90 92 93 96 95 98 99 98 98 91 90 89 93 96 98 96 99 100 100 99 94 93 99 100 97 96 98 71 67 72
64 65 69 73 74 76 80 81 81 84 88 95 93 92 91 94 96 97 97 99 99 97 100 98 95 93 88 86 96 97 100 100 100 97 98 99 100 98 95 100 82 70 68

GFSMW_925_rhum_114.txt.gz
RH
39 46 71 73 72 67 77 81 84 77 91 95 100 100 99 88 88 89 83 74 78 78 78 72 68 68 66 69 69 67 65 67 64 62 60 63 64 62 63 60 61 64 64
63 72 86 84 86 95 86 89 87 81 87 86 100 100 99 92 83 80 74 75 82 74 68 65 63 63 69 69 68 66 69 66 64 65 73 84 72 69 68 64 64 67 67
68 83 93 88 89 97 99 98 97 94 97 94 100 100 96 98 98 88 71 65 63 62 62 62 62 68 71 72 68 68 68 69 70 67 69 92 85 79 72 70 74 70 69
68 90 93 95 95 96 97 93 88 88 73 93 100 98 92 91 89 81 73 64 65 64 70 72 73 74 75 78 76 72 72 73 79 82 78 72 68 86 88 74 76 77 72
88 95 93 90 95 98 99 98 99 92 81 92 97 95 93 95 93 88 81 71 72 83 81 80 80 78 86 85 84 99 96 75 79 86 96 100 98 87 89 95 91 84 79
94 93 90 83 93 93 91 99 100 100 88 96 94 91 92 92 91 85 79 78 80 70 71 70 68 69 72 94 85 81 80 73 71 68 79 86 95 99 92 87 82 84 80
96 97 98 99 99 98 99 100 100 100 94 100 100 97 93 92 92 92 88 84 83 80 84 70 72 69 70 82 84 80 79 78 78 72 78 86 84 82 87 79 83 82 89
96 96 93 95 95 95 96 100 100 100 100 99 98 100 100 94 91 88 88 86 81 79 76 77 85 79 100 88 84 81 81 82 83 83 88 89 89 88 87 91 91 93 93
94 94 92 87 79 72 78 86 91 96 99 96 95 95 97 98 87 83 85 90 84 79 72 72 85 84 85 87 91 93 92 85 86 86 95 94 88 97 89 78 77 82 94
78 71 72 70 67 71 72 72 71 75 77 81 85 100 95 85 87 91 92 90 88 85 81 83 86 86 86 90 86 96 99 100 100 100 95 96 98 94 95 84 77 74 68
63 58 52 54 55 55 55 57 60 63 66 69 73 78 86 93 96 95 91 98 100 100 97 96 89 99 96 91 100 100 100 99 100 99 100 100 100 97 92 83 74 76 71
55 55 55 56 56 57 56 56 54 54 56 55 54 60 65 68 71 76 81 89 100 100 91 98 99 99 100 100 100 100 100 100 100 100 100 100 100 96 89 77 76 78 81
51 50 52 52 52 51 50 48 48 49 46 46 52 55 57 57 59 67 71 75 88 96 97 100 99 98 99 100 100 99 99 100 100 100 100 99 99 87 80 80 82 84 86
46 47 49 52 53 52 52 52 53 54 54 51 49 48 50 51 54 57 59 66 72 86 97 99 100 94 95 99 99 100 100 100 100 99 100 100 90 77 79 84 81 83 89
45 48 52 58 58 60 60 61 61 61 60 58 57 60 60 57 53 53 56 61 64 70 76 86 92 97 92 91 100 100 100 100 100 100 94 87 82 80 78 74 78 85 88
47 53 57 63 66 66 66 64 64 64 64 66 67 67 68 72 72 69 66 62 60 64 70 78 84 92 90 98 100 100 100 100 100 96 91 91 91 78 71 70 69 69 80
54 61 65 64 62 63 66 69 69 70 70 72 73 76 80 78 72 69 71 72 71 70 69 71 80 86 88 88 97 100 100 100 100 97 91 86 80 74 72 73 76 79 78
57 60 65 66 67 72 77 77 74 73 77 77 82 88 87 86 87 87 86 80 77 82 82 80 73 74 93 88 90 95 100 100 98 96 92 82 78 74 79 81 84 86 87
63 63 65 68 72 78 77 75 73 76 77 80 88 86 88 93 89 88 90 92 95 87 78 83 84 83 80 81 88 92 100 100 100 99 95 92 81 77 86 88 92 91 89
59 62 64 64 64 67 64 66 70 74 80 83 88 88 90 92 92 92 93 94 96 97 93 80 77 88 84 77 82 90 100 100 100 100 100 97 96 94 98 90 91 94 92
57 63 62 67 67 62 68 74 74 78 78 80 82 86 88 89 91 94 95 96 96 96 99 97 93 92 95 85 83 90 100 100 100 98 99 98 98 85 89 90 87 83 81
58 59 65 64 56 55 67 72 75 72 75 78 82 83 84 84 88 90 94 93 95 94 95 97 95 89 94 93 89 87 96 99 98 98 92 90 90 92 93 96 85 82 78
61 63 66 68 69 72 76 73 75 76 73 74 84 84 80 84 88 91 89 89 91 92 90 94 94 84 84 87 94 95 93 98 98 96 93 92 91 91 100 98 89 89 71
59 57 64 74 74 73 75 77 80 81 82 78 79 85 91 92 91 90 90 88 88 88 91 93 91 84 84 90 96 98 100 99 99 99 100 99 100 97 100 100 95 88 70
62 64 69 72 73 73 75 79 82 85 88 85 89 91 92 93 91 88 92 94 91 94 99 98 98 97 96 95 86 99 100 100 100 100 100 100 100 100 100 100 94 84 76
66 70 71 72 74 75 77 78 87 87 82 85 88 89 87 87 90 91 92 90 92 99 100 100 100 99 100 99 94 89 97 99 100 100 100 99 100 99 100 100 96 87 86

GFSMW_925_rhum_117.txt.gz
RH
45 36 35 29 51 71 64 54 63 71 84 90 100 100 100 95 98 84 77 100 100 99 94 96 90 87 88 80 79 75 72 72 69 68 67 65 63 64 63 65 62 62 63
58 51 43 68 74 67 60 83 80 81 82 94 100 100 97 99 99 96 82 100 98 93 92 94 87 88 89 82 75 72 74 73 68 72 75 83 73 69 69 68 66 64 65
68 67 87 87 81 69 77 87 98 92 86 91 98 100 99 100 100 95 95 97 99 99 85 91 90 82 75 75 72 70 76 71 70 70 69 92 90 81 75 74 73 72 71
72 73 89 90 83 80 89 93 92 100 93 90 100 95 98 96 94 99 98 98 98 90 88 93 88 77 71 70 67 72 73 73 74 77 74 80 74 87 88 78 78 83 82
74 78 90 83 88 86 89 94 92 89 90 91 99 92 100 100 100 99 100 100 99 94 87 93 82 71 67 66 68 76 76 77 80 84 91 96 98 92 88 94 94 86 85
76 87 87 96 96 92 96 99 96 94 97 98 99 93 95 100 100 97 94 95 94 89 89 84 75 66 66 74 78 87 89 93 92 84 88 94 95 97 94 93 93 90 86
97 96 95 95 95 98 97 98 100 97 99 100 97 96 95 98 98 98 100 100 95 89 82 76 71 62 68 64 73 93 95 93 90 84 87 89 90 85 84 82 84 89 91
96 97 98 97 98 99 99 99 100 100 99 100 100 99 97 97 97 97 96 99 94 95 93 88 88 89 78 83 100 96 83 83 83 83 86 86 87 92 83 84 84 96 97
95 94 90 93 92 94 96 99 98 98 100 100 99 99 100 100 99 94 97 90 88 86 87 91 86 82 82 83 86 99 99 99 92 98 95 96 91 95 91 89 83 81 96
88 81 76 69 63 67 69 70 69 73 81 86 94 100 100 97 89 93 93 87 82 86 90 87 83 77 79 85 88 90 92 100 100 100 100 100 100 99 97 96 98 93 90
65 59 55 52 50 49 52 52 52 52 55 57 60 64 75 84 94 98 100 100 98 99 98 92 90 93 88 92 88 95 100 100 100 100 100 100 100 100 100 100 100 97 89
52 50 50 51 52 54 56 58 55 53 50 47 48 51 53 54 57 59 65 69 79 89 100 100 99 100 100 98 99 100 100 100 100 100 100 100 100 100 100 100 100 96 92
47 52 55 57 60 61 61 62 64 63 58 54 53 52 52 51 52 53 56 58 64 72 80 96 100 99 99 99 100 100 100 100 100 100 100 100 100 100 100 100 100 99 93
50 53 60 65 65 65 64 61 60 61 58 58 61 62 64 64 63 58 54 53 55 60 63 70 83 95 96 99 99 99 100 100 100 100 100 100 100 100 100 100 99 100 99
52 59 65 71 67 66 65 65 63 62 59 62 66 70 75 74 69 66 63 58 56 57 59 62 66 72 84 98 97 99 100 100 100 100 100 100 100 100 100 100 100 98 97
57 61 66 69 71 72 72 68 66 63 64 70 75 81 83 75 73 78 82 83 81 78 71 66 68 67 68 89 94 94 100 100 100 100 99 100 100 100 100 97 88 86 87
56 62 68 68 68 72 73 69 69 69 73 78 83 88 86 88 92 90 89 89 91 90 92 89 83 78 74 71 66 84 99 100 100 100 100 100 100 100 97 96 93 86 76
56 62 67 69 70 74 74 75 75 76 81 83 87 90 91 93 87 87 87 89 90 91 93 95 95 94 86 76 73 71 86 100 100 100 100 100 100 100 100 100 96 89 85
57 63 67 72 75 77 75 75 77 78 80 84 85 87 89 92 88 89 89 88 90 94 95 91 93 91 90 89 82 82 90 100 99 99 100 100 100 100 100 100 95 92 95
61 68 73 74 74 67 66 71 78 78 80 80 80 83 86 88 85 84 86 90 91 93 91 91 90 87 89 74 80 94 99 98 100 100 99 99 100 100 99 97 92 100 95
64 68 69 66 60 56 55 65 71 77 76 74 73 75 81 82 82 84 86 87 87 85 89 89 92 88 91 94 86 98 100 98 99 100 100 100 100 99 98 96 97 99 98
60 58 59 59 57 58 60 67 74 71 72 74 75 73 74 77 81 84 86 86 87 86 82 83 86 87 87 94 87 92 98 99 98 100 100 99 100 100 96 95 98 100 99
59 59 60 60 55 58 65 71 70 79 80 85 82 80 79 82 83 83 81 82 82 82 82 80 83 86 87 89 87 85 96 93 100 99 99 96 95 100 100 100 99 100 98
58 60 60 65 66 64 71 73 75 81 88 86 88 81 82 86 87 88 84 83 87 87 87 84 82 87 92 90 92 97 91 99 100 100 100 100 98 100 100 100 100 99 96
59 60 66 69 70 69 74 75 78 87 90 90 87 87 88 89 88 85 86 88 89 90 92 97 99 98 97 97 98 97 99 100 91 99 100 100 100 100 100 100 100 100 100
61 68 70 75 76 75 78 77 82 91 92 91 90 92 94 94 91 90 86 86 90 90 88 88 90 99 100 100 100 97 95 100 100 100 99 100 100 99 100 100 100 100 99